Wetterdaten: Freitag, 17.02.2023
Datum Zeit Temp. 2m Temp +5 cm Feuchte A. Luftdruck Regen Wind Richtung Richtung Sonnenschein UV Solar Taupunkt Windchill Windben
17.02.2023 00:00 6,9 C 6,1 C 92 % 1025,3 hPa 0,0 l/m 17,7 km/h (3 Bft) S-SW 202 0 min 0,0 UV-I 0 W/m 5,7 C 0,2 C 22,5 km/h (4 Bft)
17.02.2023 00:01 6,9 C 6,1 C 92 % 1025,3 hPa 0,0 l/m 20,9 km/h (4 Bft) S 180 0 min 0,0 UV-I 0 W/m 5,7 C -1,0 C 33,8 km/h (5 Bft)
17.02.2023 00:02 6,9 C 6,1 C 92 % 1025,2 hPa 0,0 l/m 16,1 km/h (3 Bft) S 180 0 min 0,0 UV-I 0 W/m 5,7 C 0,9 C 29,0 km/h (5 Bft)
17.02.2023 00:03 6,9 C 6,1 C 92 % 1025,2 hPa 0,0 l/m 22,5 km/h (4 Bft) S-SW 202 0 min 0,0 UV-I 0 W/m 5,7 C -1,6 C 32,2 km/h (5 Bft)
17.02.2023 00:04 7,0 C 6,1 C 92 % 1025,2 hPa 0,0 l/m 17,7 km/h (3 Bft) S 180 0 min 0,0 UV-I 0 W/m 5,8 C 0,3 C 37,0 km/h (5 Bft)
17.02.2023 00:05 7,0 C 6,1 C 92 % 1025,3 hPa 0,0 l/m 19,3 km/h (3 Bft) S 180 0 min 0,0 UV-I 0 W/m 5,8 C -0,3 C 24,1 km/h (4 Bft)
17.02.2023 00:06 6,9 C 6,1 C 92 % 1025,3 hPa 0,0 l/m 14,5 km/h (3 Bft) S-SW 202 0 min 0,0 UV-I 0 W/m 5,7 C 1,6 C 22,5 km/h (4 Bft)
17.02.2023 00:07 7,0 C 6,1 C 92 % 1025,3 hPa 0,0 l/m 20,9 km/h (4 Bft) S 180 0 min 0,0 UV-I 0 W/m 5,8 C -0,9 C 29,0 km/h (5 Bft)
17.02.2023 00:08 7,0 C 6,1 C 92 % 1025,2 hPa 0,0 l/m 16,1 km/h (3 Bft) S 180 0 min 0,0 UV-I 0 W/m 5,8 C 1,0 C 22,5 km/h (4 Bft)
17.02.2023 00:09 7,0 C 6,1 C 92 % 1025,2 hPa 0,0 l/m 16,1 km/h (3 Bft) S 180 0 min 0,0 UV-I 0 W/m 5,8 C 1,0 C 25,7 km/h (4 Bft)
17.02.2023 00:10 7,0 C 6,1 C 92 % 1025,3 hPa 0,0 l/m 16,1 km/h (3 Bft) S-SW 202 0 min 0,0 UV-I 0 W/m 5,8 C 1,0 C 22,5 km/h (4 Bft)
17.02.2023 00:11 7,0 C 6,1 C 92 % 1025,2 hPa 0,0 l/m 14,5 km/h (3 Bft) S-SW 202 0 min 0,0 UV-I 0 W/m 5,8 C 1,7 C 22,5 km/h (4 Bft)
17.02.2023 00:12 7,0 C 6,1 C 92 % 1025,3 hPa 0,0 l/m 17,7 km/h (3 Bft) S 180 0 min 0,0 UV-I 0 W/m 5,8 C 0,3 C 22,5 km/h (4 Bft)
17.02.2023 00:13 7,0 C 6,1 C 92 % 1025,3 hPa 0,0 l/m 17,7 km/h (3 Bft) S-SW 202 0 min 0,0 UV-I 0 W/m 5,8 C 0,3 C 24,1 km/h (4 Bft)
17.02.2023 00:14 6,9 C 6,1 C 92 % 1025,2 hPa 0,0 l/m 19,3 km/h (3 Bft) S 180 0 min 0,0 UV-I 0 W/m 5,7 C -0,5 C 33,8 km/h (5 Bft)
17.02.2023 00:15 6,9 C 6,1 C 92 % 1025,3 hPa 0,0 l/m 17,7 km/h (3 Bft) S-SW 202 0 min 0,0 UV-I 0 W/m 5,7 C 0,2 C 24,1 km/h (4 Bft)
17.02.2023 00:16 6,9 C 6,1 C 92 % 1025,3 hPa 0,0 l/m 17,7 km/h (3 Bft) S-SW 202 0 min 0,0 UV-I 0 W/m 5,7 C 0,2 C 22,5 km/h (4 Bft)
17.02.2023 00:17 6,9 C 6,1 C 92 % 1025,3 hPa 0,0 l/m 14,5 km/h (3 Bft) S 180 0 min 0,0 UV-I 0 W/m 5,7 C 1,6 C 25,7 km/h (4 Bft)
17.02.2023 00:18 6,9 C 6,1 C 92 % 1025,3 hPa 0,0 l/m 16,1 km/h (3 Bft) S 180 0 min 0,0 UV-I 0 W/m 5,7 C 0,9 C 20,9 km/h (4 Bft)
17.02.2023 00:19 6,9 C 6,1 C 92 % 1025,3 hPa 0,0 l/m 19,3 km/h (3 Bft) S 180 0 min 0,0 UV-I 0 W/m 5,7 C -0,5 C 27,4 km/h (4 Bft)
17.02.2023 00:20 6,9 C 6,1 C 92 % 1025,2 hPa 0,0 l/m 17,7 km/h (3 Bft) S 180 0 min 0,0 UV-I 0 W/m 5,7 C 0,2 C 27,4 km/h (4 Bft)
17.02.2023 00:21 7,0 C 6,1 C 92 % 1025,3 hPa 0,0 l/m 12,9 km/h (3 Bft) S 180 0 min 0,0 UV-I 0 W/m 5,8 C 2,6 C 17,7 km/h (3 Bft)
17.02.2023 00:22 6,9 C 6,1 C 92 % 1025,3 hPa 0,0 l/m 14,5 km/h (3 Bft) S 180 0 min 0,0 UV-I 0 W/m 5,7 C 1,6 C 22,5 km/h (4 Bft)
17.02.2023 00:23 6,9 C 6,1 C 92 % 1025,2 hPa 0,0 l/m 14,5 km/h (3 Bft) S 180 0 min 0,0 UV-I 0 W/m 5,7 C 1,6 C 22,5 km/h (4 Bft)
17.02.2023 00:24 6,9 C 6,1 C 92 % 1025,3 hPa 0,0 l/m 16,1 km/h (3 Bft) S-SW 202 0 min 0,0 UV-I 0 W/m 5,7 C 0,9 C 24,1 km/h (4 Bft)
17.02.2023 00:25 6,9 C 6,1 C 92 % 1025,3 hPa 0,0 l/m 24,1 km/h (4 Bft) S 180 0 min 0,0 UV-I 0 W/m 5,7 C -2,1 C 33,8 km/h (5 Bft)
17.02.2023 00:26 6,9 C 6,1 C 92 % 1025,1 hPa 0,0 l/m 20,9 km/h (4 Bft) S-SW 202 0 min 0,0 UV-I 0 W/m 5,7 C -1,0 C 27,4 km/h (4 Bft)
17.02.2023 00:27 7,0 C 6,1 C 92 % 1025,1 hPa 0,0 l/m 25,7 km/h (4 Bft) S-SW 202 0 min 0,0 UV-I 0 W/m 5,8 C -2,4 C 38,6 km/h (5 Bft)
17.02.2023 00:28 6,9 C 6,1 C 92 % 1025,1 hPa 0,0 l/m 20,9 km/h (4 Bft) S 180 0 min 0,0 UV-I 0 W/m 5,7 C -1,0 C 38,6 km/h (5 Bft)
17.02.2023 00:29 6,9 C 6,1 C 92 % 1025,1 hPa 0,0 l/m 20,9 km/h (4 Bft) S-SW 202 0 min 0,0 UV-I 0 W/m 5,7 C -1,0 C 25,7 km/h (4 Bft)
17.02.2023 00:30 6,9 C 6,1 C 92 % 1025,1 hPa 0,0 l/m 19,3 km/h (3 Bft) S 180 0 min 0,0 UV-I 0 W/m 5,7 C -0,5 C 30,6 km/h (5 Bft)
17.02.2023 00:31 6,9 C 6,1 C 92 % 1025,2 hPa 0,0 l/m 22,5 km/h (4 Bft) S 180 0 min 0,0 UV-I 0 W/m 5,7 C -1,6 C 35,4 km/h (5 Bft)
17.02.2023 00:32 6,9 C 6,1 C 92 % 1025,1 hPa 0,0 l/m 22,5 km/h (4 Bft) S-SW 202 0 min 0,0 UV-I 0 W/m 5,7 C -1,6 C 32,2 km/h (5 Bft)
17.02.2023 00:33 7,0 C 6,1 C 92 % 1025,1 hPa 0,0 l/m 24,1 km/h (4 Bft) S 180 0 min 0,0 UV-I 0 W/m 5,8 C -2,0 C 33,8 km/h (5 Bft)
17.02.2023 00:34 7,0 C 6,1 C 92 % 1025,1 hPa 0,0 l/m 17,7 km/h (3 Bft) S 180 0 min 0,0 UV-I 0 W/m 5,8 C 0,3 C 25,7 km/h (4 Bft)
17.02.2023 00:35 7,0 C 6,1 C 92 % 1025,1 hPa 0,0 l/m 20,9 km/h (4 Bft) S 180 0 min 0,0 UV-I 0 W/m 5,8 C -0,9 C 35,4 km/h (5 Bft)
17.02.2023 00:36 7,0 C 6,1 C 92 % 1025,1 hPa 0,0 l/m 19,3 km/h (3 Bft) S-SW 202 0 min 0,0 UV-I 0 W/m 5,8 C -0,3 C 24,1 km/h (4 Bft)
17.02.2023 00:37 6,9 C 6,1 C 92 % 1025,2 hPa 0,0 l/m 20,9 km/h (4 Bft) S-SW 202 0 min 0,0 UV-I 0 W/m 5,7 C -1,0 C 35,4 km/h (5 Bft)
17.02.2023 00:38 6,9 C 6,1 C 92 % 1025,1 hPa 0,0 l/m 17,7 km/h (3 Bft) S 180 0 min 0,0 UV-I 0 W/m 5,7 C 0,2 C 27,4 km/h (4 Bft)
17.02.2023 00:39 7,0 C 6,1 C 92 % 1025,2 hPa 0,0 l/m 20,9 km/h (4 Bft) S-SW 202 0 min 0,0 UV-I 0 W/m 5,8 C -0,9 C 32,2 km/h (5 Bft)
17.02.2023 00:40 6,9 C 6,1 C 92 % 1025,2 hPa 0,0 l/m 17,7 km/h (3 Bft) S 180 0 min 0,0 UV-I 0 W/m 5,7 C 0,2 C 22,5 km/h (4 Bft)
17.02.2023 00:41 6,9 C 6,1 C 92 % 1025,2 hPa 0,0 l/m 17,7 km/h (3 Bft) S 180 0 min 0,0 UV-I 0 W/m 5,7 C 0,2 C 22,5 km/h (4 Bft)
17.02.2023 00:42 6,9 C 6,1 C 92 % 1025,3 hPa 0,0 l/m 17,7 km/h (3 Bft) S-SW 202 0 min 0,0 UV-I 0 W/m 5,7 C 0,2 C 29,0 km/h (5 Bft)
17.02.2023 00:43 6,9 C 6,1 C 92 % 1025,2 hPa 0,0 l/m 19,3 km/h (3 Bft) S 180 0 min 0,0 UV-I 0 W/m 5,7 C -0,5 C 27,4 km/h (4 Bft)
17.02.2023 00:44 6,9 C 6,1 C 92 % 1025,2 hPa 0,0 l/m 19,3 km/h (3 Bft) S 180 0 min 0,0 UV-I 0 W/m 5,7 C -0,5 C 33,8 km/h (5 Bft)
17.02.2023 00:45 6,9 C 6,1 C 92 % 1025,2 hPa 0,0 l/m 20,9 km/h (4 Bft) S-SW 202 0 min 0,0 UV-I 0 W/m 5,7 C -1,0 C 29,0 km/h (5 Bft)
17.02.2023 00:46 6,9 C 6,1 C 92 % 1025,0 hPa 0,0 l/m 19,3 km/h (3 Bft) S-SW 202 0 min 0,0 UV-I 0 W/m 5,7 C -0,5 C 24,1 km/h (4 Bft)
17.02.2023 00:47 6,9 C 6,1 C 92 % 1025,1 hPa 0,0 l/m 16,1 km/h (3 Bft) S 180 0 min 0,0 UV-I 0 W/m 5,7 C 0,9 C 22,5 km/h (4 Bft)
17.02.2023 00:48 6,9 C 6,1 C 92 % 1025,0 hPa 0,0 l/m 14,5 km/h (3 Bft) S 180 0 min 0,0 UV-I 0 W/m 5,7 C 1,6 C 19,3 km/h (3 Bft)
17.02.2023 00:49 6,9 C 6,1 C 92 % 1025,2 hPa 0,0 l/m 14,5 km/h (3 Bft) SW 225 0 min 0,0 UV-I 0 W/m 5,7 C 1,6 C 25,7 km/h (4 Bft)
17.02.2023 00:50 6,9 C 6,1 C 92 % 1025,0 hPa 0,0 l/m 12,9 km/h (3 Bft) S 180 0 min 0,0 UV-I 0 W/m 5,7 C 2,4 C 20,9 km/h (4 Bft)
17.02.2023 00:51 6,9 C 6,1 C 92 % 1025,0 hPa 0,0 l/m 17,7 km/h (3 Bft) S-SW 202 0 min 0,0 UV-I 0 W/m 5,7 C 0,2 C 24,1 km/h (4 Bft)
17.02.2023 00:52 6,9 C 6,1 C 92 % 1025,1 hPa 0,0 l/m 16,1 km/h (3 Bft) S-SW 202 0 min 0,0 UV-I 0 W/m 5,7 C 0,9 C 22,5 km/h (4 Bft)
17.02.2023 00:53 6,9 C 6,1 C 92 % 1025,1 hPa 0,0 l/m 19,3 km/h (3 Bft) S-SW 202 0 min 0,0 UV-I 0 W/m 5,7 C -0,5 C 25,7 km/h (4 Bft)
17.02.2023 00:54 6,9 C 6,1 C 92 % 1025,0 hPa 0,0 l/m 17,7 km/h (3 Bft) S 180 0 min 0,0 UV-I 0 W/m 5,7 C 0,2 C 24,1 km/h (4 Bft)
17.02.2023 00:55 6,9 C 6,1 C 92 % 1025,0 hPa 0,0 l/m 17,7 km/h (3 Bft) SW 225 0 min 0,0 UV-I 0 W/m 5,7 C 0,2 C 22,5 km/h (4 Bft)
17.02.2023 00:56 6,9 C 6,1 C 92 % 1025,0 hPa 0,0 l/m 20,9 km/h (4 Bft) S-SW 202 0 min 0,0 UV-I 0 W/m 5,7 C -1,0 C 29,0 km/h (5 Bft)
17.02.2023 00:57 6,9 C 6,1 C 92 % 1025,1 hPa 0,0 l/m 17,7 km/h (3 Bft) S-SW 202 0 min 0,0 UV-I 0 W/m 5,7 C 0,2 C 22,5 km/h (4 Bft)
17.02.2023 00:58 6,9 C 6,1 C 92 % 1025,1 hPa 0,0 l/m 16,1 km/h (3 Bft) S-SW 202 0 min 0,0 UV-I 0 W/m 5,7 C 0,9 C 22,5 km/h (4 Bft)
17.02.2023 00:59 6,9 C 6,1 C 92 % 1025,0 hPa 0,0 l/m 12,9 km/h (3 Bft) S-SW 202 0 min 0,0 UV-I 0 W/m 5,7 C 2,4 C 19,3 km/h (3 Bft)
17.02.2023 01:00 6,9 C 6,1 C 92 % 1025,1 hPa 0,0 l/m 16,1 km/h (3 Bft) S-SW 202 0 min 0,0 UV-I 0 W/m 5,7 C 0,9 C 22,5 km/h (4 Bft)
17.02.2023 01:01 6,9 C 6,1 C 92 % 1025,1 hPa 0,0 l/m 14,5 km/h (3 Bft) S-SW 202 0 min 0,0 UV-I 0 W/m 5,7 C 1,6 C 19,3 km/h (3 Bft)
17.02.2023 01:02 6,9 C 6,1 C 92 % 1025,1 hPa 0,0 l/m 17,7 km/h (3 Bft) S-SW 202 0 min 0,0 UV-I 0 W/m 5,7 C 0,2 C 24,1 km/h (4 Bft)
17.02.2023 01:03 6,9 C 6,1 C 92 % 1025,1 hPa 0,0 l/m 24,1 km/h (4 Bft) S-SW 202 0 min 0,0 UV-I 0 W/m 5,7 C -2,1 C 35,4 km/h (5 Bft)
17.02.2023 01:04 6,9 C 6,1 C 92 % 1025,0 hPa 0,0 l/m 17,7 km/h (3 Bft) S-SW 202 0 min 0,0 UV-I 0 W/m 5,7 C 0,2 C 35,4 km/h (5 Bft)
17.02.2023 01:05 6,9 C 6,1 C 92 % 1025,1 hPa 0,0 l/m 19,3 km/h (3 Bft) S-SW 202 0 min 0,0 UV-I 0 W/m 5,7 C -0,5 C 25,7 km/h (4 Bft)
17.02.2023 01:06 6,9 C 6,1 C 92 % 1025,1 hPa 0,0 l/m 19,3 km/h (3 Bft) S-SW 202 0 min 0,0 UV-I 0 W/m 5,7 C -0,5 C 27,4 km/h (4 Bft)
17.02.2023 01:07 6,9 C 6,1 C 92 % 1025,1 hPa 0,0 l/m 16,1 km/h (3 Bft) S-SW 202 0 min 0,0 UV-I 0 W/m 5,7 C 0,9 C 22,5 km/h (4 Bft)
17.02.2023 01:08 6,9 C 6,1 C 92 % 1025,1 hPa 0,0 l/m 17,7 km/h (3 Bft) S 180 0 min 0,0 UV-I 0 W/m 5,7 C 0,2 C 25,7 km/h (4 Bft)
17.02.2023 01:09 6,9 C 6,1 C 92 % 1025,1 hPa 0,0 l/m 16,1 km/h (3 Bft) S-SW 202 0 min 0,0 UV-I 0 W/m 5,7 C 0,9 C 24,1 km/h (4 Bft)
17.02.2023 01:10 6,9 C 6,1 C 92 % 1025,1 hPa 0,0 l/m 19,3 km/h (3 Bft) S-SW 202 0 min 0,0 UV-I 0 W/m 5,7 C -0,5 C 25,7 km/h (4 Bft)
17.02.2023 01:11 6,9 C 6,1 C 92 % 1025,0 hPa 0,0 l/m 19,3 km/h (3 Bft) S-SW 202 0 min 0,0 UV-I 0 W/m 5,7 C -0,5 C 30,6 km/h (5 Bft)
17.02.2023 01:12 6,9 C 6,1 C 92 % 1025,0 hPa 0,0 l/m 20,9 km/h (4 Bft) S-SW 202 0 min 0,0 UV-I 0 W/m 5,7 C -1,0 C 27,4 km/h (4 Bft)
17.02.2023 01:13 6,9 C 6,1 C 92 % 1025,0 hPa 0,0 l/m 20,9 km/h (4 Bft) S-SW 202 0 min 0,0 UV-I 0 W/m 5,7 C -1,0 C 29,0 km/h (5 Bft)
17.02.2023 01:14 6,9 C 6,1 C 92 % 1024,9 hPa 0,0 l/m 19,3 km/h (3 Bft) S 180 0 min 0,0 UV-I 0 W/m 5,7 C -0,5 C 24,1 km/h (4 Bft)
17.02.2023 01:15 6,9 C 6,1 C 92 % 1024,9 hPa 0,0 l/m 17,7 km/h (3 Bft) S 180 0 min 0,0 UV-I 0 W/m 5,7 C 0,2 C 27,4 km/h (4 Bft)
17.02.2023 01:16 6,9 C 6,1 C 92 % 1024,9 hPa 0,0 l/m 17,7 km/h (3 Bft) S-SW 202 0 min 0,0 UV-I 0 W/m 5,7 C 0,2 C 27,4 km/h (4 Bft)
17.02.2023 01:17 6,9 C 6,1 C 92 % 1024,9 hPa 0,0 l/m 20,9 km/h (4 Bft) S-SW 202 0 min 0,0 UV-I 0 W/m 5,7 C -1,0 C 27,4 km/h (4 Bft)
17.02.2023 01:18 6,9 C 6,1 C 92 % 1024,9 hPa 0,0 l/m 17,7 km/h (3 Bft) S-SW 202 0 min 0,0 UV-I 0 W/m 5,7 C 0,2 C 20,9 km/h (4 Bft)
17.02.2023 01:19 6,9 C 6,1 C 92 % 1025,0 hPa 0,0 l/m 17,7 km/h (3 Bft) S-SW 202 0 min 0,0 UV-I 0 W/m 5,7 C 0,2 C 22,5 km/h (4 Bft)
17.02.2023 01:20 6,9 C 6,1 C 92 % 1024,8 hPa 0,0 l/m 22,5 km/h (4 Bft) S-SW 202 0 min 0,0 UV-I 0 W/m 5,7 C -1,6 C 29,0 km/h (5 Bft)
17.02.2023 01:21 6,9 C 6,1 C 92 % 1024,9 hPa 0,0 l/m 19,3 km/h (3 Bft) S-SW 202 0 min 0,0 UV-I 0 W/m 5,7 C -0,5 C 32,2 km/h (5 Bft)
17.02.2023 01:22 6,9 C 6,1 C 92 % 1024,9 hPa 0,0 l/m 19,3 km/h (3 Bft) S-SW 202 0 min 0,0 UV-I 0 W/m 5,7 C -0,5 C 22,5 km/h (4 Bft)
17.02.2023 01:23 6,9 C 6,1 C 92 % 1024,8 hPa 0,0 l/m 20,9 km/h (4 Bft) S 180 0 min 0,0 UV-I 0 W/m 5,7 C -1,0 C 29,0 km/h (5 Bft)
17.02.2023 01:24 6,9 C 6,1 C 92 % 1024,8 hPa 0,0 l/m 22,5 km/h (4 Bft) S 180 0 min 0,0 UV-I 0 W/m 5,7 C -1,6 C 29,0 km/h (5 Bft)
17.02.2023 01:25 6,9 C 6,1 C 92 % 1024,8 hPa 0,0 l/m 17,7 km/h (3 Bft) S-SW 202 0 min 0,0 UV-I 0 W/m 5,7 C 0,2 C 22,5 km/h (4 Bft)
17.02.2023 01:26 6,9 C 6,1 C 92 % 1024,9 hPa 0,0 l/m 14,5 km/h (3 Bft) S-SW 202 0 min 0,0 UV-I 0 W/m 5,7 C 1,6 C 24,1 km/h (4 Bft)
17.02.2023 01:27 6,9 C 6,1 C 92 % 1024,9 hPa 0,0 l/m 20,9 km/h (4 Bft) S 180 0 min 0,0 UV-I 0 W/m 5,7 C -1,0 C 29,0 km/h (5 Bft)
17.02.2023 01:28 6,9 C 6,1 C 92 % 1025,1 hPa 0,0 l/m 19,3 km/h (3 Bft) S 180 0 min 0,0 UV-I 0 W/m 5,7 C -0,5 C 25,7 km/h (4 Bft)
17.02.2023 01:29 6,9 C 6,1 C 92 % 1024,9 hPa 0,0 l/m 12,9 km/h (3 Bft) S 180 0 min 0,0 UV-I 0 W/m 5,7 C 2,4 C 17,7 km/h (3 Bft)
17.02.2023 01:30 6,9 C 6,1 C 92 % 1024,9 hPa 0,0 l/m 19,3 km/h (3 Bft) S-SW 202 0 min 0,0 UV-I 0 W/m 5,7 C -0,5 C 25,7 km/h (4 Bft)
17.02.2023 01:31 6,9 C 6,1 C 92 % 1024,9 hPa 0,0 l/m 20,9 km/h (4 Bft) S-SW 202 0 min 0,0 UV-I 0 W/m 5,7 C -1,0 C 30,6 km/h (5 Bft)
17.02.2023 01:32 6,9 C 6,1 C 93 % 1025,1 hPa 0,0 l/m 20,9 km/h (4 Bft) S 180 0 min 0,0 UV-I 0 W/m 5,8 C -1,0 C 27,4 km/h (4 Bft)
17.02.2023 01:33 6,9 C 6,1 C 93 % 1025,0 hPa 0,0 l/m 20,9 km/h (4 Bft) S-SW 202 0 min 0,0 UV-I 0 W/m 5,8 C -1,0 C 32,2 km/h (5 Bft)
17.02.2023 01:34 6,9 C 6,1 C 93 % 1025,1 hPa 0,0 l/m 19,3 km/h (3 Bft) S 180 0 min 0,0 UV-I 0 W/m 5,8 C -0,5 C 38,6 km/h (5 Bft)
17.02.2023 01:35 6,9 C 6,1 C 93 % 1025,0 hPa 0,0 l/m 16,1 km/h (3 Bft) S 180 0 min 0,0 UV-I 0 W/m 5,8 C 0,9 C 25,7 km/h (4 Bft)
17.02.2023 01:36 6,9 C 6,1 C 93 % 1025,0 hPa 0,0 l/m 14,5 km/h (3 Bft) S-SW 202 0 min 0,0 UV-I 0 W/m 5,8 C 1,6 C 19,3 km/h (3 Bft)
17.02.2023 01:37 6,9 C 6,1 C 93 % 1025,0 hPa 0,0 l/m 17,7 km/h (3 Bft) S-SW 202 0 min 0,0 UV-I 0 W/m 5,8 C 0,2 C 32,2 km/h (5 Bft)
17.02.2023 01:38 6,9 C 6,1 C 93 % 1025,0 hPa 0,0 l/m 16,1 km/h (3 Bft) S 180 0 min 0,0 UV-I 0 W/m 5,8 C 0,9 C 24,1 km/h (4 Bft)
17.02.2023 01:39 6,9 C 6,1 C 93 % 1025,0 hPa 0,0 l/m 19,3 km/h (3 Bft) S 180 0 min 0,0 UV-I 0 W/m 5,8 C -0,5 C 27,4 km/h (4 Bft)
17.02.2023 01:40 6,9 C 6,1 C 93 % 1025,0 hPa 0,0 l/m 19,3 km/h (3 Bft) S-SW 202 0 min 0,0 UV-I 0 W/m 5,8 C -0,5 C 27,4 km/h (4 Bft)
17.02.2023 01:41 6,9 C 6,1 C 93 % 1025,0 hPa 0,0 l/m 16,1 km/h (3 Bft) S 180 0 min 0,0 UV-I 0 W/m 5,8 C 0,9 C 24,1 km/h (4 Bft)
17.02.2023 01:42 6,9 C 6,1 C 93 % 1025,0 hPa 0,0 l/m 11,3 km/h (2 Bft) S-SW 202 0 min 0,0 UV-I 0 W/m 5,8 C 3,4 C 17,7 km/h (3 Bft)
17.02.2023 01:43 6,9 C 6,1 C 93 % 1025,0 hPa 0,0 l/m 14,5 km/h (3 Bft) S-SW 202 0 min 0,0 UV-I 0 W/m 5,8 C 1,6 C 22,5 km/h (4 Bft)
17.02.2023 01:44 6,9 C 6,1 C 93 % 1025,0 hPa 0,0 l/m 20,9 km/h (4 Bft) S 180 0 min 0,0 UV-I 0 W/m 5,8 C -1,0 C 30,6 km/h (5 Bft)
17.02.2023 01:45 6,9 C 6,1 C 93 % 1025,0 hPa 0,0 l/m 16,1 km/h (3 Bft) S 180 0 min 0,0 UV-I 0 W/m 5,8 C 0,9 C 20,9 km/h (4 Bft)
17.02.2023 01:46 6,9 C 6,1 C 93 % 1025,0 hPa 0,0 l/m 14,5 km/h (3 Bft) S-SW 202 0 min 0,0 UV-I 0 W/m 5,8 C 1,6 C 17,7 km/h (3 Bft)
17.02.2023 01:47 6,9 C 6,1 C 93 % 1025,1 hPa 0,0 l/m 12,9 km/h (3 Bft) S-SW 202 0 min 0,0 UV-I 0 W/m 5,8 C 2,4 C 17,7 km/h (3 Bft)
17.02.2023 01:48 6,9 C 6,1 C 93 % 1025,0 hPa 0,0 l/m 14,5 km/h (3 Bft) S-SW 202 0 min 0,0 UV-I 0 W/m 5,8 C 1,6 C 20,9 km/h (4 Bft)
17.02.2023 01:49 6,9 C 6,1 C 93 % 1025,1 hPa 0,0 l/m 14,5 km/h (3 Bft) S-SW 202 0 min 0,0 UV-I 0 W/m 5,8 C 1,6 C 20,9 km/h (4 Bft)
17.02.2023 01:50 6,9 C 6,1 C 93 % 1025,1 hPa 0,0 l/m 17,7 km/h (3 Bft) S-SW 202 0 min 0,0 UV-I 0 W/m 5,8 C 0,2 C 25,7 km/h (4 Bft)
17.02.2023 01:51 6,9 C 6,1 C 93 % 1025,1 hPa 0,0 l/m 12,9 km/h (3 Bft) S-SW 202 0 min 0,0 UV-I 0 W/m 5,8 C 2,4 C 19,3 km/h (3 Bft)
17.02.2023 01:52 6,9 C 6,1 C 93 % 1025,1 hPa 0,0 l/m 16,1 km/h (3 Bft) S-SW 202 0 min 0,0 UV-I 0 W/m 5,8 C 0,9 C 25,7 km/h (4 Bft)
17.02.2023 01:53 6,9 C 6,1 C 93 % 1025,2 hPa 0,0 l/m 16,1 km/h (3 Bft) SW 225 0 min 0,0 UV-I 0 W/m 5,8 C 0,9 C 22,5 km/h (4 Bft)
17.02.2023 01:54 6,9 C 6,1 C 93 % 1025,1 hPa 0,0 l/m 14,5 km/h (3 Bft) S-SW 202 0 min 0,0 UV-I 0 W/m 5,8 C 1,6 C 24,1 km/h (4 Bft)
17.02.2023 01:55 6,9 C 6,1 C 93 % 1025,2 hPa 0,0 l/m 24,1 km/h (4 Bft) S 180 0 min 0,0 UV-I 0 W/m 5,8 C -2,1 C 32,2 km/h (5 Bft)
17.02.2023 01:56 6,9 C 6,1 C 93 % 1025,1 hPa 0,0 l/m 16,1 km/h (3 Bft) S-SW 202 0 min 0,0 UV-I 0 W/m 5,8 C 0,9 C 25,7 km/h (4 Bft)
17.02.2023 01:57 6,9 C 6,1 C 93 % 1025,1 hPa 0,0 l/m 16,1 km/h (3 Bft) S 180 0 min 0,0 UV-I 0 W/m 5,8 C 0,9 C 24,1 km/h (4 Bft)
17.02.2023 01:58 6,9 C 6,1 C 93 % 1025,1 hPa 0,0 l/m 17,7 km/h (3 Bft) S-SW 202 0 min 0,0 UV-I 0 W/m 5,8 C 0,2 C 24,1 km/h (4 Bft)
17.02.2023 01:59 6,9 C 6,1 C 93 % 1025,1 hPa 0,0 l/m 14,5 km/h (3 Bft) S 180 0 min 0,0 UV-I 0 W/m 5,8 C 1,6 C 19,3 km/h (3 Bft)
17.02.2023 02:00 6,9 C 6,1 C 93 % 1025,1 hPa 0,0 l/m 17,7 km/h (3 Bft) S-SW 202 0 min 0,0 UV-I 0 W/m 5,8 C 0,2 C 20,9 km/h (4 Bft)
17.02.2023 02:01 6,9 C 6,1 C 93 % 1025,0 hPa 0,0 l/m 16,1 km/h (3 Bft) S-SW 202 0 min 0,0 UV-I 0 W/m 5,8 C 0,9 C 25,7 km/h (4 Bft)
17.02.2023 02:02 6,9 C 6,1 C 93 % 1025,0 hPa 0,0 l/m 14,5 km/h (3 Bft) S-SW 202 0 min 0,0 UV-I 0 W/m 5,8 C 1,6 C 19,3 km/h (3 Bft)
17.02.2023 02:03 6,9 C 6,1 C 93 % 1025,0 hPa 0,0 l/m 14,5 km/h (3 Bft) S-SW 202 0 min 0,0 UV-I 0 W/m 5,8 C 1,6 C 17,7 km/h (3 Bft)
17.02.2023 02:04 6,9 C 6,1 C 93 % 1025,0 hPa 0,0 l/m 17,7 km/h (3 Bft) S-SW 202 0 min 0,0 UV-I 0 W/m 5,8 C 0,2 C 24,1 km/h (4 Bft)
17.02.2023 02:05 6,9 C 6,1 C 93 % 1025,0 hPa 0,0 l/m 17,7 km/h (3 Bft) S 180 0 min 0,0 UV-I 0 W/m 5,8 C 0,2 C 25,7 km/h (4 Bft)
17.02.2023 02:06 6,9 C 6,1 C 93 % 1025,0 hPa 0,0 l/m 14,5 km/h (3 Bft) S-SW 202 0 min 0,0 UV-I 0 W/m 5,8 C 1,6 C 27,4 km/h (4 Bft)
17.02.2023 02:07 6,9 C 6,1 C 93 % 1025,0 hPa 0,0 l/m 16,1 km/h (3 Bft) S 180 0 min 0,0 UV-I 0 W/m 5,8 C 0,9 C 25,7 km/h (4 Bft)
17.02.2023 02:08 6,9 C 6,1 C 93 % 1025,0 hPa 0,0 l/m 19,3 km/h (3 Bft) S-SW 202 0 min 0,0 UV-I 0 W/m 5,8 C -0,5 C 27,4 km/h (4 Bft)
17.02.2023 02:09 6,9 C 6,1 C 93 % 1025,1 hPa 0,0 l/m 16,1 km/h (3 Bft) S-SW 202 0 min 0,0 UV-I 0 W/m 5,8 C 0,9 C 24,1 km/h (4 Bft)
17.02.2023 02:10 6,9 C 6,1 C 93 % 1025,0 hPa 0,0 l/m 17,7 km/h (3 Bft) S-SW 202 0 min 0,0 UV-I 0 W/m 5,8 C 0,2 C 25,7 km/h (4 Bft)
17.02.2023 02:11 6,9 C 6,1 C 93 % 1025,2 hPa 0,0 l/m 12,9 km/h (3 Bft) S-SW 202 0 min 0,0 UV-I 0 W/m 5,8 C 2,4 C 20,9 km/h (4 Bft)
17.02.2023 02:12 6,9 C 6,1 C 93 % 1025,1 hPa 0,0 l/m 17,7 km/h (3 Bft) S-SW 202 0 min 0,0 UV-I 0 W/m 5,8 C 0,2 C 20,9 km/h (4 Bft)
17.02.2023 02:13 6,9 C 6,1 C 93 % 1025,0 hPa 0,0 l/m 19,3 km/h (3 Bft) S-SW 202 0 min 0,0 UV-I 0 W/m 5,8 C -0,5 C 25,7 km/h (4 Bft)
17.02.2023 02:14 6,9 C 6,1 C 93 % 1025,0 hPa 0,0 l/m 17,7 km/h (3 Bft) S-SW 202 0 min 0,0 UV-I 0 W/m 5,8 C 0,2 C 22,5 km/h (4 Bft)
17.02.2023 02:15 6,9 C 6,1 C 93 % 1025,0 hPa 0,0 l/m 12,9 km/h (3 Bft) SW 225 0 min 0,0 UV-I 0 W/m 5,8 C 2,4 C 17,7 km/h (3 Bft)
17.02.2023 02:16 6,9 C 6,1 C 93 % 1024,9 hPa 0,0 l/m 14,5 km/h (3 Bft) S-SW 202 0 min 0,0 UV-I 0 W/m 5,8 C 1,6 C 20,9 km/h (4 Bft)
17.02.2023 02:17 6,9 C 6,1 C 93 % 1024,9 hPa 0,0 l/m 16,1 km/h (3 Bft) S-SW 202 0 min 0,0 UV-I 0 W/m 5,8 C 0,9 C 20,9 km/h (4 Bft)
17.02.2023 02:18 6,9 C 6,1 C 93 % 1025,0 hPa 0,0 l/m 12,9 km/h (3 Bft) S 180 0 min 0,0 UV-I 0 W/m 5,8 C 2,4 C 17,7 km/h (3 Bft)
17.02.2023 02:19 6,9 C 6,1 C 93 % 1025,0 hPa 0,0 l/m 14,5 km/h (3 Bft) S 180 0 min 0,0 UV-I 0 W/m 5,8 C 1,6 C 19,3 km/h (3 Bft)
17.02.2023 02:20 6,9 C 6,1 C 93 % 1025,0 hPa 0,0 l/m 16,1 km/h (3 Bft) S-SW 202 0 min 0,0 UV-I 0 W/m 5,8 C 0,9 C 22,5 km/h (4 Bft)
17.02.2023 02:21 6,9 C 6,7 C 93 % 1025,0 hPa 0,0 l/m 19,3 km/h (3 Bft) S-SW 202 0 min 0,0 UV-I 0 W/m 5,8 C -0,5 C 27,4 km/h (4 Bft)
17.02.2023 02:22 6,9 C 6,7 C 93 % 1025,0 hPa 0,0 l/m 17,7 km/h (3 Bft) S-SW 202 0 min 0,0 UV-I 0 W/m 5,8 C 0,2 C 25,7 km/h (4 Bft)
17.02.2023 02:23 6,9 C 6,7 C 93 % 1024,9 hPa 0,0 l/m 19,3 km/h (3 Bft) S-SW 202 0 min 0,0 UV-I 0 W/m 5,8 C -0,5 C 27,4 km/h (4 Bft)
17.02.2023 02:24 6,9 C 6,7 C 93 % 1025,0 hPa 0,0 l/m 19,3 km/h (3 Bft) S 180 0 min 0,0 UV-I 0 W/m 5,8 C -0,5 C 29,0 km/h (5 Bft)
17.02.2023 02:25 6,9 C 6,7 C 93 % 1024,9 hPa 0,0 l/m 16,1 km/h (3 Bft) S-SW 202 0 min 0,0 UV-I 0 W/m 5,8 C 0,9 C 22,5 km/h (4 Bft)
17.02.2023 02:26 6,9 C 6,7 C 93 % 1024,9 hPa 0,0 l/m 16,1 km/h (3 Bft) S-SW 202 0 min 0,0 UV-I 0 W/m 5,8 C 0,9 C 27,4 km/h (4 Bft)
17.02.2023 02:27 7,0 C 6,7 C 93 % 1025,0 hPa 0,0 l/m 16,1 km/h (3 Bft) S-SW 202 0 min 0,0 UV-I 0 W/m 5,9 C 1,0 C 24,1 km/h (4 Bft)
17.02.2023 02:28 6,9 C 6,7 C 93 % 1024,9 hPa 0,0 l/m 20,9 km/h (4 Bft) S-SW 202 0 min 0,0 UV-I 0 W/m 5,8 C -1,0 C 29,0 km/h (5 Bft)
17.02.2023 02:29 6,9 C 6,7 C 93 % 1024,9 hPa 0,0 l/m 17,7 km/h (3 Bft) S-SW 202 0 min 0,0 UV-I 0 W/m 5,8 C 0,2 C 20,9 km/h (4 Bft)
17.02.2023 02:30 6,9 C 6,7 C 93 % 1024,9 hPa 0,0 l/m 12,9 km/h (3 Bft) S-SW 202 0 min 0,0 UV-I 0 W/m 5,8 C 2,4 C 17,7 km/h (3 Bft)
17.02.2023 02:31 6,9 C 6,7 C 93 % 1024,9 hPa 0,0 l/m 14,5 km/h (3 Bft) S-SW 202 0 min 0,0 UV-I 0 W/m 5,8 C 1,6 C 19,3 km/h (3 Bft)
17.02.2023 02:32 6,9 C 6,7 C 93 % 1024,8 hPa 0,0 l/m 14,5 km/h (3 Bft) S-SW 202 0 min 0,0 UV-I 0 W/m 5,8 C 1,6 C 22,5 km/h (4 Bft)
17.02.2023 02:33 6,9 C 6,7 C 93 % 1024,7 hPa 0,0 l/m 17,7 km/h (3 Bft) S-SW 202 0 min 0,0 UV-I 0 W/m 5,8 C 0,2 C 22,5 km/h (4 Bft)
17.02.2023 02:34 6,9 C 6,7 C 93 % 1024,9 hPa 0,0 l/m 12,9 km/h (3 Bft) S-SW 202 0 min 0,0 UV-I 0 W/m 5,8 C 2,4 C 17,7 km/h (3 Bft)
17.02.2023 02:35 6,9 C 6,7 C 93 % 1024,7 hPa 0,0 l/m 16,1 km/h (3 Bft) S-SW 202 0 min 0,0 UV-I 0 W/m 5,8 C 0,9 C 20,9 km/h (4 Bft)
17.02.2023 02:36 6,9 C 6,7 C 93 % 1024,7 hPa 0,0 l/m 14,5 km/h (3 Bft) S-SW 202 0 min 0,0 UV-I 0 W/m 5,8 C 1,6 C 25,7 km/h (4 Bft)
17.02.2023 02:37 6,9 C 6,7 C 93 % 1024,6 hPa 0,0 l/m 17,7 km/h (3 Bft) S-SW 202 0 min 0,0 UV-I 0 W/m 5,8 C 0,2 C 24,1 km/h (4 Bft)
17.02.2023 02:38 6,9 C 6,7 C 93 % 1024,7 hPa 0,0 l/m 14,5 km/h (3 Bft) S 180 0 min 0,0 UV-I 0 W/m 5,8 C 1,6 C 22,5 km/h (4 Bft)
17.02.2023 02:39 6,9 C 6,7 C 93 % 1024,6 hPa 0,0 l/m 16,1 km/h (3 Bft) S-SW 202 0 min 0,0 UV-I 0 W/m 5,8 C 0,9 C 24,1 km/h (4 Bft)
17.02.2023 02:40 6,9 C 6,7 C 93 % 1024,5 hPa 0,0 l/m 12,9 km/h (3 Bft) S 180 0 min 0,0 UV-I 0 W/m 5,8 C 2,4 C 16,1 km/h (3 Bft)
17.02.2023 02:41 6,9 C 6,7 C 93 % 1024,5 hPa 0,0 l/m 17,7 km/h (3 Bft) S 180 0 min 0,0 UV-I 0 W/m 5,8 C 0,2 C 27,4 km/h (4 Bft)
17.02.2023 02:42 6,9 C 6,7 C 93 % 1024,5 hPa 0,0 l/m 17,7 km/h (3 Bft) S-SW 202 0 min 0,0 UV-I 0 W/m 5,8 C 0,2 C 20,9 km/h (4 Bft)
17.02.2023 02:43 6,9 C 6,7 C 93 % 1024,4 hPa 0,0 l/m 17,7 km/h (3 Bft) S 180 0 min 0,0 UV-I 0 W/m 5,8 C 0,2 C 27,4 km/h (4 Bft)
17.02.2023 02:44 6,9 C 6,7 C 93 % 1024,4 hPa 0,0 l/m 16,1 km/h (3 Bft) S-SW 202 0 min 0,0 UV-I 0 W/m 5,8 C 0,9 C 22,5 km/h (4 Bft)
17.02.2023 02:45 6,9 C 6,7 C 93 % 1024,4 hPa 0,0 l/m 19,3 km/h (3 Bft) S-SW 202 0 min 0,0 UV-I 0 W/m 5,8 C -0,5 C 27,4 km/h (4 Bft)
17.02.2023 02:46 7,0 C 6,7 C 93 % 1024,4 hPa 0,0 l/m 14,5 km/h (3 Bft) S-SW 202 0 min 0,0 UV-I 0 W/m 5,9 C 1,7 C 19,3 km/h (3 Bft)
17.02.2023 02:47 6,9 C 6,7 C 93 % 1024,3 hPa 0,0 l/m 19,3 km/h (3 Bft) S-SW 202 0 min 0,0 UV-I 0 W/m 5,8 C -0,5 C 24,1 km/h (4 Bft)
17.02.2023 02:48 6,9 C 6,7 C 93 % 1024,4 hPa 0,0 l/m 16,1 km/h (3 Bft) S-SW 202 0 min 0,0 UV-I 0 W/m 5,8 C 0,9 C 22,5 km/h (4 Bft)
17.02.2023 02:49 6,9 C 6,7 C 93 % 1024,4 hPa 0,0 l/m 14,5 km/h (3 Bft) S-SW 202 0 min 0,0 UV-I 0 W/m 5,8 C 1,6 C 22,5 km/h (4 Bft)
17.02.2023 02:50 7,0 C 6,7 C 93 % 1024,4 hPa 0,0 l/m 16,1 km/h (3 Bft) S-SW 202 0 min 0,0 UV-I 0 W/m 5,9 C 1,0 C 27,4 km/h (4 Bft)
17.02.2023 02:51 6,9 C 6,7 C 93 % 1024,3 hPa 0,0 l/m 19,3 km/h (3 Bft) S-SW 202 0 min 0,0 UV-I 0 W/m 5,8 C -0,5 C 25,7 km/h (4 Bft)
17.02.2023 02:52 7,1 C 6,7 C 93 % 1024,3 hPa 0,0 l/m 22,5 km/h (4 Bft) S-SW 202 0 min 0,0 UV-I 0 W/m 6,0 C -1,3 C 29,0 km/h (5 Bft)
17.02.2023 02:53 7,0 C 6,7 C 93 % 1024,3 hPa 0,0 l/m 14,5 km/h (3 Bft) S-SW 202 0 min 0,0 UV-I 0 W/m 5,9 C 1,7 C 20,9 km/h (4 Bft)
17.02.2023 02:54 7,0 C 6,7 C 93 % 1024,3 hPa 0,0 l/m 14,5 km/h (3 Bft) S-SW 202 0 min 0,0 UV-I 0 W/m 5,9 C 1,7 C 19,3 km/h (3 Bft)
17.02.2023 02:55 7,0 C 6,7 C 93 % 1024,2 hPa 0,0 l/m 12,9 km/h (3 Bft) S 180 0 min 0,0 UV-I 0 W/m 5,9 C 2,6 C 17,7 km/h (3 Bft)
17.02.2023 02:56 7,0 C 6,7 C 93 % 1024,2 hPa 0,0 l/m 14,5 km/h (3 Bft) S 180 0 min 0,0 UV-I 0 W/m 5,9 C 1,7 C 20,9 km/h (4 Bft)
17.02.2023 02:57 7,0 C 6,7 C 93 % 1024,2 hPa 0,0 l/m 17,7 km/h (3 Bft) S-SW 202 0 min 0,0 UV-I 0 W/m 5,9 C 0,3 C 20,9 km/h (4 Bft)
17.02.2023 02:58 7,0 C 6,7 C 93 % 1024,2 hPa 0,0 l/m 16,1 km/h (3 Bft) S 180 0 min 0,0 UV-I 0 W/m 5,9 C 1,0 C 22,5 km/h (4 Bft)
17.02.2023 02:59 7,0 C 6,7 C 93 % 1024,3 hPa 0,0 l/m 17,7 km/h (3 Bft) S 180 0 min 0,0 UV-I 0 W/m 5,9 C 0,3 C 20,9 km/h (4 Bft)
17.02.2023 03:00 7,1 C 6,7 C 93 % 1024,2 hPa 0,0 l/m 20,9 km/h (4 Bft) S 180 0 min 0,0 UV-I 0 W/m 6,0 C -0,8 C 30,6 km/h (5 Bft)
17.02.2023 03:01 7,1 C 6,7 C 93 % 1024,2 hPa 0,0 l/m 22,5 km/h (4 Bft) S-SW 202 0 min 0,0 UV-I 0 W/m 6,0 C -1,3 C 29,0 km/h (5 Bft)
17.02.2023 03:02 7,1 C 6,7 C 93 % 1024,2 hPa 0,0 l/m 17,7 km/h (3 Bft) S-SW 202 0 min 0,0 UV-I 0 W/m 6,0 C 0,4 C 20,9 km/h (4 Bft)
17.02.2023 03:03 7,1 C 6,7 C 93 % 1024,2 hPa 0,0 l/m 20,9 km/h (4 Bft) S 180 0 min 0,0 UV-I 0 W/m 6,0 C -0,8 C 32,2 km/h (5 Bft)
17.02.2023 03:04 7,1 C 6,7 C 93 % 1024,0 hPa 0,0 l/m 22,5 km/h (4 Bft) S 180 0 min 0,0 UV-I 0 W/m 6,0 C -1,3 C 33,8 km/h (5 Bft)
17.02.2023 03:05 7,1 C 6,7 C 93 % 1024,1 hPa 0,0 l/m 19,3 km/h (3 Bft) S 180 0 min 0,0 UV-I 0 W/m 6,0 C -0,2 C 25,7 km/h (4 Bft)
17.02.2023 03:06 7,1 C 6,7 C 94 % 1023,9 hPa 0,0 l/m 14,5 km/h (3 Bft) S-SW 202 0 min 0,0 UV-I 0 W/m 6,2 C 1,9 C 20,9 km/h (4 Bft)
17.02.2023 03:07 7,1 C 6,7 C 93 % 1023,9 hPa 0,0 l/m 17,7 km/h (3 Bft) S-SW 202 0 min 0,0 UV-I 0 W/m 6,0 C 0,4 C 27,4 km/h (4 Bft)
17.02.2023 03:08 7,1 C 6,7 C 93 % 1023,9 hPa 0,0 l/m 17,7 km/h (3 Bft) S-SW 202 0 min 0,0 UV-I 0 W/m 6,0 C 0,4 C 20,9 km/h (4 Bft)
17.02.2023 03:09 7,1 C 6,7 C 94 % 1023,9 hPa 0,0 l/m 19,3 km/h (3 Bft) S-SW 202 0 min 0,0 UV-I 0 W/m 6,2 C -0,2 C 29,0 km/h (5 Bft)
17.02.2023 03:10 7,1 C 6,7 C 94 % 1023,9 hPa 0,0 l/m 19,3 km/h (3 Bft) S-SW 202 0 min 0,0 UV-I 0 W/m 6,2 C -0,2 C 29,0 km/h (5 Bft)
17.02.2023 03:11 7,1 C 6,7 C 94 % 1024,0 hPa 0,0 l/m 16,1 km/h (3 Bft) S-SW 202 0 min 0,0 UV-I 0 W/m 6,2 C 1,1 C 20,9 km/h (4 Bft)
17.02.2023 03:12 7,1 C 6,7 C 94 % 1023,9 hPa 0,0 l/m 14,5 km/h (3 Bft) S 180 0 min 0,0 UV-I 0 W/m 6,2 C 1,9 C 20,9 km/h (4 Bft)
17.02.2023 03:13 7,1 C 6,7 C 94 % 1023,9 hPa 0,0 l/m 20,9 km/h (4 Bft) S-SW 202 0 min 0,0 UV-I 0 W/m 6,2 C -0,8 C 27,4 km/h (4 Bft)
17.02.2023 03:14 7,1 C 6,7 C 94 % 1023,7 hPa 0,0 l/m 17,7 km/h (3 Bft) S 180 0 min 0,0 UV-I 0 W/m 6,2 C 0,4 C 22,5 km/h (4 Bft)
17.02.2023 03:15 7,1 C 6,7 C 94 % 1023,7 hPa 0,0 l/m 17,7 km/h (3 Bft) S-SW 202 0 min 0,0 UV-I 0 W/m 6,2 C 0,4 C 29,0 km/h (5 Bft)
17.02.2023 03:16 7,1 C 6,7 C 94 % 1023,8 hPa 0,0 l/m 24,1 km/h (4 Bft) S 180 0 min 0,0 UV-I 0 W/m 6,2 C -1,8 C 30,6 km/h (5 Bft)
17.02.2023 03:17 7,1 C 6,7 C 94 % 1023,7 hPa 0,0 l/m 19,3 km/h (3 Bft) S-SW 202 0 min 0,0 UV-I 0 W/m 6,2 C -0,2 C 25,7 km/h (4 Bft)
17.02.2023 03:18 7,1 C 6,7 C 94 % 1023,8 hPa 0,0 l/m 17,7 km/h (3 Bft) S-SW 202 0 min 0,0 UV-I 0 W/m 6,2 C 0,4 C 25,7 km/h (4 Bft)
17.02.2023 03:19 7,1 C 6,7 C 94 % 1023,9 hPa 0,0 l/m 20,9 km/h (4 Bft) S-SW 202 0 min 0,0 UV-I 0 W/m 6,2 C -0,8 C 27,4 km/h (4 Bft)
17.02.2023 03:20 7,1 C 6,7 C 94 % 1023,8 hPa 0,0 l/m 22,5 km/h (4 Bft) S-SW 202 0 min 0,0 UV-I 0 W/m 6,2 C -1,3 C 30,6 km/h (5 Bft)
17.02.2023 03:21 7,1 C 6,7 C 94 % 1023,8 hPa 0,0 l/m 20,9 km/h (4 Bft) S-SW 202 0 min 0,0 UV-I 0 W/m 6,2 C -0,8 C 30,6 km/h (5 Bft)
17.02.2023 03:22 7,1 C 6,7 C 94 % 1023,8 hPa 0,0 l/m 25,7 km/h (4 Bft) S-SW 202 0 min 0,0 UV-I 0 W/m 6,2 C -2,3 C 32,2 km/h (5 Bft)
17.02.2023 03:23 7,1 C 6,7 C 94 % 1023,8 hPa 0,0 l/m 20,9 km/h (4 Bft) S-SW 202 0 min 0,0 UV-I 0 W/m 6,2 C -0,8 C 32,2 km/h (5 Bft)
17.02.2023 03:24 7,1 C 6,7 C 94 % 1023,7 hPa 0,0 l/m 17,7 km/h (3 Bft) S-SW 202 0 min 0,0 UV-I 0 W/m 6,2 C 0,4 C 24,1 km/h (4 Bft)
17.02.2023 03:25 7,1 C 6,7 C 94 % 1023,8 hPa 0,0 l/m 17,7 km/h (3 Bft) S 180 0 min 0,0 UV-I 0 W/m 6,2 C 0,4 C 24,1 km/h (4 Bft)
17.02.2023 03:26 7,1 C 6,7 C 94 % 1023,6 hPa 0,0 l/m 16,1 km/h (3 Bft) S-SW 202 0 min 0,0 UV-I 0 W/m 6,2 C 1,1 C 24,1 km/h (4 Bft)
17.02.2023 03:27 7,1 C 6,7 C 94 % 1023,7 hPa 0,0 l/m 20,9 km/h (4 Bft) S-SW 202 0 min 0,0 UV-I 0 W/m 6,2 C -0,8 C 30,6 km/h (5 Bft)
17.02.2023 03:28 7,1 C 6,7 C 94 % 1023,7 hPa 0,0 l/m 17,7 km/h (3 Bft) S 180 0 min 0,0 UV-I 0 W/m 6,2 C 0,4 C 24,1 km/h (4 Bft)
17.02.2023 03:29 7,1 C 6,7 C 94 % 1023,7 hPa 0,0 l/m 17,7 km/h (3 Bft) S-SW 202 0 min 0,0 UV-I 0 W/m 6,2 C 0,4 C 24,1 km/h (4 Bft)
17.02.2023 03:30 7,1 C 6,7 C 94 % 1023,7 hPa 0,0 l/m 20,9 km/h (4 Bft) S-SW 202 0 min 0,0 UV-I 0 W/m 6,2 C -0,8 C 30,6 km/h (5 Bft)
17.02.2023 03:31 7,1 C 6,7 C 94 % 1023,6 hPa 0,0 l/m 17,7 km/h (3 Bft) S-SW 202 0 min 0,0 UV-I 0 W/m 6,2 C 0,4 C 29,0 km/h (5 Bft)
17.02.2023 03:32 7,1 C 6,7 C 94 % 1023,7 hPa 0,0 l/m 20,9 km/h (4 Bft) S-SW 202 0 min 0,0 UV-I 0 W/m 6,2 C -0,8 C 29,0 km/h (5 Bft)
17.02.2023 03:33 7,1 C 6,7 C 94 % 1023,7 hPa 0,0 l/m 20,9 km/h (4 Bft) S-SW 202 0 min 0,0 UV-I 0 W/m 6,2 C -0,8 C 25,7 km/h (4 Bft)
17.02.2023 03:34 7,1 C 6,7 C 94 % 1023,6 hPa 0,0 l/m 16,1 km/h (3 Bft) S-SW 202 0 min 0,0 UV-I 0 W/m 6,2 C 1,1 C 22,5 km/h (4 Bft)
17.02.2023 03:35 7,1 C 6,7 C 93 % 1023,7 hPa 0,0 l/m 17,7 km/h (3 Bft) S-SW 202 0 min 0,0 UV-I 0 W/m 6,0 C 0,4 C 24,1 km/h (4 Bft)
17.02.2023 03:36 7,1 C 6,7 C 94 % 1023,6 hPa 0,0 l/m 19,3 km/h (3 Bft) S-SW 202 0 min 0,0 UV-I 0 W/m 6,2 C -0,2 C 25,7 km/h (4 Bft)
17.02.2023 03:37 7,1 C 6,7 C 94 % 1023,7 hPa 0,0 l/m 20,9 km/h (4 Bft) S-SW 202 0 min 0,0 UV-I 0 W/m 6,2 C -0,8 C 27,4 km/h (4 Bft)
17.02.2023 03:38 7,1 C 6,7 C 94 % 1023,7 hPa 0,0 l/m 20,9 km/h (4 Bft) S-SW 202 0 min 0,0 UV-I 0 W/m 6,2 C -0,8 C 30,6 km/h (5 Bft)
17.02.2023 03:39 7,1 C 6,7 C 94 % 1023,6 hPa 0,0 l/m 19,3 km/h (3 Bft) S-SW 202 0 min 0,0 UV-I 0 W/m 6,2 C -0,2 C 25,7 km/h (4 Bft)
17.02.2023 03:40 7,2 C 6,7 C 94 % 1023,6 hPa 0,0 l/m 19,3 km/h (3 Bft) S-SW 202 0 min 0,0 UV-I 0 W/m 6,3 C -0,1 C 29,0 km/h (5 Bft)
17.02.2023 03:41 7,1 C 6,7 C 94 % 1023,6 hPa 0,0 l/m 19,3 km/h (3 Bft) S-SW 202 0 min 0,0 UV-I 0 W/m 6,2 C -0,2 C 25,7 km/h (4 Bft)
17.02.2023 03:42 7,1 C 6,7 C 94 % 1023,6 hPa 0,0 l/m 20,9 km/h (4 Bft) S-SW 202 0 min 0,0 UV-I 0 W/m 6,2 C -0,8 C 29,0 km/h (5 Bft)
17.02.2023 03:43 7,1 C 6,7 C 94 % 1023,6 hPa 0,0 l/m 20,9 km/h (4 Bft) S-SW 202 0 min 0,0 UV-I 0 W/m 6,2 C -0,8 C 37,0 km/h (5 Bft)
17.02.2023 03:44 7,2 C 6,7 C 93 % 1023,6 hPa 0,0 l/m 20,9 km/h (4 Bft) S-SW 202 0 min 0,0 UV-I 0 W/m 6,1 C -0,7 C 29,0 km/h (5 Bft)
17.02.2023 03:45 7,1 C 6,7 C 93 % 1023,6 hPa 0,0 l/m 20,9 km/h (4 Bft) S-SW 202 0 min 0,0 UV-I 0 W/m 6,0 C -0,8 C 27,4 km/h (4 Bft)
17.02.2023 03:46 7,2 C 6,7 C 93 % 1023,6 hPa 0,0 l/m 20,9 km/h (4 Bft) S-SW 202 0 min 0,0 UV-I 0 W/m 6,1 C -0,7 C 32,2 km/h (5 Bft)
17.02.2023 03:47 7,2 C 6,7 C 93 % 1023,5 hPa 0,0 l/m 17,7 km/h (3 Bft) S-SW 202 0 min 0,0 UV-I 0 W/m 6,1 C 0,6 C 27,4 km/h (4 Bft)
17.02.2023 03:48 7,2 C 6,7 C 94 % 1023,6 hPa 0,0 l/m 22,5 km/h (4 Bft) S 180 0 min 0,0 UV-I 0 W/m 6,3 C -1,2 C 32,2 km/h (5 Bft)
17.02.2023 03:49 7,2 C 6,7 C 93 % 1023,5 hPa 0,0 l/m 24,1 km/h (4 Bft) S-SW 202 0 min 0,0 UV-I 0 W/m 6,1 C -1,7 C 32,2 km/h (5 Bft)
17.02.2023 03:50 7,2 C 6,7 C 93 % 1023,5 hPa 0,0 l/m 20,9 km/h (4 Bft) S-SW 202 0 min 0,0 UV-I 0 W/m 6,1 C -0,7 C 24,1 km/h (4 Bft)
17.02.2023 03:51 7,2 C 6,7 C 93 % 1023,6 hPa 0,0 l/m 19,3 km/h (3 Bft) S-SW 202 0 min 0,0 UV-I 0 W/m 6,1 C -0,1 C 27,4 km/h (4 Bft)
17.02.2023 03:52 7,2 C 6,7 C 93 % 1023,5 hPa 0,0 l/m 19,3 km/h (3 Bft) S-SW 202 0 min 0,0 UV-I 0 W/m 6,1 C -0,1 C 25,7 km/h (4 Bft)
17.02.2023 03:53 7,2 C 6,7 C 93 % 1023,6 hPa 0,0 l/m 22,5 km/h (4 Bft) S-SW 202 0 min 0,0 UV-I 0 W/m 6,1 C -1,2 C 29,0 km/h (5 Bft)
17.02.2023 03:54 7,2 C 6,7 C 93 % 1023,6 hPa 0,0 l/m 20,9 km/h (4 Bft) S-SW 202 0 min 0,0 UV-I 0 W/m 6,1 C -0,7 C 27,4 km/h (4 Bft)
17.02.2023 03:55 7,2 C 6,7 C 93 % 1023,7 hPa 0,0 l/m 22,5 km/h (4 Bft) S-SW 202 0 min 0,0 UV-I 0 W/m 6,1 C -1,2 C 33,8 km/h (5 Bft)
17.02.2023 03:56 7,2 C 6,7 C 93 % 1023,6 hPa 0,0 l/m 19,3 km/h (3 Bft) S-SW 202 0 min 0,0 UV-I 0 W/m 6,1 C -0,1 C 30,6 km/h (5 Bft)
17.02.2023 03:57 7,2 C 6,7 C 93 % 1023,7 hPa 0,0 l/m 27,4 km/h (4 Bft) S-SW 202 0 min 0,0 UV-I 0 W/m 6,1 C -2,6 C 35,4 km/h (5 Bft)
17.02.2023 03:58 7,2 C 6,7 C 93 % 1023,6 hPa 0,0 l/m 20,9 km/h (4 Bft) S-SW 202 0 min 0,0 UV-I 0 W/m 6,1 C -0,7 C 29,0 km/h (5 Bft)
17.02.2023 03:59 7,2 C 6,7 C 93 % 1023,7 hPa 0,0 l/m 19,3 km/h (3 Bft) S-SW 202 0 min 0,0 UV-I 0 W/m 6,1 C -0,1 C 30,6 km/h (5 Bft)
17.02.2023 04:00 7,2 C 6,7 C 93 % 1023,7 hPa 0,0 l/m 17,7 km/h (3 Bft) S-SW 202 0 min 0,0 UV-I 0 W/m 6,1 C 0,6 C 25,7 km/h (4 Bft)
17.02.2023 04:01 7,2 C 6,7 C 93 % 1023,7 hPa 0,0 l/m 17,7 km/h (3 Bft) SW 225 0 min 0,0 UV-I 0 W/m 6,1 C 0,6 C 22,5 km/h (4 Bft)
17.02.2023 04:02 7,2 C 6,7 C 93 % 1023,6 hPa 0,0 l/m 16,1 km/h (3 Bft) S 180 0 min 0,0 UV-I 0 W/m 6,1 C 1,2 C 24,1 km/h (4 Bft)
17.02.2023 04:03 7,2 C 6,7 C 94 % 1023,6 hPa 0,0 l/m 19,3 km/h (3 Bft) S-SW 202 0 min 0,0 UV-I 0 W/m 6,3 C -0,1 C 24,1 km/h (4 Bft)
17.02.2023 04:04 7,2 C 6,7 C 93 % 1023,6 hPa 0,0 l/m 17,7 km/h (3 Bft) S-SW 202 0 min 0,0 UV-I 0 W/m 6,1 C 0,6 C 24,1 km/h (4 Bft)
17.02.2023 04:05 7,2 C 6,7 C 93 % 1023,6 hPa 0,0 l/m 14,5 km/h (3 Bft) S-SW 202 0 min 0,0 UV-I 0 W/m 6,1 C 2,0 C 19,3 km/h (3 Bft)
17.02.2023 04:06 7,2 C 6,7 C 93 % 1023,6 hPa 0,0 l/m 14,5 km/h (3 Bft) S-SW 202 0 min 0,0 UV-I 0 W/m 6,1 C 2,0 C 22,5 km/h (4 Bft)
17.02.2023 04:07 7,2 C 6,7 C 94 % 1023,6 hPa 0,0 l/m 17,7 km/h (3 Bft) S-SW 202 0 min 0,0 UV-I 0 W/m 6,3 C 0,6 C 27,4 km/h (4 Bft)
17.02.2023 04:08 7,2 C 6,7 C 93 % 1023,6 hPa 0,0 l/m 17,7 km/h (3 Bft) S-SW 202 0 min 0,0 UV-I 0 W/m 6,1 C 0,6 C 27,4 km/h (4 Bft)
17.02.2023 04:09 7,2 C 6,7 C 94 % 1023,7 hPa 0,0 l/m 17,7 km/h (3 Bft) S-SW 202 0 min 0,0 UV-I 0 W/m 6,3 C 0,6 C 25,7 km/h (4 Bft)
17.02.2023 04:10 7,2 C 6,7 C 94 % 1023,7 hPa 0,0 l/m 19,3 km/h (3 Bft) S-SW 202 0 min 0,0 UV-I 0 W/m 6,3 C -0,1 C 27,4 km/h (4 Bft)
17.02.2023 04:11 7,3 C 6,7 C 93 % 1023,7 hPa 0,0 l/m 17,7 km/h (3 Bft) S-SW 202 0 min 0,0 UV-I 0 W/m 6,2 C 0,7 C 22,5 km/h (4 Bft)
17.02.2023 04:12 7,3 C 6,7 C 93 % 1023,7 hPa 0,0 l/m 17,7 km/h (3 Bft) S-SW 202 0 min 0,0 UV-I 0 W/m 6,2 C 0,7 C 22,5 km/h (4 Bft)
17.02.2023 04:13 7,3 C 6,7 C 93 % 1023,7 hPa 0,0 l/m 14,5 km/h (3 Bft) SW 225 0 min 0,0 UV-I 0 W/m 6,2 C 2,1 C 19,3 km/h (3 Bft)
17.02.2023 04:14 7,3 C 6,7 C 93 % 1023,6 hPa 0,0 l/m 16,1 km/h (3 Bft) S-SW 202 0 min 0,0 UV-I 0 W/m 6,2 C 1,4 C 25,7 km/h (4 Bft)
17.02.2023 04:15 7,3 C 6,7 C 93 % 1023,7 hPa 0,0 l/m 17,7 km/h (3 Bft) S-SW 202 0 min 0,0 UV-I 0 W/m 6,2 C 0,7 C 25,7 km/h (4 Bft)
17.02.2023 04:16 7,3 C 6,7 C 93 % 1023,7 hPa 0,0 l/m 19,3 km/h (3 Bft) S-SW 202 0 min 0,0 UV-I 0 W/m 6,2 C 0,1 C 24,1 km/h (4 Bft)
17.02.2023 04:17 7,3 C 6,7 C 93 % 1023,7 hPa 0,0 l/m 16,1 km/h (3 Bft) S-SW 202 0 min 0,0 UV-I 0 W/m 6,2 C 1,4 C 24,1 km/h (4 Bft)
17.02.2023 04:18 7,3 C 6,7 C 93 % 1023,7 hPa 0,0 l/m 20,9 km/h (4 Bft) SW 225 0 min 0,0 UV-I 0 W/m 6,2 C -0,5 C 29,0 km/h (5 Bft)
17.02.2023 04:19 7,3 C 6,7 C 93 % 1023,7 hPa 0,0 l/m 20,9 km/h (4 Bft) S-SW 202 0 min 0,0 UV-I 0 W/m 6,2 C -0,5 C 30,6 km/h (5 Bft)
17.02.2023 04:20 7,3 C 6,7 C 93 % 1023,7 hPa 0,0 l/m 19,3 km/h (3 Bft) S 180 0 min 0,0 UV-I 0 W/m 6,2 C 0,1 C 27,4 km/h (4 Bft)
17.02.2023 04:21 7,3 C 6,7 C 93 % 1023,7 hPa 0,0 l/m 17,7 km/h (3 Bft) S-SW 202 0 min 0,0 UV-I 0 W/m 6,2 C 0,7 C 22,5 km/h (4 Bft)
17.02.2023 04:22 7,3 C 6,7 C 93 % 1023,7 hPa 0,0 l/m 17,7 km/h (3 Bft) S-SW 202 0 min 0,0 UV-I 0 W/m 6,2 C 0,7 C 22,5 km/h (4 Bft)
17.02.2023 04:23 7,3 C 6,7 C 93 % 1023,6 hPa 0,0 l/m 17,7 km/h (3 Bft) S-SW 202 0 min 0,0 UV-I 0 W/m 6,2 C 0,7 C 27,4 km/h (4 Bft)
17.02.2023 04:24 7,3 C 6,7 C 93 % 1023,7 hPa 0,0 l/m 19,3 km/h (3 Bft) S-SW 202 0 min 0,0 UV-I 0 W/m 6,2 C 0,1 C 27,4 km/h (4 Bft)
17.02.2023 04:25 7,3 C 6,7 C 93 % 1023,7 hPa 0,0 l/m 19,3 km/h (3 Bft) S-SW 202 0 min 0,0 UV-I 0 W/m 6,2 C 0,1 C 27,4 km/h (4 Bft)
17.02.2023 04:26 7,3 C 6,7 C 93 % 1023,6 hPa 0,0 l/m 20,9 km/h (4 Bft) S-SW 202 0 min 0,0 UV-I 0 W/m 6,2 C -0,5 C 29,0 km/h (5 Bft)
17.02.2023 04:27 7,3 C 6,7 C 93 % 1023,6 hPa 0,0 l/m 16,1 km/h (3 Bft) S-SW 202 0 min 0,0 UV-I 0 W/m 6,2 C 1,4 C 24,1 km/h (4 Bft)
17.02.2023 04:28 7,3 C 6,7 C 93 % 1023,6 hPa 0,0 l/m 16,1 km/h (3 Bft) S-SW 202 0 min 0,0 UV-I 0 W/m 6,2 C 1,4 C 22,5 km/h (4 Bft)
17.02.2023 04:29 7,3 C 6,7 C 93 % 1023,5 hPa 0,0 l/m 12,9 km/h (3 Bft) S-SW 202 0 min 0,0 UV-I 0 W/m 6,2 C 2,9 C 17,7 km/h (3 Bft)
17.02.2023 04:30 7,3 C 6,7 C 93 % 1023,5 hPa 0,0 l/m 16,1 km/h (3 Bft) S-SW 202 0 min 0,0 UV-I 0 W/m 6,2 C 1,4 C 20,9 km/h (4 Bft)
17.02.2023 04:31 7,3 C 6,7 C 93 % 1023,6 hPa 0,0 l/m 20,9 km/h (4 Bft) S-SW 202 0 min 0,0 UV-I 0 W/m 6,2 C -0,5 C 29,0 km/h (5 Bft)
17.02.2023 04:32 7,3 C 6,7 C 93 % 1023,6 hPa 0,0 l/m 20,9 km/h (4 Bft) S-SW 202 0 min 0,0 UV-I 0 W/m 6,2 C -0,5 C 29,0 km/h (5 Bft)
17.02.2023 04:33 7,3 C 6,7 C 93 % 1023,5 hPa 0,0 l/m 17,7 km/h (3 Bft) SW 225 0 min 0,0 UV-I 0 W/m 6,2 C 0,7 C 24,1 km/h (4 Bft)
17.02.2023 04:34 7,3 C 6,7 C 93 % 1023,6 hPa 0,0 l/m 16,1 km/h (3 Bft) S-SW 202 0 min 0,0 UV-I 0 W/m 6,2 C 1,4 C 24,1 km/h (4 Bft)
17.02.2023 04:35 7,3 C 6,7 C 93 % 1023,7 hPa 0,0 l/m 19,3 km/h (3 Bft) S-SW 202 0 min 0,0 UV-I 0 W/m 6,2 C 0,1 C 27,4 km/h (4 Bft)
17.02.2023 04:36 7,3 C 6,7 C 93 % 1023,5 hPa 0,0 l/m 17,7 km/h (3 Bft) S-SW 202 0 min 0,0 UV-I 0 W/m 6,2 C 0,7 C 24,1 km/h (4 Bft)
17.02.2023 04:37 7,3 C 6,7 C 93 % 1023,6 hPa 0,0 l/m 20,9 km/h (4 Bft) S 180 0 min 0,0 UV-I 0 W/m 6,2 C -0,5 C 27,4 km/h (4 Bft)
17.02.2023 04:38 7,3 C 6,7 C 93 % 1023,5 hPa 0,0 l/m 19,3 km/h (3 Bft) S-SW 202 0 min 0,0 UV-I 0 W/m 6,2 C 0,1 C 25,7 km/h (4 Bft)
17.02.2023 04:39 7,3 C 6,7 C 93 % 1023,6 hPa 0,0 l/m 14,5 km/h (3 Bft) S-SW 202 0 min 0,0 UV-I 0 W/m 6,2 C 2,1 C 19,3 km/h (3 Bft)
17.02.2023 04:40 7,3 C 6,7 C 93 % 1023,7 hPa 0,0 l/m 17,7 km/h (3 Bft) S-SW 202 0 min 0,0 UV-I 0 W/m 6,2 C 0,7 C 24,1 km/h (4 Bft)
17.02.2023 04:41 7,3 C 6,7 C 93 % 1023,8 hPa 0,0 l/m 19,3 km/h (3 Bft) S-SW 202 0 min 0,0 UV-I 0 W/m 6,2 C 0,1 C 25,7 km/h (4 Bft)
17.02.2023 04:42 7,3 C 6,7 C 93 % 1023,7 hPa 0,0 l/m 17,7 km/h (3 Bft) S-SW 202 0 min 0,0 UV-I 0 W/m 6,2 C 0,7 C 24,1 km/h (4 Bft)
17.02.2023 04:43 7,3 C 6,7 C 93 % 1023,7 hPa 0,0 l/m 22,5 km/h (4 Bft) S-SW 202 0 min 0,0 UV-I 0 W/m 6,2 C -1,1 C 27,4 km/h (4 Bft)
17.02.2023 04:44 7,4 C 6,7 C 93 % 1023,7 hPa 0,0 l/m 20,9 km/h (4 Bft) S-SW 202 0 min 0,0 UV-I 0 W/m 6,3 C -0,4 C 29,0 km/h (5 Bft)
17.02.2023 04:45 7,4 C 6,7 C 93 % 1023,7 hPa 0,0 l/m 19,3 km/h (3 Bft) S-SW 202 0 min 0,0 UV-I 0 W/m 6,3 C 0,2 C 24,1 km/h (4 Bft)
17.02.2023 04:46 7,4 C 6,7 C 93 % 1023,6 hPa 0,0 l/m 20,9 km/h (4 Bft) S-SW 202 0 min 0,0 UV-I 0 W/m 6,3 C -0,4 C 25,7 km/h (4 Bft)
17.02.2023 04:47 7,3 C 6,7 C 93 % 1023,7 hPa 0,0 l/m 19,3 km/h (3 Bft) S-SW 202 0 min 0,0 UV-I 0 W/m 6,2 C 0,1 C 20,9 km/h (4 Bft)
17.02.2023 04:48 7,4 C 6,7 C 93 % 1023,7 hPa 0,0 l/m 22,5 km/h (4 Bft) S-SW 202 0 min 0,0 UV-I 0 W/m 6,3 C -0,9 C 27,4 km/h (4 Bft)
17.02.2023 04:49 7,4 C 6,7 C 93 % 1023,7 hPa 0,0 l/m 19,3 km/h (3 Bft) S-SW 202 0 min 0,0 UV-I 0 W/m 6,3 C 0,2 C 27,4 km/h (4 Bft)
17.02.2023 04:50 7,4 C 6,7 C 93 % 1023,6 hPa 0,0 l/m 19,3 km/h (3 Bft) S 180 0 min 0,0 UV-I 0 W/m 6,3 C 0,2 C 25,7 km/h (4 Bft)
17.02.2023 04:51 7,4 C 6,7 C 93 % 1023,7 hPa 0,0 l/m 20,9 km/h (4 Bft) S-SW 202 0 min 0,0 UV-I 0 W/m 6,3 C -0,4 C 27,4 km/h (4 Bft)
17.02.2023 04:52 7,4 C 6,7 C 93 % 1023,7 hPa 0,0 l/m 20,9 km/h (4 Bft) S 180 0 min 0,0 UV-I 0 W/m 6,3 C -0,4 C 29,0 km/h (5 Bft)
17.02.2023 04:53 7,4 C 6,7 C 93 % 1023,6 hPa 0,0 l/m 20,9 km/h (4 Bft) S-SW 202 0 min 0,0 UV-I 0 W/m 6,3 C -0,4 C 29,0 km/h (5 Bft)
17.02.2023 04:54 7,4 C 6,7 C 93 % 1023,7 hPa 0,0 l/m 19,3 km/h (3 Bft) S-SW 202 0 min 0,0 UV-I 0 W/m 6,3 C 0,2 C 27,4 km/h (4 Bft)
17.02.2023 04:55 7,4 C 6,7 C 93 % 1023,7 hPa 0,0 l/m 20,9 km/h (4 Bft) S 180 0 min 0,0 UV-I 0 W/m 6,3 C -0,4 C 32,2 km/h (5 Bft)
17.02.2023 04:56 7,4 C 6,7 C 93 % 1023,6 hPa 0,0 l/m 20,9 km/h (4 Bft) S-SW 202 0 min 0,0 UV-I 0 W/m 6,3 C -0,4 C 27,4 km/h (4 Bft)
17.02.2023 04:57 7,4 C 6,7 C 93 % 1023,7 hPa 0,0 l/m 24,1 km/h (4 Bft) S-SW 202 0 min 0,0 UV-I 0 W/m 6,3 C -1,4 C 33,8 km/h (5 Bft)
17.02.2023 04:58 7,4 C 6,7 C 93 % 1023,7 hPa 0,0 l/m 19,3 km/h (3 Bft) S-SW 202 0 min 0,0 UV-I 0 W/m 6,3 C 0,2 C 25,7 km/h (4 Bft)
17.02.2023 04:59 7,4 C 6,7 C 93 % 1023,6 hPa 0,0 l/m 20,9 km/h (4 Bft) S-SW 202 0 min 0,0 UV-I 0 W/m 6,3 C -0,4 C 29,0 km/h (5 Bft)
17.02.2023 05:00 7,4 C 6,7 C 93 % 1023,7 hPa 0,0 l/m 22,5 km/h (4 Bft) S-SW 202 0 min 0,0 UV-I 0 W/m 6,3 C -0,9 C 30,6 km/h (5 Bft)
17.02.2023 05:01 7,4 C 6,7 C 93 % 1023,6 hPa 0,0 l/m 22,5 km/h (4 Bft) S-SW 202 0 min 0,0 UV-I 0 W/m 6,3 C -0,9 C 32,2 km/h (5 Bft)
17.02.2023 05:02 7,4 C 6,7 C 93 % 1023,6 hPa 0,0 l/m 29,0 km/h (5 Bft) S-SW 202 0 min 0,0 UV-I 0 W/m 6,3 C -2,8 C 37,0 km/h (5 Bft)
17.02.2023 05:03 7,4 C 6,7 C 93 % 1023,6 hPa 0,0 l/m 24,1 km/h (4 Bft) S 180 0 min 0,0 UV-I 0 W/m 6,3 C -1,4 C 32,2 km/h (5 Bft)
17.02.2023 05:04 7,4 C 6,7 C 93 % 1023,7 hPa 0,0 l/m 16,1 km/h (3 Bft) S-SW 202 0 min 0,0 UV-I 0 W/m 6,3 C 1,5 C 24,1 km/h (4 Bft)
17.02.2023 05:05 7,4 C 6,7 C 93 % 1023,7 hPa 0,0 l/m 20,9 km/h (4 Bft) S-SW 202 0 min 0,0 UV-I 0 W/m 6,3 C -0,4 C 30,6 km/h (5 Bft)
17.02.2023 05:06 7,4 C 6,7 C 93 % 1023,6 hPa 0,0 l/m 24,1 km/h (4 Bft) S-SW 202 0 min 0,0 UV-I 0 W/m 6,3 C -1,4 C 32,2 km/h (5 Bft)
17.02.2023 05:07 7,5 C 6,7 C 92 % 1023,6 hPa 0,0 l/m 22,5 km/h (4 Bft) S-SW 202 0 min 0,0 UV-I 0 W/m 6,3 C -0,8 C 29,0 km/h (5 Bft)
17.02.2023 05:08 7,4 C 6,7 C 92 % 1023,7 hPa 0,0 l/m 20,9 km/h (4 Bft) S-SW 202 0 min 0,0 UV-I 0 W/m 6,2 C -0,4 C 27,4 km/h (4 Bft)
17.02.2023 05:09 7,4 C 6,7 C 92 % 1023,7 hPa 0,0 l/m 17,7 km/h (3 Bft) S 180 0 min 0,0 UV-I 0 W/m 6,2 C 0,8 C 27,4 km/h (4 Bft)
17.02.2023 05:10 7,5 C 6,7 C 92 % 1023,7 hPa 0,0 l/m 17,7 km/h (3 Bft) S 180 0 min 0,0 UV-I 0 W/m 6,3 C 0,9 C 27,4 km/h (4 Bft)
17.02.2023 05:11 7,4 C 6,7 C 92 % 1023,6 hPa 0,0 l/m 14,5 km/h (3 Bft) S-SW 202 0 min 0,0 UV-I 0 W/m 6,2 C 2,2 C 22,5 km/h (4 Bft)
17.02.2023 05:12 7,4 C 6,7 C 92 % 1023,6 hPa 0,0 l/m 22,5 km/h (4 Bft) S-SW 202 0 min 0,0 UV-I 0 W/m 6,2 C -0,9 C 35,4 km/h (5 Bft)
17.02.2023 05:13 7,5 C 6,7 C 92 % 1023,7 hPa 0,0 l/m 22,5 km/h (4 Bft) S-SW 202 0 min 0,0 UV-I 0 W/m 6,3 C -0,8 C 32,2 km/h (5 Bft)
17.02.2023 05:14 7,4 C 6,7 C 92 % 1023,7 hPa 0,0 l/m 17,7 km/h (3 Bft) S 180 0 min 0,0 UV-I 0 W/m 6,2 C 0,8 C 27,4 km/h (4 Bft)
17.02.2023 05:15 7,4 C 6,7 C 92 % 1023,7 hPa 0,0 l/m 20,9 km/h (4 Bft) S-SW 202 0 min 0,0 UV-I 0 W/m 6,2 C -0,4 C 27,4 km/h (4 Bft)
17.02.2023 05:16 7,4 C 6,7 C 92 % 1023,7 hPa 0,0 l/m 20,9 km/h (4 Bft) S-SW 202 0 min 0,0 UV-I 0 W/m 6,2 C -0,4 C 32,2 km/h (5 Bft)
17.02.2023 05:17 7,4 C 6,7 C 92 % 1023,6 hPa 0,0 l/m 19,3 km/h (3 Bft) S-SW 202 0 min 0,0 UV-I 0 W/m 6,2 C 0,2 C 25,7 km/h (4 Bft)
17.02.2023 05:18 7,4 C 6,7 C 92 % 1023,7 hPa 0,0 l/m 19,3 km/h (3 Bft) S-SW 202 0 min 0,0 UV-I 0 W/m 6,2 C 0,2 C 24,1 km/h (4 Bft)
17.02.2023 05:19 7,5 C 6,7 C 92 % 1023,7 hPa 0,0 l/m 19,3 km/h (3 Bft) S 180 0 min 0,0 UV-I 0 W/m 6,3 C 0,3 C 30,6 km/h (5 Bft)
17.02.2023 05:20 7,5 C 6,7 C 92 % 1023,7 hPa 0,0 l/m 22,5 km/h (4 Bft) SW 225 0 min 0,0 UV-I 0 W/m 6,3 C -0,8 C 32,2 km/h (5 Bft)
17.02.2023 05:21 7,4 C 6,7 C 92 % 1023,7 hPa 0,0 l/m 19,3 km/h (3 Bft) S-SW 202 0 min 0,0 UV-I 0 W/m 6,2 C 0,2 C 30,6 km/h (5 Bft)
17.02.2023 05:22 7,4 C 6,7 C 92 % 1023,7 hPa 0,0 l/m 16,1 km/h (3 Bft) S-SW 202 0 min 0,0 UV-I 0 W/m 6,2 C 1,5 C 24,1 km/h (4 Bft)
17.02.2023 05:23 7,5 C 6,7 C 92 % 1023,7 hPa 0,0 l/m 19,3 km/h (3 Bft) S-SW 202 0 min 0,0 UV-I 0 W/m 6,3 C 0,3 C 27,4 km/h (4 Bft)
17.02.2023 05:24 7,5 C 6,7 C 92 % 1023,7 hPa 0,0 l/m 17,7 km/h (3 Bft) S 180 0 min 0,0 UV-I 0 W/m 6,3 C 0,9 C 25,7 km/h (4 Bft)
17.02.2023 05:25 7,5 C 6,7 C 92 % 1023,7 hPa 0,0 l/m 19,3 km/h (3 Bft) S-SW 202 0 min 0,0 UV-I 0 W/m 6,3 C 0,3 C 27,4 km/h (4 Bft)
17.02.2023 05:26 7,5 C 6,7 C 92 % 1023,7 hPa 0,0 l/m 22,5 km/h (4 Bft) S-SW 202 0 min 0,0 UV-I 0 W/m 6,3 C -0,8 C 29,0 km/h (5 Bft)
17.02.2023 05:27 7,5 C 6,7 C 92 % 1023,7 hPa 0,0 l/m 17,7 km/h (3 Bft) S-SW 202 0 min 0,0 UV-I 0 W/m 6,3 C 0,9 C 22,5 km/h (4 Bft)
17.02.2023 05:28 7,5 C 6,7 C 92 % 1023,7 hPa 0,0 l/m 16,1 km/h (3 Bft) S 180 0 min 0,0 UV-I 0 W/m 6,3 C 1,6 C 19,3 km/h (3 Bft)
17.02.2023 05:29 7,4 C 6,7 C 92 % 1023,7 hPa 0,0 l/m 19,3 km/h (3 Bft) S-SW 202 0 min 0,0 UV-I 0 W/m 6,2 C 0,2 C 27,4 km/h (4 Bft)
17.02.2023 05:30 7,5 C 6,7 C 92 % 1023,7 hPa 0,0 l/m 16,1 km/h (3 Bft) S-SW 202 0 min 0,0 UV-I 0 W/m 6,3 C 1,6 C 22,5 km/h (4 Bft)
17.02.2023 05:31 7,5 C 6,7 C 92 % 1023,7 hPa 0,0 l/m 19,3 km/h (3 Bft) S-SW 202 0 min 0,0 UV-I 0 W/m 6,3 C 0,3 C 25,7 km/h (4 Bft)
17.02.2023 05:32 7,5 C 6,7 C 92 % 1023,8 hPa 0,0 l/m 17,7 km/h (3 Bft) S-SW 202 0 min 0,0 UV-I 0 W/m 6,3 C 0,9 C 27,4 km/h (4 Bft)
17.02.2023 05:33 7,5 C 6,7 C 92 % 1023,7 hPa 0,0 l/m 17,7 km/h (3 Bft) S-SW 202 0 min 0,0 UV-I 0 W/m 6,3 C 0,9 C 22,5 km/h (4 Bft)
17.02.2023 05:34 7,5 C 6,7 C 92 % 1023,7 hPa 0,0 l/m 17,7 km/h (3 Bft) S-SW 202 0 min 0,0 UV-I 0 W/m 6,3 C 0,9 C 24,1 km/h (4 Bft)
17.02.2023 05:35 7,5 C 6,7 C 92 % 1023,7 hPa 0,0 l/m 19,3 km/h (3 Bft) S 180 0 min 0,0 UV-I 0 W/m 6,3 C 0,3 C 29,0 km/h (5 Bft)
17.02.2023 05:36 7,5 C 6,7 C 92 % 1023,7 hPa 0,0 l/m 17,7 km/h (3 Bft) S 180 0 min 0,0 UV-I 0 W/m 6,3 C 0,9 C 24,1 km/h (4 Bft)
17.02.2023 05:37 7,5 C 6,7 C 92 % 1023,7 hPa 0,0 l/m 19,3 km/h (3 Bft) S 180 0 min 0,0 UV-I 0 W/m 6,3 C 0,3 C 25,7 km/h (4 Bft)
17.02.2023 05:38 7,6 C 6,7 C 92 % 1023,7 hPa 0,0 l/m 14,5 km/h (3 Bft) S 180 0 min 0,0 UV-I 0 W/m 6,4 C 2,5 C 19,3 km/h (3 Bft)
17.02.2023 05:39 7,5 C 6,7 C 92 % 1023,8 hPa 0,0 l/m 14,5 km/h (3 Bft) S 180 0 min 0,0 UV-I 0 W/m 6,3 C 2,3 C 17,7 km/h (3 Bft)
17.02.2023 05:40 7,4 C 6,7 C 92 % 1023,8 hPa 0,0 l/m 17,7 km/h (3 Bft) S 180 0 min 0,0 UV-I 0 W/m 6,2 C 0,8 C 25,7 km/h (4 Bft)
17.02.2023 05:41 7,5 C 6,7 C 92 % 1023,7 hPa 0,0 l/m 17,7 km/h (3 Bft) S-SW 202 0 min 0,0 UV-I 0 W/m 6,3 C 0,9 C 29,0 km/h (5 Bft)
17.02.2023 05:42 7,4 C 6,7 C 92 % 1023,8 hPa 0,0 l/m 24,1 km/h (4 Bft) S-SW 202 0 min 0,0 UV-I 0 W/m 6,2 C -1,4 C 29,0 km/h (5 Bft)
17.02.2023 05:43 7,5 C 6,7 C 92 % 1023,8 hPa 0,0 l/m 16,1 km/h (3 Bft) S-SW 202 0 min 0,0 UV-I 0 W/m 6,3 C 1,6 C 19,3 km/h (3 Bft)
17.02.2023 05:44 7,4 C 6,7 C 92 % 1023,9 hPa 0,0 l/m 17,7 km/h (3 Bft) S 180 0 min 0,0 UV-I 0 W/m 6,2 C 0,8 C 24,1 km/h (4 Bft)
17.02.2023 05:45 7,4 C 6,7 C 92 % 1023,8 hPa 0,0 l/m 14,5 km/h (3 Bft) S-SW 202 0 min 0,0 UV-I 0 W/m 6,2 C 2,2 C 22,5 km/h (4 Bft)
17.02.2023 05:46 7,4 C 6,7 C 91 % 1023,8 hPa 0,0 l/m 14,5 km/h (3 Bft) S-SW 202 0 min 0,0 UV-I 0 W/m 6,0 C 2,2 C 20,9 km/h (4 Bft)
17.02.2023 05:47 7,5 C 6,7 C 91 % 1023,8 hPa 0,0 l/m 12,9 km/h (3 Bft) S 180 0 min 0,0 UV-I 0 W/m 6,1 C 3,1 C 19,3 km/h (3 Bft)
17.02.2023 05:48 7,4 C 6,7 C 91 % 1023,8 hPa 0,0 l/m 16,1 km/h (3 Bft) S 180 0 min 0,0 UV-I 0 W/m 6,0 C 1,5 C 25,7 km/h (4 Bft)
17.02.2023 05:49 7,4 C 6,7 C 91 % 1023,7 hPa 0,0 l/m 19,3 km/h (3 Bft) S 180 0 min 0,0 UV-I 0 W/m 6,0 C 0,2 C 25,7 km/h (4 Bft)
17.02.2023 05:50 7,4 C 6,7 C 91 % 1023,8 hPa 0,0 l/m 16,1 km/h (3 Bft) S-SW 202 0 min 0,0 UV-I 0 W/m 6,0 C 1,5 C 20,9 km/h (4 Bft)
17.02.2023 05:51 7,4 C 6,7 C 91 % 1023,8 hPa 0,0 l/m 16,1 km/h (3 Bft) S 180 0 min 0,0 UV-I 0 W/m 6,0 C 1,5 C 25,7 km/h (4 Bft)
17.02.2023 05:52 7,4 C 6,7 C 91 % 1023,7 hPa 0,0 l/m 14,5 km/h (3 Bft) S 180 0 min 0,0 UV-I 0 W/m 6,0 C 2,2 C 24,1 km/h (4 Bft)
17.02.2023 05:53 7,4 C 6,7 C 91 % 1023,7 hPa 0,0 l/m 20,9 km/h (4 Bft) S-SW 202 0 min 0,0 UV-I 0 W/m 6,0 C -0,4 C 32,2 km/h (5 Bft)
17.02.2023 05:54 7,4 C 6,7 C 91 % 1023,6 hPa 0,0 l/m 20,9 km/h (4 Bft) S 180 0 min 0,0 UV-I 0 W/m 6,0 C -0,4 C 35,4 km/h (5 Bft)
17.02.2023 05:55 7,4 C 6,7 C 91 % 1023,7 hPa 0,0 l/m 17,7 km/h (3 Bft) S 180 0 min 0,0 UV-I 0 W/m 6,0 C 0,8 C 29,0 km/h (5 Bft)
17.02.2023 05:56 7,5 C 6,7 C 92 % 1023,6 hPa 0,0 l/m 19,3 km/h (3 Bft) S 180 0 min 0,0 UV-I 0 W/m 6,3 C 0,3 C 29,0 km/h (5 Bft)
17.02.2023 05:57 7,4 C 6,7 C 92 % 1023,7 hPa 0,0 l/m 16,1 km/h (3 Bft) S 180 0 min 0,0 UV-I 0 W/m 6,2 C 1,5 C 22,5 km/h (4 Bft)
17.02.2023 05:58 7,4 C 6,7 C 92 % 1023,6 hPa 0,0 l/m 14,5 km/h (3 Bft) S 180 0 min 0,0 UV-I 0 W/m 6,2 C 2,2 C 25,7 km/h (4 Bft)
17.02.2023 05:59 7,4 C 6,7 C 91 % 1023,7 hPa 0,0 l/m 17,7 km/h (3 Bft) S 180 0 min 0,0 UV-I 0 W/m 6,0 C 0,8 C 22,5 km/h (4 Bft)
17.02.2023 06:00 7,5 C 6,7 C 91 % 1023,7 hPa 0,0 l/m 17,7 km/h (3 Bft) S-SW 202 0 min 0,0 UV-I 0 W/m 6,1 C 0,9 C 25,7 km/h (4 Bft)
17.02.2023 06:01 7,4 C 6,7 C 91 % 1023,7 hPa 0,0 l/m 14,5 km/h (3 Bft) S-SW 202 0 min 0,0 UV-I 0 W/m 6,0 C 2,2 C 19,3 km/h (3 Bft)
17.02.2023 06:02 7,5 C 6,7 C 91 % 1023,9 hPa 0,0 l/m 17,7 km/h (3 Bft) S-SW 202 0 min 0,0 UV-I 0 W/m 6,1 C 0,9 C 22,5 km/h (4 Bft)
17.02.2023 06:03 7,5 C 6,7 C 91 % 1023,8 hPa 0,0 l/m 20,9 km/h (4 Bft) S 180 0 min 0,0 UV-I 0 W/m 6,1 C -0,3 C 29,0 km/h (5 Bft)
17.02.2023 06:04 7,4 C 6,7 C 91 % 1023,7 hPa 0,0 l/m 17,7 km/h (3 Bft) S 180 0 min 0,0 UV-I 0 W/m 6,0 C 0,8 C 29,0 km/h (5 Bft)
17.02.2023 06:05 7,4 C 6,7 C 91 % 1023,8 hPa 0,0 l/m 16,1 km/h (3 Bft) S-SW 202 0 min 0,0 UV-I 0 W/m 6,0 C 1,5 C 19,3 km/h (3 Bft)
17.02.2023 06:06 7,5 C 6,7 C 91 % 1023,8 hPa 0,0 l/m 17,7 km/h (3 Bft) S 180 0 min 0,0 UV-I 0 W/m 6,1 C 0,9 C 24,1 km/h (4 Bft)
17.02.2023 06:07 7,5 C 6,7 C 91 % 1023,8 hPa 0,0 l/m 20,9 km/h (4 Bft) S 180 0 min 0,0 UV-I 0 W/m 6,1 C -0,3 C 32,2 km/h (5 Bft)
17.02.2023 06:08 7,4 C 6,7 C 91 % 1023,7 hPa 0,0 l/m 17,7 km/h (3 Bft) S-SW 202 0 min 0,0 UV-I 0 W/m 6,0 C 0,8 C 24,1 km/h (4 Bft)
17.02.2023 06:09 7,4 C 6,7 C 91 % 1023,8 hPa 0,0 l/m 20,9 km/h (4 Bft) S-SW 202 0 min 0,0 UV-I 0 W/m 6,0 C -0,4 C 29,0 km/h (5 Bft)
17.02.2023 06:10 7,5 C 6,7 C 91 % 1023,6 hPa 0,0 l/m 16,1 km/h (3 Bft) S 180 0 min 0,0 UV-I 0 W/m 6,1 C 1,6 C 25,7 km/h (4 Bft)
17.02.2023 06:11 7,5 C 6,7 C 91 % 1023,6 hPa 0,0 l/m 17,7 km/h (3 Bft) S-SW 202 0 min 0,0 UV-I 0 W/m 6,1 C 0,9 C 25,7 km/h (4 Bft)
17.02.2023 06:12 7,4 C 6,7 C 91 % 1023,6 hPa 0,0 l/m 19,3 km/h (3 Bft) S-SW 202 0 min 0,0 UV-I 0 W/m 6,0 C 0,2 C 27,4 km/h (4 Bft)
17.02.2023 06:13 7,5 C 6,7 C 91 % 1023,7 hPa 0,0 l/m 20,9 km/h (4 Bft) S-SW 202 0 min 0,0 UV-I 0 W/m 6,1 C -0,3 C 25,7 km/h (4 Bft)
17.02.2023 06:14 7,5 C 6,7 C 91 % 1023,7 hPa 0,0 l/m 16,1 km/h (3 Bft) S-SW 202 0 min 0,0 UV-I 0 W/m 6,1 C 1,6 C 24,1 km/h (4 Bft)
17.02.2023 06:15 7,5 C 6,7 C 91 % 1023,8 hPa 0,0 l/m 14,5 km/h (3 Bft) S-SW 202 0 min 0,0 UV-I 0 W/m 6,1 C 2,3 C 16,1 km/h (3 Bft)
17.02.2023 06:16 7,5 C 6,7 C 91 % 1023,9 hPa 0,0 l/m 16,1 km/h (3 Bft) S-SW 202 0 min 0,0 UV-I 0 W/m 6,1 C 1,6 C 20,9 km/h (4 Bft)
17.02.2023 06:17 7,5 C 6,7 C 91 % 1023,8 hPa 0,0 l/m 17,7 km/h (3 Bft) S-SW 202 0 min 0,0 UV-I 0 W/m 6,1 C 0,9 C 25,7 km/h (4 Bft)
17.02.2023 06:18 7,5 C 6,7 C 91 % 1023,9 hPa 0,0 l/m 12,9 km/h (3 Bft) S 180 0 min 0,0 UV-I 0 W/m 6,1 C 3,1 C 19,3 km/h (3 Bft)
17.02.2023 06:19 7,5 C 6,7 C 91 % 1023,8 hPa 0,0 l/m 17,7 km/h (3 Bft) S-SW 202 0 min 0,0 UV-I 0 W/m 6,1 C 0,9 C 27,4 km/h (4 Bft)
17.02.2023 06:20 7,6 C 6,7 C 91 % 1023,8 hPa 0,0 l/m 16,1 km/h (3 Bft) S-SW 202 0 min 0,0 UV-I 0 W/m 6,2 C 1,7 C 27,4 km/h (4 Bft)
17.02.2023 06:21 7,6 C 6,7 C 91 % 1023,8 hPa 0,0 l/m 14,5 km/h (3 Bft) S-SW 202 0 min 0,0 UV-I 0 W/m 6,2 C 2,5 C 17,7 km/h (3 Bft)
17.02.2023 06:22 7,5 C 6,7 C 91 % 1023,6 hPa 0,0 l/m 16,1 km/h (3 Bft) S-SW 202 0 min 0,0 UV-I 0 W/m 6,1 C 1,6 C 22,5 km/h (4 Bft)
17.02.2023 06:23 7,5 C 6,7 C 91 % 1023,7 hPa 0,0 l/m 22,5 km/h (4 Bft) S-SW 202 0 min 0,0 UV-I 0 W/m 6,1 C -0,8 C 29,0 km/h (5 Bft)
17.02.2023 06:24 7,6 C 6,7 C 91 % 1023,6 hPa 0,0 l/m 16,1 km/h (3 Bft) S 180 0 min 0,0 UV-I 0 W/m 6,2 C 1,7 C 24,1 km/h (4 Bft)
17.02.2023 06:25 7,5 C 6,7 C 91 % 1023,7 hPa 0,0 l/m 19,3 km/h (3 Bft) S 180 0 min 0,0 UV-I 0 W/m 6,1 C 0,3 C 29,0 km/h (5 Bft)
17.02.2023 06:26 7,5 C 6,7 C 91 % 1023,7 hPa 0,0 l/m 16,1 km/h (3 Bft) S-SW 202 0 min 0,0 UV-I 0 W/m 6,1 C 1,6 C 24,1 km/h (4 Bft)
17.02.2023 06:27 7,5 C 6,7 C 91 % 1023,7 hPa 0,0 l/m 19,3 km/h (3 Bft) S 180 0 min 0,0 UV-I 0 W/m 6,1 C 0,3 C 25,7 km/h (4 Bft)
17.02.2023 06:28 7,6 C 6,7 C 91 % 1023,7 hPa 0,0 l/m 17,7 km/h (3 Bft) S-SW 202 0 min 0,0 UV-I 0 W/m 6,2 C 1,1 C 22,5 km/h (4 Bft)
17.02.2023 06:29 7,5 C 6,7 C 91 % 1023,8 hPa 0,0 l/m 14,5 km/h (3 Bft) S-SW 202 0 min 0,0 UV-I 0 W/m 6,1 C 2,3 C 19,3 km/h (3 Bft)
17.02.2023 06:30 7,6 C 6,7 C 91 % 1023,8 hPa 0,0 l/m 16,1 km/h (3 Bft) S-SW 202 0 min 0,0 UV-I 0 W/m 6,2 C 1,7 C 24,1 km/h (4 Bft)
17.02.2023 06:31 7,6 C 6,7 C 91 % 1023,8 hPa 0,0 l/m 20,9 km/h (4 Bft) S-SW 202 0 min 0,0 UV-I 0 W/m 6,2 C -0,1 C 27,4 km/h (4 Bft)
17.02.2023 06:32 7,6 C 6,7 C 91 % 1023,8 hPa 0,0 l/m 19,3 km/h (3 Bft) S-SW 202 0 min 0,0 UV-I 0 W/m 6,2 C 0,4 C 24,1 km/h (4 Bft)
17.02.2023 06:33 7,5 C 6,7 C 91 % 1023,9 hPa 0,0 l/m 19,3 km/h (3 Bft) S-SW 202 0 min 0,0 UV-I 0 W/m 6,1 C 0,3 C 25,7 km/h (4 Bft)
17.02.2023 06:34 7,6 C 6,7 C 91 % 1023,8 hPa 0,0 l/m 17,7 km/h (3 Bft) S-SW 202 0 min 0,0 UV-I 0 W/m 6,2 C 1,1 C 27,4 km/h (4 Bft)
17.02.2023 06:35 7,6 C 6,7 C 91 % 1023,8 hPa 0,0 l/m 24,1 km/h (4 Bft) S-SW 202 0 min 0,0 UV-I 0 W/m 6,2 C -1,2 C 30,6 km/h (5 Bft)
17.02.2023 06:36 7,6 C 6,7 C 91 % 1023,8 hPa 0,0 l/m 17,7 km/h (3 Bft) S-SW 202 0 min 0,0 UV-I 0 W/m 6,2 C 1,1 C 27,4 km/h (4 Bft)
17.02.2023 06:37 7,6 C 6,7 C 91 % 1023,8 hPa 0,0 l/m 20,9 km/h (4 Bft) S-SW 202 0 min 0,0 UV-I 0 W/m 6,2 C -0,1 C 29,0 km/h (5 Bft)
17.02.2023 06:38 7,6 C 6,7 C 91 % 1023,7 hPa 0,0 l/m 22,5 km/h (4 Bft) S-SW 202 0 min 0,0 UV-I 0 W/m 6,2 C -0,7 C 29,0 km/h (5 Bft)
17.02.2023 06:39 7,6 C 6,7 C 91 % 1023,8 hPa 0,0 l/m 16,1 km/h (3 Bft) S-SW 202 0 min 0,0 UV-I 0 W/m 6,2 C 1,7 C 22,5 km/h (4 Bft)
17.02.2023 06:40 7,6 C 6,7 C 91 % 1023,9 hPa 0,0 l/m 16,1 km/h (3 Bft) S-SW 202 0 min 0,0 UV-I 0 W/m 6,2 C 1,7 C 20,9 km/h (4 Bft)
17.02.2023 06:41 7,5 C 6,7 C 91 % 1023,9 hPa 0,0 l/m 19,3 km/h (3 Bft) S-SW 202 0 min 0,0 UV-I 0 W/m 6,1 C 0,3 C 24,1 km/h (4 Bft)
17.02.2023 06:42 7,6 C 6,7 C 91 % 1023,9 hPa 0,0 l/m 19,3 km/h (3 Bft) S-SW 202 0 min 0,0 UV-I 0 W/m 6,2 C 0,4 C 25,7 km/h (4 Bft)
17.02.2023 06:43 7,5 C 6,7 C 91 % 1023,8 hPa 0,0 l/m 17,7 km/h (3 Bft) S-SW 202 0 min 0,0 UV-I 0 W/m 6,1 C 0,9 C 25,7 km/h (4 Bft)
17.02.2023 06:44 7,5 C 6,7 C 91 % 1023,8 hPa 0,0 l/m 19,3 km/h (3 Bft) S-SW 202 0 min 0,0 UV-I 0 W/m 6,1 C 0,3 C 22,5 km/h (4 Bft)
17.02.2023 06:45 7,5 C 6,7 C 91 % 1023,9 hPa 0,0 l/m 19,3 km/h (3 Bft) S-SW 202 0 min 0,0 UV-I 0 W/m 6,1 C 0,3 C 24,1 km/h (4 Bft)
17.02.2023 06:46 7,5 C 6,7 C 91 % 1023,8 hPa 0,0 l/m 19,3 km/h (3 Bft) S-SW 202 0 min 0,0 UV-I 0 W/m 6,1 C 0,3 C 24,1 km/h (4 Bft)
17.02.2023 06:47 7,5 C 6,7 C 91 % 1024,0 hPa 0,0 l/m 17,7 km/h (3 Bft) S-SW 202 0 min 0,0 UV-I 0 W/m 6,1 C 0,9 C 20,9 km/h (4 Bft)
17.02.2023 06:48 7,5 C 6,7 C 91 % 1023,9 hPa 0,0 l/m 16,1 km/h (3 Bft) SW 225 0 min 0,0 UV-I 0 W/m 6,1 C 1,6 C 19,3 km/h (3 Bft)
17.02.2023 06:49 7,4 C 6,7 C 91 % 1023,9 hPa 0,0 l/m 17,7 km/h (3 Bft) S-SW 202 0 min 0,0 UV-I 0 W/m 6,0 C 0,8 C 25,7 km/h (4 Bft)
17.02.2023 06:50 7,4 C 6,7 C 91 % 1023,9 hPa 0,0 l/m 19,3 km/h (3 Bft) S-SW 202 0 min 0,0 UV-I 0 W/m 6,0 C 0,2 C 24,1 km/h (4 Bft)
17.02.2023 06:51 7,4 C 6,7 C 91 % 1024,0 hPa 0,0 l/m 17,7 km/h (3 Bft) S-SW 202 0 min 0,0 UV-I 0 W/m 6,0 C 0,8 C 22,5 km/h (4 Bft)
17.02.2023 06:52 7,4 C 6,7 C 91 % 1024,1 hPa 0,0 l/m 19,3 km/h (3 Bft) S-SW 202 0 min 0,0 UV-I 0 W/m 6,0 C 0,2 C 24,1 km/h (4 Bft)
17.02.2023 06:53 7,4 C 6,7 C 91 % 1024,0 hPa 0,0 l/m 17,7 km/h (3 Bft) S-SW 202 0 min 0,0 UV-I 0 W/m 6,0 C 0,8 C 24,1 km/h (4 Bft)
17.02.2023 06:54 7,4 C 6,7 C 91 % 1024,0 hPa 0,0 l/m 20,9 km/h (4 Bft) S-SW 202 0 min 0,0 UV-I 0 W/m 6,0 C -0,4 C 29,0 km/h (5 Bft)
17.02.2023 06:55 7,4 C 6,7 C 91 % 1024,0 hPa 0,0 l/m 17,7 km/h (3 Bft) S-SW 202 0 min 0,0 UV-I 0 W/m 6,0 C 0,8 C 27,4 km/h (4 Bft)
17.02.2023 06:56 7,4 C 6,7 C 91 % 1024,0 hPa 0,0 l/m 17,7 km/h (3 Bft) S 180 0 min 0,0 UV-I 0 W/m 6,0 C 0,8 C 25,7 km/h (4 Bft)
17.02.2023 06:57 7,4 C 6,7 C 91 % 1023,9 hPa 0,0 l/m 19,3 km/h (3 Bft) S-SW 202 0 min 0,0 UV-I 0 W/m 6,0 C 0,2 C 27,4 km/h (4 Bft)
17.02.2023 06:58 7,4 C 6,7 C 91 % 1024,0 hPa 0,0 l/m 14,5 km/h (3 Bft) S-SW 202 0 min 0,0 UV-I 0 W/m 6,0 C 2,2 C 20,9 km/h (4 Bft)
17.02.2023 06:59 7,4 C 6,7 C 92 % 1024,0 hPa 0,0 l/m 16,1 km/h (3 Bft) S-SW 202 0 min 0,0 UV-I 0 W/m 6,2 C 1,5 C 25,7 km/h (4 Bft)
17.02.2023 07:00 7,4 C 6,7 C 92 % 1023,9 hPa 0,0 l/m 20,9 km/h (4 Bft) S-SW 202 0 min 0,0 UV-I 0 W/m 6,2 C -0,4 C 30,6 km/h (5 Bft)
17.02.2023 07:01 7,4 C 6,7 C 92 % 1023,9 hPa 0,0 l/m 17,7 km/h (3 Bft) S-SW 202 0 min 0,0 UV-I 0 W/m 6,2 C 0,8 C 24,1 km/h (4 Bft)
17.02.2023 07:02 7,4 C 6,7 C 92 % 1023,9 hPa 0,0 l/m 19,3 km/h (3 Bft) S-SW 202 0 min 0,0 UV-I 0 W/m 6,2 C 0,2 C 24,1 km/h (4 Bft)
17.02.2023 07:03 7,4 C 6,7 C 92 % 1024,0 hPa 0,0 l/m 16,1 km/h (3 Bft) S-SW 202 0 min 0,0 UV-I 0 W/m 6,2 C 1,5 C 24,1 km/h (4 Bft)
17.02.2023 07:04 7,4 C 6,7 C 92 % 1024,0 hPa 0,0 l/m 20,9 km/h (4 Bft) S-SW 202 0 min 0,0 UV-I 0 W/m 6,2 C -0,4 C 30,6 km/h (5 Bft)
17.02.2023 07:05 7,4 C 6,7 C 92 % 1023,9 hPa 0,0 l/m 17,7 km/h (3 Bft) S-SW 202 0 min 0,0 UV-I 0 W/m 6,2 C 0,8 C 24,1 km/h (4 Bft)
17.02.2023 07:06 7,4 C 6,7 C 92 % 1023,9 hPa 0,0 l/m 14,5 km/h (3 Bft) S-SW 202 0 min 0,0 UV-I 0 W/m 6,2 C 2,2 C 20,9 km/h (4 Bft)
17.02.2023 07:07 7,4 C 6,7 C 92 % 1023,9 hPa 0,0 l/m 16,1 km/h (3 Bft) S-SW 202 0 min 0,0 UV-I 0 W/m 6,2 C 1,5 C 24,1 km/h (4 Bft)
17.02.2023 07:08 7,4 C 6,7 C 92 % 1024,0 hPa 0,0 l/m 17,7 km/h (3 Bft) S-SW 202 0 min 0,0 UV-I 0 W/m 6,2 C 0,8 C 25,7 km/h (4 Bft)
17.02.2023 07:09 7,4 C 6,7 C 92 % 1024,0 hPa 0,0 l/m 17,7 km/h (3 Bft) S-SW 202 0 min 0,0 UV-I 0 W/m 6,2 C 0,8 C 27,4 km/h (4 Bft)
17.02.2023 07:10 7,4 C 6,7 C 92 % 1024,0 hPa 0,0 l/m 16,1 km/h (3 Bft) S-SW 202 0 min 0,0 UV-I 0 W/m 6,2 C 1,5 C 24,1 km/h (4 Bft)
17.02.2023 07:11 7,4 C 6,7 C 92 % 1023,9 hPa 0,0 l/m 25,7 km/h (4 Bft) S-SW 202 0 min 0,0 UV-I 0 W/m 6,2 C -1,9 C 35,4 km/h (5 Bft)
17.02.2023 07:12 7,4 C 6,7 C 92 % 1024,0 hPa 0,0 l/m 19,3 km/h (3 Bft) S-SW 202 0 min 0,0 UV-I 0 W/m 6,2 C 0,2 C 32,2 km/h (5 Bft)
17.02.2023 07:13 7,4 C 6,7 C 92 % 1023,8 hPa 0,0 l/m 16,1 km/h (3 Bft) S-SW 202 0 min 0,0 UV-I 0 W/m 6,2 C 1,5 C 22,5 km/h (4 Bft)
17.02.2023 07:14 7,4 C 6,7 C 92 % 1023,8 hPa 0,0 l/m 12,9 km/h (3 Bft) S 180 0 min 0,0 UV-I 0 W/m 6,2 C 3,0 C 17,7 km/h (3 Bft)
17.02.2023 07:15 7,4 C 6,7 C 92 % 1023,9 hPa 0,0 l/m 14,5 km/h (3 Bft) S-SW 202 0 min 0,0 UV-I 0 W/m 6,2 C 2,2 C 22,5 km/h (4 Bft)
17.02.2023 07:16 7,4 C 6,7 C 92 % 1023,9 hPa 0,0 l/m 14,5 km/h (3 Bft) S 180 0 min 0,0 UV-I 0 W/m 6,2 C 2,2 C 24,1 km/h (4 Bft)
17.02.2023 07:17 7,4 C 6,7 C 92 % 1023,9 hPa 0,0 l/m 16,1 km/h (3 Bft) S-SW 202 0 min 0,0 UV-I 0 W/m 6,2 C 1,5 C 20,9 km/h (4 Bft)
17.02.2023 07:18 7,4 C 6,7 C 92 % 1023,9 hPa 0,0 l/m 19,3 km/h (3 Bft) S-SW 202 0 min 0,0 UV-I 0 W/m 6,2 C 0,2 C 24,1 km/h (4 Bft)
17.02.2023 07:19 7,4 C 6,7 C 92 % 1023,9 hPa 0,0 l/m 14,5 km/h (3 Bft) S-SW 202 0 min 0,0 UV-I 0 W/m 6,2 C 2,2 C 22,5 km/h (4 Bft)
17.02.2023 07:20 7,4 C 6,7 C 92 % 1023,9 hPa 0,0 l/m 12,9 km/h (3 Bft) S-SW 202 0 min 0,0 UV-I 0 W/m 6,2 C 3,0 C 22,5 km/h (4 Bft)
17.02.2023 07:21 7,4 C 6,7 C 92 % 1024,0 hPa 0,0 l/m 19,3 km/h (3 Bft) SW 225 0 min 0,0 UV-I 0 W/m 6,2 C 0,2 C 25,7 km/h (4 Bft)
17.02.2023 07:22 7,4 C 6,7 C 92 % 1023,9 hPa 0,0 l/m 19,3 km/h (3 Bft) S-SW 202 0 min 0,0 UV-I 0 W/m 6,2 C 0,2 C 24,1 km/h (4 Bft)
17.02.2023 07:23 7,4 C 6,7 C 92 % 1023,9 hPa 0,0 l/m 16,1 km/h (3 Bft) S-SW 202 0 min 0,0 UV-I 0 W/m 6,2 C 1,5 C 20,9 km/h (4 Bft)
17.02.2023 07:24 7,4 C 6,7 C 92 % 1023,9 hPa 0,0 l/m 12,9 km/h (3 Bft) S-SW 202 0 min 0,0 UV-I 0 W/m 6,2 C 3,0 C 17,7 km/h (3 Bft)
17.02.2023 07:25 7,4 C 6,7 C 92 % 1023,9 hPa 0,0 l/m 16,1 km/h (3 Bft) S-SW 202 0 min 0,0 UV-I 0 W/m 6,2 C 1,5 C 20,9 km/h (4 Bft)
17.02.2023 07:26 7,4 C 6,7 C 92 % 1023,9 hPa 0,0 l/m 16,1 km/h (3 Bft) S-SW 202 0 min 0,0 UV-I 0 W/m 6,2 C 1,5 C 19,3 km/h (3 Bft)
17.02.2023 07:27 7,4 C 6,7 C 92 % 1023,8 hPa 0,0 l/m 14,5 km/h (3 Bft) S-SW 202 0 min 0,0 UV-I 0 W/m 6,2 C 2,2 C 22,5 km/h (4 Bft)
17.02.2023 07:28 7,4 C 6,7 C 92 % 1023,9 hPa 0,0 l/m 12,9 km/h (3 Bft) S-SW 202 0 min 0,0 UV-I 0 W/m 6,2 C 3,0 C 17,7 km/h (3 Bft)
17.02.2023 07:29 7,4 C 6,7 C 92 % 1023,8 hPa 0,0 l/m 16,1 km/h (3 Bft) S 180 0 min 0,0 UV-I 0 W/m 6,2 C 1,5 C 24,1 km/h (4 Bft)
17.02.2023 07:30 7,4 C 6,7 C 92 % 1023,9 hPa 0,0 l/m 16,1 km/h (3 Bft) S 180 0 min 0,0 UV-I 0 W/m 6,2 C 1,5 C 24,1 km/h (4 Bft)
17.02.2023 07:31 7,4 C 6,7 C 92 % 1023,8 hPa 0,0 l/m 19,3 km/h (3 Bft) S-SW 202 0 min 0,0 UV-I 0 W/m 6,2 C 0,2 C 27,4 km/h (4 Bft)
17.02.2023 07:32 7,4 C 6,7 C 92 % 1023,9 hPa 0,0 l/m 17,7 km/h (3 Bft) S-SW 202 0 min 0,0 UV-I 0 W/m 6,2 C 0,8 C 20,9 km/h (4 Bft)
17.02.2023 07:33 7,5 C 6,7 C 92 % 1023,8 hPa 0,0 l/m 14,5 km/h (3 Bft) S-SW 202 0 min 0,0 UV-I 0 W/m 6,3 C 2,3 C 17,7 km/h (3 Bft)
17.02.2023 07:34 7,5 C 6,7 C 92 % 1023,7 hPa 0,0 l/m 14,5 km/h (3 Bft) S 180 0 min 0,0 UV-I 0 W/m 6,3 C 2,3 C 19,3 km/h (3 Bft)
17.02.2023 07:35 7,4 C 6,7 C 92 % 1023,9 hPa 0,0 l/m 16,1 km/h (3 Bft) S 180 0 min 0,0 UV-I 0 W/m 6,2 C 1,5 C 30,6 km/h (5 Bft)
17.02.2023 07:36 7,5 C 6,7 C 92 % 1023,8 hPa 0,0 l/m 16,1 km/h (3 Bft) S-SW 202 0 min 0,0 UV-I 0 W/m 6,3 C 1,6 C 25,7 km/h (4 Bft)
17.02.2023 07:37 7,4 C 6,7 C 92 % 1023,8 hPa 0,0 l/m 16,1 km/h (3 Bft) S-SW 202 0 min 0,0 UV-I 0 W/m 6,2 C 1,5 C 24,1 km/h (4 Bft)
17.02.2023 07:38 7,5 C 6,7 C 92 % 1023,9 hPa 0,0 l/m 16,1 km/h (3 Bft) S 180 0 min 0,0 UV-I 0 W/m 6,3 C 1,6 C 24,1 km/h (4 Bft)
17.02.2023 07:39 7,6 C 6,7 C 92 % 1023,8 hPa 0,0 l/m 16,1 km/h (3 Bft) SW 225 0 min 0,0 UV-I 0 W/m 6,4 C 1,7 C 27,4 km/h (4 Bft)
17.02.2023 07:40 7,5 C 6,7 C 92 % 1023,9 hPa 0,0 l/m 20,9 km/h (4 Bft) S-SW 202 0 min 0,0 UV-I 0 W/m 6,3 C -0,3 C 29,0 km/h (5 Bft)
17.02.2023 07:41 7,6 C 6,7 C 92 % 1023,9 hPa 0,0 l/m 19,3 km/h (3 Bft) S-SW 202 0 min 0,0 UV-I 0 W/m 6,4 C 0,4 C 27,4 km/h (4 Bft)
17.02.2023 07:42 7,6 C 6,7 C 92 % 1023,9 hPa 0,0 l/m 16,1 km/h (3 Bft) S-SW 202 0 min 0,0 UV-I 0 W/m 6,4 C 1,7 C 24,1 km/h (4 Bft)
17.02.2023 07:43 7,6 C 6,7 C 92 % 1023,9 hPa 0,0 l/m 16,1 km/h (3 Bft) S-SW 202 0 min 0,0 UV-I 0 W/m 6,4 C 1,7 C 19,3 km/h (3 Bft)
17.02.2023 07:44 7,5 C 6,7 C 93 % 1023,9 hPa 0,0 l/m 14,5 km/h (3 Bft) S-SW 202 0 min 0,0 UV-I 0 W/m 6,4 C 2,3 C 20,9 km/h (4 Bft)
17.02.2023 07:45 7,6 C 6,7 C 92 % 1024,0 hPa 0,0 l/m 17,7 km/h (3 Bft) S-SW 202 0 min 0,0 UV-I 0 W/m 6,4 C 1,1 C 24,1 km/h (4 Bft)
17.02.2023 07:46 7,6 C 6,7 C 92 % 1023,9 hPa 0,0 l/m 16,1 km/h (3 Bft) S-SW 202 0 min 0,0 UV-I 0 W/m 6,4 C 1,7 C 20,9 km/h (4 Bft)
17.02.2023 07:47 7,6 C 6,7 C 92 % 1023,9 hPa 0,0 l/m 14,5 km/h (3 Bft) S-SW 202 0 min 0,0 UV-I 0 W/m 6,4 C 2,5 C 19,3 km/h (3 Bft)
17.02.2023 07:48 7,6 C 6,7 C 92 % 1023,9 hPa 0,0 l/m 17,7 km/h (3 Bft) S-SW 202 0 min 0,0 UV-I 0 W/m 6,4 C 1,1 C 24,1 km/h (4 Bft)
17.02.2023 07:49 7,6 C 6,7 C 93 % 1023,9 hPa 0,0 l/m 17,7 km/h (3 Bft) S-SW 202 0 min 0,0 UV-I 0 W/m 6,5 C 1,1 C 20,9 km/h (4 Bft)
17.02.2023 07:50 7,6 C 6,7 C 92 % 1023,9 hPa 0,0 l/m 12,9 km/h (3 Bft) S-SW 202 0 min 0,0 UV-I 0 W/m 6,4 C 3,3 C 22,5 km/h (4 Bft)
17.02.2023 07:51 7,6 C 6,7 C 93 % 1024,0 hPa 0,0 l/m 19,3 km/h (3 Bft) S-SW 202 0 min 0,0 UV-I 0 W/m 6,5 C 0,4 C 27,4 km/h (4 Bft)
17.02.2023 07:52 7,6 C 6,7 C 93 % 1024,0 hPa 0,0 l/m 19,3 km/h (3 Bft) S-SW 202 0 min 0,0 UV-I 0 W/m 6,5 C 0,4 C 25,7 km/h (4 Bft)
17.02.2023 07:53 7,6 C 6,7 C 93 % 1024,0 hPa 0,0 l/m 16,1 km/h (3 Bft) S-SW 202 0 min 0,0 UV-I 0 W/m 6,5 C 1,7 C 22,5 km/h (4 Bft)
17.02.2023 07:54 7,6 C 7,2 C 93 % 1024,1 hPa 0,0 l/m 17,7 km/h (3 Bft) S-SW 202 0 min 0,0 UV-I 0 W/m 6,5 C 1,1 C 24,1 km/h (4 Bft)
17.02.2023 07:55 7,6 C 7,2 C 93 % 1024,0 hPa 0,0 l/m 19,3 km/h (3 Bft) S-SW 202 0 min 0,0 UV-I 0 W/m 6,5 C 0,4 C 24,1 km/h (4 Bft)
17.02.2023 07:56 7,6 C 7,2 C 93 % 1024,1 hPa 0,0 l/m 17,7 km/h (3 Bft) S-SW 202 0 min 0,0 UV-I 0 W/m 6,5 C 1,1 C 25,7 km/h (4 Bft)
17.02.2023 07:57 7,6 C 7,2 C 93 % 1024,1 hPa 0,0 l/m 17,7 km/h (3 Bft) S-SW 202 0 min 0,0 UV-I 0 W/m 6,5 C 1,1 C 24,1 km/h (4 Bft)
17.02.2023 07:58 7,6 C 7,2 C 93 % 1024,0 hPa 0,0 l/m 19,3 km/h (3 Bft) S-SW 202 0 min 0,0 UV-I 0 W/m 6,5 C 0,4 C 29,0 km/h (5 Bft)
17.02.2023 07:59 7,6 C 7,2 C 93 % 1024,2 hPa 0,0 l/m 14,5 km/h (3 Bft) S-SW 202 0 min 0,0 UV-I 0 W/m 6,5 C 2,5 C 19,3 km/h (3 Bft)
17.02.2023 08:00 7,6 C 7,2 C 93 % 1024,1 hPa 0,0 l/m 17,7 km/h (3 Bft) S 180 0 min 0,0 UV-I 5 W/m 6,5 C 1,1 C 22,5 km/h (4 Bft)
17.02.2023 08:01 7,7 C 7,2 C 93 % 1024,1 hPa 0,0 l/m 12,9 km/h (3 Bft) S-SW 202 0 min 0,0 UV-I 5 W/m 6,6 C 3,4 C 17,7 km/h (3 Bft)
17.02.2023 08:02 7,7 C 7,2 C 93 % 1024,2 hPa 0,0 l/m 14,5 km/h (3 Bft) S-SW 202 0 min 0,0 UV-I 5 W/m 6,6 C 2,6 C 22,5 km/h (4 Bft)
17.02.2023 08:03 7,7 C 7,2 C 93 % 1024,2 hPa 0,2 l/m 14,5 km/h (3 Bft) S-SW 202 0 min 0,0 UV-I 5 W/m 6,6 C 2,6 C 20,9 km/h (4 Bft)
17.02.2023 08:04 7,6 C 7,2 C 93 % 1024,2 hPa 0,0 l/m 12,9 km/h (3 Bft) S-SW 202 0 min 0,0 UV-I 5 W/m 6,5 C 3,3 C 19,3 km/h (3 Bft)
17.02.2023 08:05 7,6 C 7,2 C 93 % 1024,3 hPa 0,0 l/m 16,1 km/h (3 Bft) S 180 0 min 0,0 UV-I 5 W/m 6,5 C 1,7 C 22,5 km/h (4 Bft)
17.02.2023 08:06 7,6 C 7,2 C 93 % 1024,3 hPa 0,0 l/m 14,5 km/h (3 Bft) S 180 0 min 0,0 UV-I 7 W/m 6,5 C 2,5 C 22,5 km/h (4 Bft)
17.02.2023 08:07 7,7 C 7,2 C 93 % 1024,3 hPa 0,0 l/m 14,5 km/h (3 Bft) S-SW 202 0 min 0,0 UV-I 7 W/m 6,6 C 2,6 C 20,9 km/h (4 Bft)
17.02.2023 08:08 7,6 C 7,2 C 93 % 1024,3 hPa 0,0 l/m 14,5 km/h (3 Bft) S-SW 202 0 min 0,0 UV-I 7 W/m 6,5 C 2,5 C 19,3 km/h (3 Bft)
17.02.2023 08:09 7,7 C 7,2 C 93 % 1024,2 hPa 0,0 l/m 17,7 km/h (3 Bft) S-SW 202 0 min 0,0 UV-I 7 W/m 6,6 C 1,2 C 22,5 km/h (4 Bft)
17.02.2023 08:10 7,7 C 7,2 C 93 % 1024,2 hPa 0,0 l/m 17,7 km/h (3 Bft) S-SW 202 0 min 0,0 UV-I 7 W/m 6,6 C 1,2 C 27,4 km/h (4 Bft)
17.02.2023 08:11 7,7 C 7,2 C 93 % 1024,3 hPa 0,0 l/m 16,1 km/h (3 Bft) S 180 0 min 0,0 UV-I 7 W/m 6,6 C 1,9 C 25,7 km/h (4 Bft)
17.02.2023 08:12 7,7 C 7,2 C 93 % 1024,3 hPa 0,0 l/m 17,7 km/h (3 Bft) S-SW 202 0 min 0,0 UV-I 7 W/m 6,6 C 1,2 C 22,5 km/h (4 Bft)
17.02.2023 08:13 7,7 C 7,2 C 93 % 1024,2 hPa 0,0 l/m 16,1 km/h (3 Bft) S-SW 202 0 min 0,0 UV-I 9 W/m 6,6 C 1,9 C 20,9 km/h (4 Bft)
17.02.2023 08:14 7,7 C 7,2 C 93 % 1024,2 hPa 0,0 l/m 12,9 km/h (3 Bft) S 180 0 min 0,0 UV-I 9 W/m 6,6 C 3,4 C 17,7 km/h (3 Bft)
17.02.2023 08:15 7,7 C 7,2 C 93 % 1024,3 hPa 0,0 l/m 19,3 km/h (3 Bft) S 180 0 min 0,0 UV-I 11 W/m 6,6 C 0,6 C 33,8 km/h (5 Bft)
17.02.2023 08:16 7,7 C 7,2 C 93 % 1024,2 hPa 0,0 l/m 16,1 km/h (3 Bft) S 180 0 min 0,0 UV-I 9 W/m 6,6 C 1,9 C 22,5 km/h (4 Bft)
17.02.2023 08:17 7,7 C 7,2 C 93 % 1024,3 hPa 0,0 l/m 19,3 km/h (3 Bft) S 180 0 min 0,0 UV-I 11 W/m 6,6 C 0,6 C 30,6 km/h (5 Bft)
17.02.2023 08:18 7,7 C 7,2 C 93 % 1024,3 hPa 0,0 l/m 14,5 km/h (3 Bft) S-SW 202 0 min 0,0 UV-I 11 W/m 6,6 C 2,6 C 24,1 km/h (4 Bft)
17.02.2023 08:19 7,7 C 7,2 C 93 % 1024,3 hPa 0,0 l/m 16,1 km/h (3 Bft) S-SW 202 0 min 0,0 UV-I 11 W/m 6,6 C 1,9 C 25,7 km/h (4 Bft)
17.02.2023 08:20 7,7 C 7,2 C 93 % 1024,2 hPa 0,0 l/m 17,7 km/h (3 Bft) S-SW 202 0 min 0,0 UV-I 11 W/m 6,6 C 1,2 C 27,4 km/h (4 Bft)
17.02.2023 08:21 7,7 C 7,2 C 93 % 1024,3 hPa 0,0 l/m 14,5 km/h (3 Bft) S 180 0 min 0,0 UV-I 12 W/m 6,6 C 2,6 C 16,1 km/h (3 Bft)
17.02.2023 08:22 7,7 C 7,2 C 93 % 1024,3 hPa 0,0 l/m 17,7 km/h (3 Bft) S 180 0 min 0,0 UV-I 12 W/m 6,6 C 1,2 C 25,7 km/h (4 Bft)
17.02.2023 08:23 7,7 C 7,2 C 93 % 1024,2 hPa 0,0 l/m 17,7 km/h (3 Bft) S-SW 202 0 min 0,0 UV-I 12 W/m 6,6 C 1,2 C 20,9 km/h (4 Bft)
17.02.2023 08:24 7,7 C 7,2 C 93 % 1024,2 hPa 0,0 l/m 17,7 km/h (3 Bft) S 180 0 min 0,0 UV-I 12 W/m 6,6 C 1,2 C 22,5 km/h (4 Bft)
17.02.2023 08:25 7,7 C 7,2 C 93 % 1024,2 hPa 0,0 l/m 19,3 km/h (3 Bft) S-SW 202 0 min 0,0 UV-I 14 W/m 6,6 C 0,6 C 24,1 km/h (4 Bft)
17.02.2023 08:26 7,7 C 7,2 C 93 % 1024,2 hPa 0,0 l/m 24,1 km/h (4 Bft) S 180 0 min 0,0 UV-I 17 W/m 6,6 C -1,0 C 32,2 km/h (5 Bft)
17.02.2023 08:27 7,7 C 7,2 C 93 % 1024,2 hPa 0,0 l/m 19,3 km/h (3 Bft) S 180 0 min 0,0 UV-I 16 W/m 6,6 C 0,6 C 25,7 km/h (4 Bft)
17.02.2023 08:28 7,7 C 7,2 C 93 % 1024,2 hPa 0,0 l/m 20,9 km/h (4 Bft) S-SW 202 0 min 0,0 UV-I 18 W/m 6,6 C 0,0 C 29,0 km/h (5 Bft)
17.02.2023 08:29 7,8 C 7,2 C 93 % 1024,2 hPa 0,0 l/m 19,3 km/h (3 Bft) S-SW 202 0 min 0,0 UV-I 18 W/m 6,7 C 0,7 C 27,4 km/h (4 Bft)
17.02.2023 08:30 7,8 C 7,2 C 93 % 1024,2 hPa 0,0 l/m 16,1 km/h (3 Bft) S-SW 202 0 min 0,0 UV-I 18 W/m 6,7 C 2,0 C 19,3 km/h (3 Bft)
17.02.2023 08:31 7,7 C 7,2 C 93 % 1024,2 hPa 0,0 l/m 19,3 km/h (3 Bft) S 180 0 min 0,0 UV-I 20 W/m 6,6 C 0,6 C 30,6 km/h (5 Bft)
17.02.2023 08:32 7,8 C 7,2 C 93 % 1024,2 hPa 0,0 l/m 19,3 km/h (3 Bft) S 180 0 min 0,0 UV-I 21 W/m 6,7 C 0,7 C 24,1 km/h (4 Bft)
17.02.2023 08:33 7,8 C 7,2 C 93 % 1024,2 hPa 0,0 l/m 20,9 km/h (4 Bft) S-SW 202 0 min 0,0 UV-I 19 W/m 6,7 C 0,1 C 29,0 km/h (5 Bft)
17.02.2023 08:34 7,8 C 7,2 C 93 % 1024,2 hPa 0,2 l/m 16,1 km/h (3 Bft) S-SW 202 0 min 0,0 UV-I 18 W/m 6,7 C 2,0 C 24,1 km/h (4 Bft)
17.02.2023 08:35 7,8 C 7,2 C 93 % 1024,2 hPa 0,0 l/m 14,5 km/h (3 Bft) S-SW 202 0 min 0,0 UV-I 21 W/m 6,7 C 2,7 C 19,3 km/h (3 Bft)
17.02.2023 08:36 7,8 C 7,2 C 93 % 1024,2 hPa 0,0 l/m 12,9 km/h (3 Bft) S-SW 202 0 min 0,0 UV-I 19 W/m 6,7 C 3,5 C 22,5 km/h (4 Bft)
17.02.2023 08:37 7,8 C 7,2 C 93 % 1024,2 hPa 0,0 l/m 16,1 km/h (3 Bft) S-SW 202 0 min 0,0 UV-I 19 W/m 6,7 C 2,0 C 22,5 km/h (4 Bft)
17.02.2023 08:38 7,8 C 7,2 C 93 % 1024,2 hPa 0,0 l/m 20,9 km/h (4 Bft) S-SW 202 0 min 0,0 UV-I 21 W/m 6,7 C 0,1 C 29,0 km/h (5 Bft)
17.02.2023 08:39 7,8 C 7,2 C 93 % 1024,2 hPa 0,0 l/m 19,3 km/h (3 Bft) S-SW 202 0 min 0,0 UV-I 21 W/m 6,7 C 0,7 C 24,1 km/h (4 Bft)
17.02.2023 08:40 7,8 C 7,2 C 93 % 1024,2 hPa 0,0 l/m 16,1 km/h (3 Bft) S-SW 202 0 min 0,0 UV-I 21 W/m 6,7 C 2,0 C 22,5 km/h (4 Bft)
17.02.2023 08:41 7,8 C 7,2 C 93 % 1024,2 hPa 0,0 l/m 16,1 km/h (3 Bft) S 180 0 min 0,0 UV-I 21 W/m 6,7 C 2,0 C 22,5 km/h (4 Bft)
17.02.2023 08:42 7,8 C 7,2 C 93 % 1024,1 hPa 0,0 l/m 17,7 km/h (3 Bft) S 180 0 min 0,0 UV-I 23 W/m 6,7 C 1,3 C 25,7 km/h (4 Bft)
17.02.2023 08:43 7,8 C 7,2 C 93 % 1024,2 hPa 0,0 l/m 14,5 km/h (3 Bft) S 180 0 min 0,0 UV-I 21 W/m 6,7 C 2,7 C 20,9 km/h (4 Bft)
17.02.2023 08:44 7,8 C 7,2 C 93 % 1024,2 hPa 0,0 l/m 20,9 km/h (4 Bft) S 180 0 min 0,0 UV-I 19 W/m 6,7 C 0,1 C 29,0 km/h (5 Bft)
17.02.2023 08:45 7,8 C 7,2 C 93 % 1024,3 hPa 0,0 l/m 17,7 km/h (3 Bft) S 180 0 min 0,0 UV-I 18 W/m 6,7 C 1,3 C 25,7 km/h (4 Bft)
17.02.2023 08:46 7,8 C 7,2 C 93 % 1024,3 hPa 0,0 l/m 17,7 km/h (3 Bft) S-SW 202 0 min 0,0 UV-I 18 W/m 6,7 C 1,3 C 22,5 km/h (4 Bft)
17.02.2023 08:47 7,8 C 7,2 C 93 % 1024,1 hPa 0,0 l/m 14,5 km/h (3 Bft) S 180 0 min 0,0 UV-I 18 W/m 6,7 C 2,7 C 24,1 km/h (4 Bft)
17.02.2023 08:48 7,8 C 7,2 C 93 % 1024,1 hPa 0,0 l/m 14,5 km/h (3 Bft) S-SW 202 0 min 0,0 UV-I 16 W/m 6,7 C 2,7 C 19,3 km/h (3 Bft)
17.02.2023 08:49 7,9 C 7,2 C 93 % 1024,2 hPa 0,0 l/m 16,1 km/h (3 Bft) S 180 0 min 0,0 UV-I 16 W/m 6,8 C 2,1 C 22,5 km/h (4 Bft)
17.02.2023 08:50 7,9 C 7,2 C 93 % 1024,2 hPa 0,0 l/m 16,1 km/h (3 Bft) S-SW 202 0 min 0,0 UV-I 16 W/m 6,8 C 2,1 C 24,1 km/h (4 Bft)
17.02.2023 08:51 7,9 C 7,2 C 93 % 1024,2 hPa 0,0 l/m 19,3 km/h (3 Bft) S-SW 202 0 min 0,0 UV-I 16 W/m 6,8 C 0,8 C 24,1 km/h (4 Bft)
17.02.2023 08:52 7,9 C 7,2 C 93 % 1024,2 hPa 0,0 l/m 19,3 km/h (3 Bft) S-SW 202 0 min 0,0 UV-I 16 W/m 6,8 C 0,8 C 25,7 km/h (4 Bft)
17.02.2023 08:53 7,9 C 7,2 C 93 % 1024,2 hPa 0,0 l/m 19,3 km/h (3 Bft) S-SW 202 0 min 0,0 UV-I 16 W/m 6,8 C 0,8 C 25,7 km/h (4 Bft)
17.02.2023 08:54 7,9 C 7,2 C 93 % 1024,3 hPa 0,0 l/m 20,9 km/h (4 Bft) S-SW 202 0 min 0,0 UV-I 16 W/m 6,8 C 0,3 C 27,4 km/h (4 Bft)
17.02.2023 08:55 7,9 C 7,2 C 93 % 1024,2 hPa 0,0 l/m 19,3 km/h (3 Bft) S 180 0 min 0,0 UV-I 16 W/m 6,8 C 0,8 C 24,1 km/h (4 Bft)
17.02.2023 08:56 7,9 C 7,2 C 93 % 1024,3 hPa 0,0 l/m 19,3 km/h (3 Bft) S-SW 202 0 min 0,0 UV-I 16 W/m 6,8 C 0,8 C 22,5 km/h (4 Bft)
17.02.2023 08:57 7,9 C 7,2 C 93 % 1024,3 hPa 0,0 l/m 12,9 km/h (3 Bft) S-SW 202 0 min 0,0 UV-I 16 W/m 6,8 C 3,6 C 17,7 km/h (3 Bft)
17.02.2023 08:58 7,9 C 7,2 C 93 % 1024,3 hPa 0,0 l/m 12,9 km/h (3 Bft) S 180 0 min 0,0 UV-I 16 W/m 6,8 C 3,6 C 27,4 km/h (4 Bft)
17.02.2023 08:59 7,9 C 7,2 C 93 % 1024,4 hPa 0,0 l/m 16,1 km/h (3 Bft) S-SW 202 0 min 0,0 UV-I 16 W/m 6,8 C 2,1 C 27,4 km/h (4 Bft)
17.02.2023 09:00 7,9 C 7,2 C 93 % 1024,2 hPa 0,0 l/m 20,9 km/h (4 Bft) S-SW 202 0 min 0,0 UV-I 18 W/m 6,8 C 0,3 C 30,6 km/h (5 Bft)
17.02.2023 09:01 7,9 C 7,2 C 93 % 1024,3 hPa 0,0 l/m 17,7 km/h (3 Bft) S-SW 202 0 min 0,0 UV-I 17 W/m 6,8 C 1,4 C 24,1 km/h (4 Bft)
17.02.2023 09:02 7,9 C 7,2 C 93 % 1024,4 hPa 0,0 l/m 20,9 km/h (4 Bft) S-SW 202 0 min 0,0 UV-I 18 W/m 6,8 C 0,3 C 29,0 km/h (5 Bft)
17.02.2023 09:03 7,9 C 7,8 C 93 % 1024,3 hPa 0,0 l/m 16,1 km/h (3 Bft) S-SW 202 0 min 0,0 UV-I 19 W/m 6,8 C 2,1 C 22,5 km/h (4 Bft)
17.02.2023 09:04 7,9 C 7,8 C 93 % 1024,4 hPa 0,0 l/m 22,5 km/h (4 Bft) S-SW 202 0 min 0,0 UV-I 21 W/m 6,8 C -0,3 C 37,0 km/h (5 Bft)
17.02.2023 09:05 7,9 C 7,8 C 93 % 1024,4 hPa 0,0 l/m 16,1 km/h (3 Bft) S-SW 202 0 min 0,0 UV-I 19 W/m 6,8 C 2,1 C 22,5 km/h (4 Bft)
17.02.2023 09:06 7,9 C 7,8 C 93 % 1024,4 hPa 0,0 l/m 16,1 km/h (3 Bft) S-SW 202 0 min 0,0 UV-I 19 W/m 6,8 C 2,1 C 24,1 km/h (4 Bft)
17.02.2023 09:07 7,9 C 7,8 C 93 % 1024,4 hPa 0,0 l/m 16,1 km/h (3 Bft) S-SW 202 0 min 0,0 UV-I 22 W/m 6,8 C 2,1 C 20,9 km/h (4 Bft)
17.02.2023 09:08 8,0 C 7,8 C 93 % 1024,4 hPa 0,0 l/m 17,7 km/h (3 Bft) S-SW 202 0 min 0,0 UV-I 26 W/m 6,9 C 1,6 C 22,5 km/h (4 Bft)
17.02.2023 09:09 7,9 C 7,8 C 93 % 1024,4 hPa 0,0 l/m 20,9 km/h (4 Bft) S 180 0 min 0,0 UV-I 32 W/m 6,8 C 0,3 C 32,2 km/h (5 Bft)
17.02.2023 09:10 8,0 C 7,8 C 93 % 1024,3 hPa 0,0 l/m 14,5 km/h (3 Bft) S-SW 202 0 min 0,0 UV-I 33 W/m 6,9 C 2,9 C 22,5 km/h (4 Bft)
17.02.2023 09:11 8,0 C 7,8 C 94 % 1024,4 hPa 0,0 l/m 19,3 km/h (3 Bft) S-SW 202 0 min 0,0 UV-I 33 W/m 7,1 C 1,0 C 24,1 km/h (4 Bft)
17.02.2023 09:12 8,0 C 7,8 C 94 % 1024,4 hPa 0,0 l/m 19,3 km/h (3 Bft) S-SW 202 0 min 0,0 UV-I 47 W/m 7,1 C 1,0 C 29,0 km/h (5 Bft)
17.02.2023 09:13 8,0 C 7,8 C 94 % 1024,3 hPa 0,0 l/m 20,9 km/h (4 Bft) S-SW 202 0 min 0,0 UV-I 44 W/m 7,1 C 0,4 C 25,7 km/h (4 Bft)
17.02.2023 09:14 8,0 C 7,8 C 94 % 1024,3 hPa 0,0 l/m 17,7 km/h (3 Bft) S-SW 202 0 min 0,0 UV-I 44 W/m 7,1 C 1,6 C 22,5 km/h (4 Bft)
17.02.2023 09:15 8,1 C 7,8 C 94 % 1024,3 hPa 0,0 l/m 14,5 km/h (3 Bft) S-SW 202 0 min 0,0 UV-I 46 W/m 7,2 C 3,1 C 22,5 km/h (4 Bft)
17.02.2023 09:16 8,1 C 7,8 C 94 % 1024,4 hPa 0,0 l/m 16,1 km/h (3 Bft) S 180 0 min 0,0 UV-I 54 W/m 7,2 C 2,3 C 20,9 km/h (4 Bft)
17.02.2023 09:17 8,1 C 7,8 C 94 % 1024,5 hPa 0,0 l/m 19,3 km/h (3 Bft) S-SW 202 0 min 0,0 UV-I 56 W/m 7,2 C 1,1 C 25,7 km/h (4 Bft)
17.02.2023 09:18 8,1 C 7,8 C 94 % 1024,5 hPa 0,0 l/m 14,5 km/h (3 Bft) S-SW 202 0 min 0,0 UV-I 54 W/m 7,2 C 3,1 C 22,5 km/h (4 Bft)
17.02.2023 09:19 8,1 C 7,8 C 94 % 1024,5 hPa 0,0 l/m 16,1 km/h (3 Bft) S-SW 202 0 min 0,0 UV-I 53 W/m 7,2 C 2,3 C 24,1 km/h (4 Bft)
17.02.2023 09:20 8,1 C 7,8 C 94 % 1024,5 hPa 0,0 l/m 16,1 km/h (3 Bft) S-SW 202 0 min 0,0 UV-I 53 W/m 7,2 C 2,3 C 20,9 km/h (4 Bft)
17.02.2023 09:21 8,1 C 7,8 C 94 % 1024,4 hPa 0,0 l/m 17,7 km/h (3 Bft) S-SW 202 0 min 0,0 UV-I 62 W/m 7,2 C 1,7 C 24,1 km/h (4 Bft)
17.02.2023 09:22 8,1 C 7,8 C 94 % 1024,4 hPa 0,0 l/m 24,1 km/h (4 Bft) S 180 0 min 0,0 UV-I 83 W/m 7,2 C -0,5 C 30,6 km/h (5 Bft)
17.02.2023 09:23 8,1 C 7,8 C 94 % 1024,3 hPa 0,0 l/m 20,9 km/h (4 Bft) S-SW 202 0 min 0,0 UV-I 62 W/m 7,2 C 0,5 C 29,0 km/h (5 Bft)
17.02.2023 09:24 8,1 C 7,8 C 94 % 1024,4 hPa 0,0 l/m 14,5 km/h (3 Bft) S-SW 202 0 min 0,0 UV-I 53 W/m 7,2 C 3,1 C 17,7 km/h (3 Bft)
17.02.2023 09:25 8,1 C 7,8 C 94 % 1024,3 hPa 0,0 l/m 22,5 km/h (4 Bft) S-SW 202 0 min 0,0 UV-I 69 W/m 7,2 C 0,0 C 33,8 km/h (5 Bft)
17.02.2023 09:26 8,2 C 7,8 C 94 % 1024,4 hPa 0,0 l/m 17,7 km/h (3 Bft) S-SW 202 0 min 0,0 UV-I 65 W/m 7,3 C 1,8 C 20,9 km/h (4 Bft)
17.02.2023 09:27 8,2 C 7,8 C 94 % 1024,3 hPa 0,0 l/m 17,7 km/h (3 Bft) S 180 0 min 0,0 UV-I 54 W/m 7,3 C 1,8 C 27,4 km/h (4 Bft)
17.02.2023 09:28 8,2 C 7,8 C 94 % 1024,3 hPa 0,0 l/m 19,3 km/h (3 Bft) S-SW 202 0 min 0,0 UV-I 56 W/m 7,3 C 1,2 C 25,7 km/h (4 Bft)
17.02.2023 09:29 8,2 C 7,8 C 94 % 1024,3 hPa 0,0 l/m 16,1 km/h (3 Bft) S-SW 202 0 min 0,0 UV-I 54 W/m 7,3 C 2,5 C 24,1 km/h (4 Bft)
17.02.2023 09:30 8,2 C 7,8 C 94 % 1024,3 hPa 0,0 l/m 17,7 km/h (3 Bft) S 180 0 min 0,0 UV-I 53 W/m 7,3 C 1,8 C 24,1 km/h (4 Bft)
17.02.2023 09:31 8,2 C 7,8 C 94 % 1024,3 hPa 0,0 l/m 19,3 km/h (3 Bft) S-SW 202 0 min 0,0 UV-I 46 W/m 7,3 C 1,2 C 30,6 km/h (5 Bft)
17.02.2023 09:32 8,2 C 7,8 C 94 % 1024,4 hPa 0,0 l/m 17,7 km/h (3 Bft) S-SW 202 0 min 0,0 UV-I 44 W/m 7,3 C 1,8 C 22,5 km/h (4 Bft)
17.02.2023 09:33 8,2 C 7,8 C 94 % 1024,4 hPa 0,0 l/m 14,5 km/h (3 Bft) S-SW 202 0 min 0,0 UV-I 44 W/m 7,3 C 3,2 C 24,1 km/h (4 Bft)
17.02.2023 09:34 8,2 C 7,8 C 94 % 1024,4 hPa 0,0 l/m 19,3 km/h (3 Bft) S-SW 202 0 min 0,0 UV-I 46 W/m 7,3 C 1,2 C 27,4 km/h (4 Bft)
17.02.2023 09:35 8,2 C 7,8 C 94 % 1024,5 hPa 0,0 l/m 16,1 km/h (3 Bft) S 180 0 min 0,0 UV-I 44 W/m 7,3 C 2,5 C 22,5 km/h (4 Bft)
17.02.2023 09:36 8,2 C 7,8 C 94 % 1024,4 hPa 0,0 l/m 12,9 km/h (3 Bft) S-SW 202 0 min 0,0 UV-I 46 W/m 7,3 C 4,0 C 17,7 km/h (3 Bft)
17.02.2023 09:37 8,2 C 7,8 C 94 % 1024,4 hPa 0,0 l/m 16,1 km/h (3 Bft) S-SW 202 0 min 0,0 UV-I 40 W/m 7,3 C 2,5 C 20,9 km/h (4 Bft)
17.02.2023 09:38 8,2 C 7,8 C 94 % 1024,4 hPa 0,0 l/m 14,5 km/h (3 Bft) S-SW 202 0 min 0,0 UV-I 39 W/m 7,3 C 3,2 C 24,1 km/h (4 Bft)
17.02.2023 09:39 8,2 C 7,8 C 94 % 1024,4 hPa 0,0 l/m 17,7 km/h (3 Bft) S-SW 202 0 min 0,0 UV-I 37 W/m 7,3 C 1,8 C 25,7 km/h (4 Bft)
17.02.2023 09:40 8,2 C 7,8 C 94 % 1024,4 hPa 0,0 l/m 14,5 km/h (3 Bft) S 180 0 min 0,0 UV-I 37 W/m 7,3 C 3,2 C 20,9 km/h (4 Bft)
17.02.2023 09:41 8,2 C 7,8 C 94 % 1024,4 hPa 0,0 l/m 16,1 km/h (3 Bft) S-SW 202 0 min 0,0 UV-I 39 W/m 7,3 C 2,5 C 20,9 km/h (4 Bft)
17.02.2023 09:42 8,2 C 7,8 C 94 % 1024,4 hPa 0,0 l/m 14,5 km/h (3 Bft) S-SW 202 0 min 0,0 UV-I 31 W/m 7,3 C 3,2 C 16,1 km/h (3 Bft)
17.02.2023 09:43 8,2 C 7,8 C 94 % 1024,4 hPa 0,0 l/m 16,1 km/h (3 Bft) S-SW 202 0 min 0,0 UV-I 32 W/m 7,3 C 2,5 C 20,9 km/h (4 Bft)
17.02.2023 09:44 8,2 C 7,8 C 94 % 1024,4 hPa 0,0 l/m 20,9 km/h (4 Bft) S 180 0 min 0,0 UV-I 32 W/m 7,3 C 0,7 C 29,0 km/h (5 Bft)
17.02.2023 09:45 8,2 C 7,8 C 94 % 1024,5 hPa 0,0 l/m 14,5 km/h (3 Bft) S-SW 202 0 min 0,0 UV-I 32 W/m 7,3 C 3,2 C 20,9 km/h (4 Bft)
17.02.2023 09:46 8,2 C 7,8 C 94 % 1024,5 hPa 0,0 l/m 17,7 km/h (3 Bft) S-SW 202 0 min 0,0 UV-I 32 W/m 7,3 C 1,8 C 24,1 km/h (4 Bft)
17.02.2023 09:47 8,2 C 7,8 C 94 % 1024,6 hPa 0,0 l/m 14,5 km/h (3 Bft) SW 225 0 min 0,0 UV-I 35 W/m 7,3 C 3,2 C 20,9 km/h (4 Bft)
17.02.2023 09:48 8,3 C 7,8 C 94 % 1024,6 hPa 0,0 l/m 16,1 km/h (3 Bft) S-SW 202 0 min 0,0 UV-I 41 W/m 7,4 C 2,6 C 24,1 km/h (4 Bft)
17.02.2023 09:49 8,2 C 7,8 C 94 % 1024,6 hPa 0,0 l/m 17,7 km/h (3 Bft) S-SW 202 0 min 0,0 UV-I 37 W/m 7,3 C 1,8 C 29,0 km/h (5 Bft)
17.02.2023 09:50 8,3 C 7,8 C 94 % 1024,6 hPa 0,0 l/m 17,7 km/h (3 Bft) S-SW 202 0 min 0,0 UV-I 39 W/m 7,4 C 1,9 C 22,5 km/h (4 Bft)
17.02.2023 09:51 8,3 C 7,8 C 94 % 1024,5 hPa 0,0 l/m 16,1 km/h (3 Bft) S-SW 202 0 min 0,0 UV-I 37 W/m 7,4 C 2,6 C 20,9 km/h (4 Bft)
17.02.2023 09:52 8,3 C 7,8 C 94 % 1024,5 hPa 0,0 l/m 17,7 km/h (3 Bft) S-SW 202 0 min 0,0 UV-I 30 W/m 7,4 C 1,9 C 25,7 km/h (4 Bft)
17.02.2023 09:53 8,3 C 7,8 C 94 % 1024,6 hPa 0,0 l/m 24,1 km/h (4 Bft) S-SW 202 0 min 0,0 UV-I 33 W/m 7,4 C -0,2 C 32,2 km/h (5 Bft)
17.02.2023 09:54 8,3 C 7,8 C 94 % 1024,5 hPa 0,0 l/m 22,5 km/h (4 Bft) S-SW 202 0 min 0,0 UV-I 37 W/m 7,4 C 0,3 C 30,6 km/h (5 Bft)
17.02.2023 09:55 8,3 C 7,8 C 94 % 1024,6 hPa 0,0 l/m 25,7 km/h (4 Bft) S-SW 202 0 min 0,0 UV-I 40 W/m 7,4 C -0,7 C 30,6 km/h (5 Bft)
17.02.2023 09:56 8,3 C 7,8 C 94 % 1024,6 hPa 0,0 l/m 20,9 km/h (4 Bft) S-SW 202 0 min 0,0 UV-I 42 W/m 7,4 C 0,8 C 29,0 km/h (5 Bft)
17.02.2023 09:57 8,3 C 7,8 C 94 % 1024,6 hPa 0,0 l/m 24,1 km/h (4 Bft) S-SW 202 0 min 0,0 UV-I 44 W/m 7,4 C -0,2 C 45,1 km/h (6 Bft)
17.02.2023 09:58 8,3 C 8,3 C 94 % 1024,4 hPa 0,0 l/m 17,7 km/h (3 Bft) S-SW 202 0 min 0,0 UV-I 42 W/m 7,4 C 1,9 C 29,0 km/h (5 Bft)
17.02.2023 09:59 8,3 C 8,3 C 94 % 1024,4 hPa 0,0 l/m 19,3 km/h (3 Bft) S 180 0 min 0,0 UV-I 41 W/m 7,4 C 1,3 C 40,2 km/h (6 Bft)
17.02.2023 10:00 8,3 C 8,3 C 94 % 1024,5 hPa 0,0 l/m 19,3 km/h (3 Bft) S 180 0 min 0,0 UV-I 42 W/m 7,4 C 1,3 C 30,6 km/h (5 Bft)
17.02.2023 10:01 8,4 C 8,3 C 94 % 1024,4 hPa 0,0 l/m 17,7 km/h (3 Bft) S-SW 202 0 min 0,0 UV-I 40 W/m 7,5 C 2,1 C 24,1 km/h (4 Bft)
17.02.2023 10:02 8,4 C 8,3 C 94 % 1024,4 hPa 0,0 l/m 12,9 km/h (3 Bft) S-SW 202 0 min 0,0 UV-I 35 W/m 7,5 C 4,2 C 16,1 km/h (3 Bft)
17.02.2023 10:03 8,4 C 8,3 C 94 % 1024,5 hPa 0,0 l/m 14,5 km/h (3 Bft) S 180 0 min 0,0 UV-I 40 W/m 7,5 C 3,4 C 20,9 km/h (4 Bft)
17.02.2023 10:04 8,4 C 8,3 C 94 % 1024,5 hPa 0,0 l/m 17,7 km/h (3 Bft) S 180 0 min 0,0 UV-I 46 W/m 7,5 C 2,1 C 24,1 km/h (4 Bft)
17.02.2023 10:05 8,4 C 8,3 C 94 % 1024,5 hPa 0,0 l/m 16,1 km/h (3 Bft) S-SW 202 0 min 0,0 UV-I 45 W/m 7,5 C 2,7 C 22,5 km/h (4 Bft)
17.02.2023 10:06 8,4 C 8,3 C 94 % 1024,4 hPa 0,0 l/m 16,1 km/h (3 Bft) S-SW 202 0 min 0,0 UV-I 49 W/m 7,5 C 2,7 C 19,3 km/h (3 Bft)
17.02.2023 10:07 8,4 C 8,3 C 94 % 1024,4 hPa 0,0 l/m 17,7 km/h (3 Bft) S 180 0 min 0,0 UV-I 47 W/m 7,5 C 2,1 C 27,4 km/h (4 Bft)
17.02.2023 10:08 8,4 C 8,3 C 94 % 1024,4 hPa 0,0 l/m 17,7 km/h (3 Bft) S-SW 202 0 min 0,0 UV-I 46 W/m 7,5 C 2,1 C 27,4 km/h (4 Bft)
17.02.2023 10:09 8,4 C 8,3 C 94 % 1024,5 hPa 0,0 l/m 20,9 km/h (4 Bft) S 180 0 min 0,0 UV-I 47 W/m 7,5 C 0,9 C 25,7 km/h (4 Bft)
17.02.2023 10:10 8,5 C 8,3 C 94 % 1024,6 hPa 0,0 l/m 16,1 km/h (3 Bft) S-SW 202 0 min 0,0 UV-I 54 W/m 7,6 C 2,8 C 27,4 km/h (4 Bft)
17.02.2023 10:11 8,5 C 8,3 C 94 % 1024,5 hPa 0,0 l/m 17,7 km/h (3 Bft) S 180 0 min 0,0 UV-I 38 W/m 7,6 C 2,2 C 29,0 km/h (5 Bft)
17.02.2023 10:12 8,5 C 8,3 C 94 % 1024,6 hPa 0,0 l/m 17,7 km/h (3 Bft) S-SW 202 0 min 0,0 UV-I 40 W/m 7,6 C 2,2 C 25,7 km/h (4 Bft)
17.02.2023 10:13 8,5 C 8,3 C 94 % 1024,6 hPa 0,0 l/m 19,3 km/h (3 Bft) S-SW 202 0 min 0,0 UV-I 49 W/m 7,6 C 1,6 C 27,4 km/h (4 Bft)
17.02.2023 10:14 8,6 C 8,3 C 94 % 1024,6 hPa 0,0 l/m 17,7 km/h (3 Bft) S-SW 202 0 min 0,0 UV-I 53 W/m 7,7 C 2,3 C 25,7 km/h (4 Bft)
17.02.2023 10:15 8,6 C 8,3 C 94 % 1024,6 hPa 0,0 l/m 17,7 km/h (3 Bft) S-SW 202 0 min 0,0 UV-I 58 W/m 7,7 C 2,3 C 27,4 km/h (4 Bft)
17.02.2023 10:16 8,6 C 8,3 C 94 % 1024,7 hPa 0,0 l/m 20,9 km/h (4 Bft) S-SW 202 0 min 0,0 UV-I 62 W/m 7,7 C 1,2 C 32,2 km/h (5 Bft)
17.02.2023 10:17 8,6 C 8,3 C 94 % 1024,7 hPa 0,0 l/m 16,1 km/h (3 Bft) S 180 0 min 0,0 UV-I 50 W/m 7,7 C 3,0 C 25,7 km/h (4 Bft)
17.02.2023 10:18 8,6 C 8,3 C 94 % 1024,6 hPa 0,0 l/m 17,7 km/h (3 Bft) S 180 0 min 0,0 UV-I 53 W/m 7,7 C 2,3 C 22,5 km/h (4 Bft)
17.02.2023 10:19 8,6 C 8,3 C 94 % 1024,7 hPa 0,0 l/m 20,9 km/h (4 Bft) S-SW 202 0 min 0,0 UV-I 47 W/m 7,7 C 1,2 C 25,7 km/h (4 Bft)
17.02.2023 10:20 8,6 C 8,3 C 94 % 1024,7 hPa 0,0 l/m 19,3 km/h (3 Bft) S-SW 202 0 min 0,0 UV-I 40 W/m 7,7 C 1,7 C 30,6 km/h (5 Bft)
17.02.2023 10:21 8,6 C 8,3 C 94 % 1024,8 hPa 0,0 l/m 14,5 km/h (3 Bft) S-SW 202 0 min 0,0 UV-I 39 W/m 7,7 C 3,7 C 20,9 km/h (4 Bft)
17.02.2023 10:22 8,6 C 8,3 C 94 % 1024,7 hPa 0,0 l/m 17,7 km/h (3 Bft) S-SW 202 0 min 0,0 UV-I 47 W/m 7,7 C 2,3 C 30,6 km/h (5 Bft)
17.02.2023 10:23 8,6 C 8,3 C 94 % 1024,7 hPa 0,0 l/m 17,7 km/h (3 Bft) S-SW 202 0 min 0,0 UV-I 54 W/m 7,7 C 2,3 C 24,1 km/h (4 Bft)
17.02.2023 10:24 8,6 C 8,3 C 94 % 1024,7 hPa 0,0 l/m 14,5 km/h (3 Bft) S-SW 202 0 min 0,0 UV-I 63 W/m 7,7 C 3,7 C 19,3 km/h (3 Bft)
17.02.2023 10:25 8,6 C 8,3 C 94 % 1024,7 hPa 0,0 l/m 11,3 km/h (2 Bft) S 180 0 min 0,0 UV-I 60 W/m 7,7 C 5,3 C 17,7 km/h (3 Bft)
17.02.2023 10:26 8,6 C 8,3 C 94 % 1024,7 hPa 0,0 l/m 16,1 km/h (3 Bft) S-SW 202 0 min 0,0 UV-I 49 W/m 7,7 C 3,0 C 22,5 km/h (4 Bft)
17.02.2023 10:27 8,6 C 8,3 C 94 % 1024,8 hPa 0,0 l/m 16,1 km/h (3 Bft) S-SW 202 0 min 0,0 UV-I 54 W/m 7,7 C 3,0 C 22,5 km/h (4 Bft)
17.02.2023 10:28 8,6 C 8,3 C 94 % 1024,8 hPa 0,0 l/m 19,3 km/h (3 Bft) S-SW 202 0 min 0,0 UV-I 54 W/m 7,7 C 1,7 C 25,7 km/h (4 Bft)
17.02.2023 10:29 8,7 C 8,3 C 94 % 1024,9 hPa 0,0 l/m 20,9 km/h (4 Bft) S 180 0 min 0,0 UV-I 49 W/m 7,8 C 1,3 C 29,0 km/h (5 Bft)
17.02.2023 10:30 8,7 C 8,3 C 94 % 1025,1 hPa 0,0 l/m 20,9 km/h (4 Bft) S-SW 202 0 min 0,0 UV-I 46 W/m 7,8 C 1,3 C 29,0 km/h (5 Bft)
17.02.2023 10:31 8,7 C 8,3 C 94 % 1024,8 hPa 0,0 l/m 14,5 km/h (3 Bft) S-SW 202 0 min 0,0 UV-I 40 W/m 7,8 C 3,8 C 17,7 km/h (3 Bft)
17.02.2023 10:32 8,7 C 8,3 C 94 % 1024,8 hPa 0,0 l/m 16,1 km/h (3 Bft) S-SW 202 0 min 0,0 UV-I 42 W/m 7,8 C 3,1 C 24,1 km/h (4 Bft)
17.02.2023 10:33 8,7 C 8,3 C 94 % 1024,7 hPa 0,0 l/m 17,7 km/h (3 Bft) S-SW 202 0 min 0,0 UV-I 53 W/m 7,8 C 2,4 C 25,7 km/h (4 Bft)
17.02.2023 10:34 8,7 C 8,3 C 94 % 1024,7 hPa 0,0 l/m 20,9 km/h (4 Bft) S-SW 202 0 min 0,0 UV-I 61 W/m 7,8 C 1,3 C 30,6 km/h (5 Bft)
17.02.2023 10:35 8,7 C 8,3 C 94 % 1024,7 hPa 0,0 l/m 19,3 km/h (3 Bft) S-SW 202 0 min 0,0 UV-I 56 W/m 7,8 C 1,9 C 29,0 km/h (5 Bft)
17.02.2023 10:36 8,7 C 8,3 C 94 % 1024,7 hPa 0,0 l/m 20,9 km/h (4 Bft) S-SW 202 0 min 0,0 UV-I 54 W/m 7,8 C 1,3 C 27,4 km/h (4 Bft)
17.02.2023 10:37 8,7 C 8,3 C 94 % 1024,8 hPa 0,0 l/m 17,7 km/h (3 Bft) S-SW 202 0 min 0,0 UV-I 53 W/m 7,8 C 2,4 C 25,7 km/h (4 Bft)
17.02.2023 10:38 8,7 C 8,3 C 94 % 1024,7 hPa 0,0 l/m 20,9 km/h (4 Bft) S-SW 202 0 min 0,0 UV-I 49 W/m 7,8 C 1,3 C 30,6 km/h (5 Bft)
17.02.2023 10:39 8,7 C 8,3 C 94 % 1024,7 hPa 0,0 l/m 16,1 km/h (3 Bft) S-SW 202 0 min 0,0 UV-I 77 W/m 7,8 C 3,1 C 22,5 km/h (4 Bft)
17.02.2023 10:40 8,7 C 8,3 C 94 % 1024,8 hPa 0,0 l/m 19,3 km/h (3 Bft) S-SW 202 0 min 0,0 UV-I 53 W/m 7,8 C 1,9 C 24,1 km/h (4 Bft)
17.02.2023 10:41 8,7 C 8,3 C 94 % 1024,8 hPa 0,0 l/m 17,7 km/h (3 Bft) S 180 0 min 0,0 UV-I 60 W/m 7,8 C 2,4 C 33,8 km/h (5 Bft)
17.02.2023 10:42 8,8 C 8,3 C 94 % 1024,8 hPa 0,0 l/m 17,7 km/h (3 Bft) S 180 0 min 0,0 UV-I 51 W/m 7,9 C 2,6 C 27,4 km/h (4 Bft)
17.02.2023 10:43 8,8 C 8,3 C 94 % 1024,7 hPa 0,0 l/m 19,3 km/h (3 Bft) S-SW 202 0 min 0,0 UV-I 53 W/m 7,9 C 2,0 C 29,0 km/h (5 Bft)
17.02.2023 10:44 8,8 C 8,3 C 94 % 1024,7 hPa 0,0 l/m 22,5 km/h (4 Bft) S-SW 202 0 min 0,0 UV-I 54 W/m 7,9 C 0,9 C 32,2 km/h (5 Bft)
17.02.2023 10:45 8,8 C 8,3 C 94 % 1024,7 hPa 0,0 l/m 19,3 km/h (3 Bft) S-SW 202 0 min 0,0 UV-I 44 W/m 7,9 C 2,0 C 25,7 km/h (4 Bft)
17.02.2023 10:46 8,8 C 8,3 C 94 % 1024,6 hPa 0,0 l/m 17,7 km/h (3 Bft) S-SW 202 0 min 0,0 UV-I 45 W/m 7,9 C 2,6 C 22,5 km/h (4 Bft)
17.02.2023 10:47 8,8 C 8,3 C 94 % 1024,7 hPa 0,0 l/m 22,5 km/h (4 Bft) S-SW 202 0 min 0,0 UV-I 49 W/m 7,9 C 0,9 C 32,2 km/h (5 Bft)
17.02.2023 10:48 8,8 C 8,3 C 94 % 1024,7 hPa 0,0 l/m 19,3 km/h (3 Bft) S-SW 202 0 min 0,0 UV-I 46 W/m 7,9 C 2,0 C 25,7 km/h (4 Bft)
17.02.2023 10:49 8,8 C 8,3 C 94 % 1024,7 hPa 0,0 l/m 19,3 km/h (3 Bft) S-SW 202 0 min 0,0 UV-I 47 W/m 7,9 C 2,0 C 27,4 km/h (4 Bft)
17.02.2023 10:50 8,8 C 8,3 C 94 % 1024,6 hPa 0,0 l/m 14,5 km/h (3 Bft) S-SW 202 0 min 0,0 UV-I 53 W/m 7,9 C 3,9 C 20,9 km/h (4 Bft)
17.02.2023 10:54 8,8 C 8,9 C 94 % 1024,8 hPa 0,0 l/m 19,9 km/h (4 Bft) S-SW 196 0 min 0,0 UV-I 54 W/m 7,9 C 1,8 C 30,6 km/h (5 Bft)
17.02.2023 10:57 8,9 C 8,9 C 94 % 1024,7 hPa 0,0 l/m 21,5 km/h (4 Bft) S 175 0 min 0,6 UV-I 110 W/m 8,0 C 1,4 C 38,6 km/h (5 Bft)
17.02.2023 11:00 8,9 C 8,9 C 94 % 1024,9 hPa 0,0 l/m 20,9 km/h (4 Bft) SW 231 0 min 0,0 UV-I 79 W/m 8,0 C 1,6 C 33,8 km/h (5 Bft)
17.02.2023 11:03 9,0 C 8,9 C 94 % 1024,9 hPa 0,0 l/m 24,0 km/h (4 Bft) S-SW 204 0 min 0,0 UV-I 76 W/m 8,1 C 0,8 C 35,4 km/h (5 Bft)
17.02.2023 11:06 9,0 C 8,9 C 94 % 1024,8 hPa 0,0 l/m 19,8 km/h (3 Bft) S-SW 203 0 min 0,2 UV-I 73 W/m 8,1 C 2,1 C 30,6 km/h (5 Bft)
17.02.2023 11:09 9,1 C 8,9 C 94 % 1024,8 hPa 0,0 l/m 22,8 km/h (4 Bft) S-SW 198 0 min 0,6 UV-I 105 W/m 8,2 C 1,2 C 32,2 km/h (5 Bft)
17.02.2023 11:12 9,2 C 9,4 C 94 % 1024,8 hPa 0,0 l/m 20,9 km/h (4 Bft) S 188 0 min 0,7 UV-I 128 W/m 8,3 C 2,0 C 32,2 km/h (5 Bft)
17.02.2023 11:15 9,2 C 8,9 C 94 % 1024,7 hPa 0,0 l/m 25,5 km/h (4 Bft) S 191 0 min 0,2 UV-I 69 W/m 8,3 C 0,6 C 35,4 km/h (5 Bft)
17.02.2023 11:18 9,1 C 8,9 C 94 % 1024,7 hPa 0,0 l/m 19,6 km/h (3 Bft) W-SW 237 0 min 0,0 UV-I 59 W/m 8,2 C 2,3 C 37,0 km/h (5 Bft)
17.02.2023 11:21 9,1 C 8,9 C 94 % 1024,6 hPa 0,0 l/m 21,7 km/h (4 Bft) S 191 0 min 0,6 UV-I 80 W/m 8,2 C 1,6 C 40,2 km/h (6 Bft)
17.02.2023 11:24 9,2 C 8,9 C 94 % 1024,4 hPa 0,0 l/m 27,2 km/h (4 Bft) S-SW 194 0 min 0,7 UV-I 108 W/m 8,3 C 0,2 C 38,6 km/h (5 Bft)
17.02.2023 11:27 9,2 C 8,9 C 94 % 1024,6 hPa 0,0 l/m 25,6 km/h (4 Bft) S-SW 198 0 min 0,7 UV-I 103 W/m 8,3 C 0,6 C 37,0 km/h (5 Bft)
17.02.2023 11:30 9,3 C 9,4 C 94 % 1024,7 hPa 0,0 l/m 20,5 km/h (4 Bft) SW 221 0 min 0,6 UV-I 98 W/m 8,4 C 2,2 C 30,6 km/h (5 Bft)
17.02.2023 11:33 9,3 C 8,9 C 94 % 1024,5 hPa 0,0 l/m 23,6 km/h (4 Bft) S-SW 213 0 min 0,5 UV-I 70 W/m 8,4 C 1,3 C 37,0 km/h (5 Bft)
17.02.2023 11:36 9,3 C 9,4 C 94 % 1024,3 hPa 0,0 l/m 22,9 km/h (4 Bft) S 174 0 min 0,6 UV-I 95 W/m 8,4 C 1,5 C 35,4 km/h (5 Bft)
17.02.2023 11:39 9,3 C 8,9 C 93 % 1024,5 hPa 0,0 l/m 25,7 km/h (4 Bft) W-SW 255 0 min 0,6 UV-I 77 W/m 8,2 C 0,7 C 38,6 km/h (5 Bft)
17.02.2023 11:42 9,4 C 8,9 C 94 % 1024,5 hPa 0,0 l/m 26,9 km/h (4 Bft) SW 214 0 min 0,6 UV-I 80 W/m 8,5 C 0,5 C 35,4 km/h (5 Bft)
17.02.2023 11:45 9,4 C 9,4 C 93 % 1024,6 hPa 0,0 l/m 28,9 km/h (5 Bft) S-SW 194 0 min 0,8 UV-I 108 W/m 8,3 C 0,1 C 43,5 km/h (6 Bft)
17.02.2023 11:48 9,4 C 9,4 C 93 % 1024,5 hPa 0,0 l/m 24,9 km/h (4 Bft) S-SW 199 0 min 0,4 UV-I 65 W/m 8,3 C 1,0 C 35,4 km/h (5 Bft)
17.02.2023 11:51 9,4 C 9,4 C 93 % 1024,7 hPa 0,0 l/m 25,9 km/h (4 Bft) S 190 0 min 0,5 UV-I 79 W/m 8,3 C 0,8 C 38,6 km/h (5 Bft)
17.02.2023 11:54 9,5 C 8,9 C 93 % 1024,6 hPa 0,0 l/m 22,4 km/h (4 Bft) W-SW 237 0 min 0,0 UV-I 51 W/m 8,4 C 1,9 C 40,2 km/h (6 Bft)
17.02.2023 11:57 9,5 C 9,4 C 93 % 1024,7 hPa 0,0 l/m 22,2 km/h (4 Bft) SW 228 0 min 0,4 UV-I 79 W/m 8,4 C 1,9 C 32,2 km/h (5 Bft)
17.02.2023 12:00 9,6 C 9,4 C 93 % 1024,5 hPa 0,0 l/m 24,1 km/h (4 Bft) S-SW 213 0 min 0,7 UV-I 106 W/m 8,5 C 1,5 C 35,4 km/h (5 Bft)
17.02.2023 12:03 9,7 C 9,4 C 93 % 1024,4 hPa 0,0 l/m 21,8 km/h (4 Bft) S 186 0 min 0,7 UV-I 125 W/m 8,6 C 2,3 C 32,2 km/h (5 Bft)
17.02.2023 12:06 9,7 C 10,0 C 93 % 1024,4 hPa 0,0 l/m 24,3 km/h (4 Bft) S 188 0 min 0,9 UV-I 158 W/m 8,6 C 1,6 C 38,6 km/h (5 Bft)
17.02.2023 12:09 9,8 C 9,4 C 92 % 1024,4 hPa 0,0 l/m 22,6 km/h (4 Bft) S-SW 194 0 min 0,6 UV-I 94 W/m 8,6 C 2,2 C 32,2 km/h (5 Bft)
17.02.2023 12:12 9,8 C 9,4 C 92 % 1024,6 hPa 0,0 l/m 22,0 km/h (4 Bft) SW 217 0 min 0,8 UV-I 124 W/m 8,6 C 2,4 C 40,2 km/h (6 Bft)
17.02.2023 12:15 9,9 C 10,0 C 92 % 1024,5 hPa 0,0 l/m 20,1 km/h (4 Bft) SW 234 0 min 0,9 UV-I 142 W/m 8,7 C 3,1 C 29,0 km/h (5 Bft)
17.02.2023 12:18 9,9 C 10,0 C 92 % 1024,6 hPa 0,0 l/m 26,0 km/h (4 Bft) S-SW 192 0 min 0,8 UV-I 145 W/m 8,7 C 1,4 C 35,4 km/h (5 Bft)
17.02.2023 12:21 9,9 C 10,0 C 92 % 1024,7 hPa 0,0 l/m 21,1 km/h (4 Bft) S-SW 200 0 min 0,7 UV-I 114 W/m 8,7 C 2,8 C 41,8 km/h (6 Bft)
17.02.2023 12:24 10,0 C 10,0 C 92 % 1025,0 hPa 0,0 l/m 21,5 km/h (4 Bft) S-SW 194 0 min 0,8 UV-I 146 W/m 8,8 C 2,8 C 32,2 km/h (5 Bft)
17.02.2023 12:27 9,9 C 10,0 C 92 % 1024,7 hPa 0,0 l/m 23,0 km/h (4 Bft) SW 229 0 min 0,5 UV-I 93 W/m 8,7 C 2,2 C 41,8 km/h (6 Bft)
17.02.2023 12:30 10,0 C 10,0 C 91 % 1024,6 hPa 0,0 l/m 20,6 km/h (4 Bft) S-SW 196 0 min 0,6 UV-I 100 W/m 8,6 C 3,1 C 30,6 km/h (5 Bft)
17.02.2023 12:33 10,0 C 10,0 C 91 % 1024,6 hPa 0,0 l/m 23,6 km/h (4 Bft) S 187 0 min 0,5 UV-I 94 W/m 8,6 C 2,2 C 35,4 km/h (5 Bft)
17.02.2023 12:36 10,1 C 10,0 C 91 % 1024,6 hPa 0,0 l/m 22,0 km/h (4 Bft) S-SW 192 0 min 0,7 UV-I 117 W/m 8,7 C 2,8 C 32,2 km/h (5 Bft)
17.02.2023 12:39 10,1 C 10,0 C 91 % 1024,5 hPa 0,0 l/m 22,4 km/h (4 Bft) S-SW 211 0 min 0,2 UV-I 74 W/m 8,7 C 2,7 C 35,4 km/h (5 Bft)
17.02.2023 12:42 10,1 C 9,4 C 91 % 1024,6 hPa 0,0 l/m 22,6 km/h (4 Bft) SW 225 0 min 0,0 UV-I 62 W/m 8,7 C 2,6 C 35,4 km/h (5 Bft)
17.02.2023 12:45 10,1 C 10,0 C 91 % 1024,4 hPa 0,0 l/m 20,5 km/h (4 Bft) S-SW 196 0 min 0,3 UV-I 70 W/m 8,7 C 3,3 C 30,6 km/h (5 Bft)
17.02.2023 12:48 10,2 C 10,0 C 91 % 1024,4 hPa 0,0 l/m 19,6 km/h (3 Bft) SW 219 0 min 0,2 UV-I 66 W/m 8,8 C 3,7 C 35,4 km/h (5 Bft)
17.02.2023 12:51 10,2 C 9,4 C 91 % 1024,4 hPa 0,0 l/m 25,5 km/h (4 Bft) S 181 0 min 0,0 UV-I 63 W/m 8,8 C 2,0 C 35,4 km/h (5 Bft)
17.02.2023 12:54 10,2 C 10,0 C 91 % 1024,4 hPa 0,0 l/m 22,2 km/h (4 Bft) S-SW 194 0 min 0,6 UV-I 89 W/m 8,8 C 2,9 C 30,6 km/h (5 Bft)
17.02.2023 12:57 10,3 C 10,0 C 91 % 1024,4 hPa 0,0 l/m 17,1 km/h (3 Bft) S-SW 198 0 min 0,5 UV-I 95 W/m 8,9 C 4,7 C 27,4 km/h (4 Bft)
17.02.2023 13:00 10,3 C 10,0 C 91 % 1024,3 hPa 0,0 l/m 21,8 km/h (4 Bft) SW 236 0 min 0,3 UV-I 84 W/m 8,9 C 3,1 C 35,4 km/h (5 Bft)
17.02.2023 13:03 10,3 C 10,0 C 91 % 1024,3 hPa 0,0 l/m 16,7 km/h (3 Bft) SW 221 0 min 0,4 UV-I 89 W/m 8,9 C 4,8 C 25,7 km/h (4 Bft)
17.02.2023 13:06 10,4 C 10,0 C 90 % 1024,3 hPa 0,0 l/m 18,7 km/h (3 Bft) S-SW 205 0 min 0,4 UV-I 84 W/m 8,8 C 4,2 C 32,2 km/h (5 Bft)
17.02.2023 13:09 10,4 C 10,0 C 90 % 1024,3 hPa 0,0 l/m 18,9 km/h (3 Bft) S-SW 208 0 min 0,6 UV-I 101 W/m 8,8 C 4,2 C 29,0 km/h (5 Bft)
17.02.2023 13:12 10,5 C 10,0 C 90 % 1024,1 hPa 0,0 l/m 21,4 km/h (4 Bft) SW 218 0 min 0,4 UV-I 84 W/m 8,9 C 3,5 C 37,0 km/h (5 Bft)
17.02.2023 13:15 10,5 C 10,0 C 90 % 1024,4 hPa 0,0 l/m 20,9 km/h (4 Bft) S-SW 192 0 min 0,2 UV-I 76 W/m 8,9 C 3,7 C 33,8 km/h (5 Bft)
17.02.2023 13:18 10,6 C 10,6 C 90 % 1024,1 hPa 0,0 l/m 21,3 km/h (4 Bft) S-SW 197 0 min 0,5 UV-I 107 W/m 9,0 C 3,7 C 35,4 km/h (5 Bft)
17.02.2023 13:21 10,6 C 10,0 C 90 % 1024,0 hPa 0,0 l/m 24,2 km/h (4 Bft) S 175 0 min 0,3 UV-I 73 W/m 9,0 C 2,9 C 33,8 km/h (5 Bft)
17.02.2023 13:24 10,7 C 10,6 C 90 % 1024,0 hPa 0,0 l/m 19,8 km/h (3 Bft) S-SW 200 0 min 0,7 UV-I 111 W/m 9,1 C 4,3 C 35,4 km/h (5 Bft)
17.02.2023 13:27 10,7 C 10,6 C 90 % 1024,0 hPa 0,0 l/m 23,6 km/h (4 Bft) S 186 0 min 0,2 UV-I 82 W/m 9,1 C 3,1 C 38,6 km/h (5 Bft)
17.02.2023 13:30 10,7 C 10,6 C 90 % 1024,1 hPa 0,0 l/m 21,1 km/h (4 Bft) S-SW 198 0 min 0,1 UV-I 71 W/m 9,1 C 3,9 C 33,8 km/h (5 Bft)
17.02.2023 13:33 10,7 C 10,6 C 89 % 1024,1 hPa 0,0 l/m 20,5 km/h (4 Bft) S-SW 196 0 min 0,1 UV-I 69 W/m 9,0 C 4,0 C 30,6 km/h (5 Bft)
17.02.2023 13:36 10,7 C 10,0 C 89 % 1024,1 hPa 0,0 l/m 19,2 km/h (3 Bft) S-SW 194 0 min 0,1 UV-I 63 W/m 9,0 C 4,4 C 30,6 km/h (5 Bft)
17.02.2023 13:39 10,7 C 10,6 C 89 % 1024,2 hPa 0,0 l/m 16,1 km/h (3 Bft) SW 225 0 min 0,0 UV-I 60 W/m 9,0 C 5,5 C 27,4 km/h (4 Bft)
17.02.2023 13:42 10,7 C 10,6 C 89 % 1024,1 hPa 0,0 l/m 17,5 km/h (3 Bft) S-SW 202 0 min 0,0 UV-I 65 W/m 9,0 C 5,0 C 29,0 km/h (5 Bft)
17.02.2023 13:45 10,7 C 10,6 C 89 % 1024,1 hPa 0,0 l/m 17,3 km/h (3 Bft) S-SW 200 0 min 0,0 UV-I 61 W/m 9,0 C 5,1 C 29,0 km/h (5 Bft)
17.02.2023 13:48 10,8 C 10,6 C 89 % 1024,1 hPa 0,0 l/m 17,2 km/h (3 Bft) SW 224 0 min 0,0 UV-I 63 W/m 9,1 C 5,3 C 29,0 km/h (5 Bft)
17.02.2023 13:51 10,8 C 10,6 C 89 % 1024,0 hPa 0,0 l/m 17,9 km/h (3 Bft) S-SW 203 0 min 0,0 UV-I 64 W/m 9,1 C 5,0 C 27,4 km/h (4 Bft)
17.02.2023 13:54 10,8 C 10,6 C 89 % 1023,9 hPa 0,0 l/m 18,9 km/h (3 Bft) S-SW 211 0 min 0,0 UV-I 44 W/m 9,1 C 4,7 C 30,6 km/h (5 Bft)
17.02.2023 13:57 10,8 C 10,6 C 89 % 1023,8 hPa 0,0 l/m 17,8 km/h (3 Bft) S-SW 194 0 min 0,0 UV-I 52 W/m 9,1 C 5,0 C 37,0 km/h (5 Bft)
17.02.2023 14:00 10,8 C 10,6 C 89 % 1023,7 hPa 0,0 l/m 21,8 km/h (4 Bft) SW 227 0 min 0,0 UV-I 62 W/m 9,1 C 3,8 C 32,2 km/h (5 Bft)
17.02.2023 14:03 10,8 C 10,6 C 89 % 1023,8 hPa 0,0 l/m 21,6 km/h (4 Bft) S-SW 193 0 min 0,1 UV-I 53 W/m 9,1 C 3,8 C 45,1 km/h (6 Bft)
17.02.2023 14:06 10,8 C 10,6 C 89 % 1023,9 hPa 0,0 l/m 18,8 km/h (3 Bft) S 190 0 min 0,2 UV-I 68 W/m 9,1 C 4,7 C 29,0 km/h (5 Bft)
17.02.2023 14:09 10,8 C 11,1 C 89 % 1023,6 hPa 0,0 l/m 17,2 km/h (3 Bft) S 170 0 min 0,4 UV-I 87 W/m 9,1 C 5,3 C 35,4 km/h (5 Bft)
17.02.2023 14:12 10,9 C 11,1 C 89 % 1023,5 hPa 0,0 l/m 18,0 km/h (3 Bft) S-SW 208 0 min 0,6 UV-I 90 W/m 9,2 C 5,1 C 27,4 km/h (4 Bft)
17.02.2023 14:15 10,9 C 11,1 C 89 % 1023,5 hPa 0,0 l/m 23,6 km/h (4 Bft) S-SW 200 0 min 0,7 UV-I 137 W/m 9,2 C 3,4 C 38,6 km/h (5 Bft)
17.02.2023 14:18 11,0 C 11,1 C 89 % 1023,5 hPa 0,0 l/m 21,3 km/h (4 Bft) S-SW 204 0 min 0,7 UV-I 114 W/m 9,3 C 4,2 C 32,2 km/h (5 Bft)
17.02.2023 14:21 11,1 C 11,1 C 89 % 1023,5 hPa 0,0 l/m 22,6 km/h (4 Bft) S 177 0 min 0,6 UV-I 90 W/m 9,4 C 3,9 C 29,0 km/h (5 Bft)
17.02.2023 14:24 11,1 C 11,1 C 89 % 1023,5 hPa 0,0 l/m 20,0 km/h (4 Bft) SW 235 0 min 0,7 UV-I 121 W/m 9,4 C 4,7 C 38,6 km/h (5 Bft)
17.02.2023 14:27 11,1 C 11,7 C 89 % 1023,5 hPa 0,0 l/m 20,6 km/h (4 Bft) S-SW 204 0 min 0,8 UV-I 146 W/m 9,4 C 4,5 C 33,8 km/h (5 Bft)
17.02.2023 14:30 11,2 C 11,7 C 89 % 1023,4 hPa 0,0 l/m 20,9 km/h (4 Bft) S-SW 207 0 min 0,9 UV-I 147 W/m 9,5 C 4,6 C 32,2 km/h (5 Bft)
17.02.2023 14:33 11,2 C 11,7 C 88 % 1023,4 hPa 0,0 l/m 24,6 km/h (4 Bft) S-SW 212 0 min 0,9 UV-I 136 W/m 9,3 C 3,6 C 45,1 km/h (6 Bft)
17.02.2023 14:36 11,3 C 12,2 C 88 % 1023,5 hPa 0,0 l/m 22,2 km/h (4 Bft) S 187 0 min 0,9 UV-I 178 W/m 9,4 C 4,3 C 32,2 km/h (5 Bft)
17.02.2023 14:39 11,4 C 12,2 C 88 % 1023,5 hPa 0,0 l/m 20,4 km/h (4 Bft) S-SW 194 0 min 0,9 UV-I 150 W/m 9,5 C 5,0 C 35,4 km/h (5 Bft)
17.02.2023 14:42 11,4 C 11,7 C 88 % 1023,4 hPa 0,0 l/m 24,0 km/h (4 Bft) S-SW 197 0 min 0,7 UV-I 132 W/m 9,5 C 4,0 C 38,6 km/h (5 Bft)
17.02.2023 14:45 11,4 C 11,7 C 88 % 1023,3 hPa 0,0 l/m 16,7 km/h (3 Bft) S 186 0 min 0,8 UV-I 132 W/m 9,5 C 6,2 C 29,0 km/h (5 Bft)
17.02.2023 14:48 11,4 C 12,8 C 87 % 1023,1 hPa 0,0 l/m 23,1 km/h (4 Bft) SW 214 0 min 1,1 UV-I 165 W/m 9,3 C 4,2 C 35,4 km/h (5 Bft)
17.02.2023 14:51 11,6 C 11,7 C 87 % 1023,2 hPa 0,0 l/m 24,4 km/h (4 Bft) S-SW 199 0 min 0,8 UV-I 129 W/m 9,5 C 4,1 C 40,2 km/h (6 Bft)
17.02.2023 14:54 11,6 C 11,7 C 87 % 1023,2 hPa 0,0 l/m 23,7 km/h (4 Bft) S-SW 196 0 min 0,8 UV-I 155 W/m 9,5 C 4,3 C 35,4 km/h (5 Bft)
17.02.2023 14:57 11,6 C 11,7 C 86 % 1023,3 hPa 0,0 l/m 22,7 km/h (4 Bft) S-SW 202 0 min 0,8 UV-I 138 W/m 9,3 C 4,6 C 38,6 km/h (5 Bft)
17.02.2023 15:00 11,5 C 11,7 C 86 % 1023,2 hPa 0,0 l/m 21,7 km/h (4 Bft) S-SW 207 0 min 0,7 UV-I 139 W/m 9,2 C 4,7 C 43,5 km/h (6 Bft)
17.02.2023 15:03 11,4 C 11,7 C 87 % 1023,2 hPa 0,0 l/m 18,1 km/h (3 Bft) S-SW 194 0 min 0,6 UV-I 105 W/m 9,3 C 5,7 C 37,0 km/h (5 Bft)
17.02.2023 15:06 11,4 C 11,7 C 87 % 1023,2 hPa 0,0 l/m 23,0 km/h (4 Bft) W-SW 258 0 min 0,6 UV-I 116 W/m 9,3 C 4,2 C 35,4 km/h (5 Bft)
17.02.2023 15:09 11,4 C 11,7 C 86 % 1023,1 hPa 0,0 l/m 25,0 km/h (4 Bft) S-SW 201 0 min 0,7 UV-I 120 W/m 9,1 C 3,7 C 33,8 km/h (5 Bft)
17.02.2023 15:12 11,4 C 11,7 C 86 % 1023,1 hPa 0,0 l/m 21,6 km/h (4 Bft) SW 234 0 min 0,8 UV-I 140 W/m 9,1 C 4,6 C 35,4 km/h (5 Bft)
17.02.2023 15:15 11,4 C 11,7 C 86 % 1023,1 hPa 0,0 l/m 22,2 km/h (4 Bft) S-SW 193 0 min 0,8 UV-I 145 W/m 9,1 C 4,5 C 33,8 km/h (5 Bft)
17.02.2023 15:18 11,5 C 12,2 C 86 % 1023,1 hPa 0,0 l/m 23,3 km/h (4 Bft) S-SW 211 0 min 0,7 UV-I 150 W/m 9,2 C 4,3 C 40,2 km/h (6 Bft)
17.02.2023 15:21 11,4 C 11,7 C 86 % 1023,1 hPa 0,0 l/m 20,8 km/h (4 Bft) SW 216 0 min 0,7 UV-I 134 W/m 9,1 C 4,9 C 33,8 km/h (5 Bft)
17.02.2023 15:24 11,4 C 11,7 C 86 % 1023,2 hPa 0,0 l/m 17,7 km/h (3 Bft) SW 216 0 min 0,6 UV-I 99 W/m 9,1 C 5,8 C 27,4 km/h (4 Bft)
17.02.2023 15:27 11,4 C 11,1 C 86 % 1023,1 hPa 0,0 l/m 17,7 km/h (3 Bft) SW 217 0 min 0,7 UV-I 110 W/m 9,1 C 5,8 C 27,4 km/h (4 Bft)
17.02.2023 15:30 11,3 C 11,1 C 86 % 1023,2 hPa 0,0 l/m 21,7 km/h (4 Bft) S-SW 208 0 min 0,6 UV-I 107 W/m 9,0 C 4,5 C 30,6 km/h (5 Bft)
17.02.2023 15:33 11,3 C 11,1 C 86 % 1023,4 hPa 0,0 l/m 21,7 km/h (4 Bft) S-SW 206 0 min 0,5 UV-I 102 W/m 9,0 C 4,5 C 40,2 km/h (6 Bft)
17.02.2023 15:36 11,3 C 11,1 C 86 % 1023,4 hPa 0,0 l/m 22,9 km/h (4 Bft) SW 225 0 min 0,6 UV-I 108 W/m 9,0 C 4,1 C 35,4 km/h (5 Bft)
17.02.2023 15:39 11,3 C 11,1 C 86 % 1023,5 hPa 0,0 l/m 19,3 km/h (3 Bft) S-SW 200 0 min 0,5 UV-I 96 W/m 9,0 C 5,2 C 35,4 km/h (5 Bft)
17.02.2023 15:42 11,3 C 11,7 C 86 % 1023,6 hPa 0,0 l/m 19,9 km/h (4 Bft) S 185 0 min 0,4 UV-I 108 W/m 9,0 C 5,0 C 33,8 km/h (5 Bft)
17.02.2023 15:45 11,4 C 11,1 C 86 % 1023,4 hPa 0,0 l/m 18,5 km/h (3 Bft) SW 229 0 min 0,4 UV-I 92 W/m 9,1 C 5,6 C 33,8 km/h (5 Bft)
17.02.2023 15:48 11,3 C 11,7 C 85 % 1023,5 hPa 0,0 l/m 17,9 km/h (3 Bft) S-SW 211 0 min 0,4 UV-I 98 W/m 8,9 C 5,6 C 30,6 km/h (5 Bft)
17.02.2023 15:51 11,4 C 11,1 C 84 % 1023,5 hPa 0,0 l/m 21,8 km/h (4 Bft) W-SW 239 0 min 0,4 UV-I 78 W/m 8,8 C 4,6 C 33,8 km/h (5 Bft)
17.02.2023 15:54 11,4 C 11,1 C 84 % 1023,6 hPa 0,0 l/m 14,8 km/h (3 Bft) SW 232 0 min 0,0 UV-I 83 W/m 8,8 C 6,9 C 29,0 km/h (5 Bft)
17.02.2023 15:57 11,4 C 11,1 C 83 % 1023,6 hPa 0,0 l/m 15,9 km/h (3 Bft) S-SW 210 0 min 0,0 UV-I 78 W/m 8,6 C 6,5 C 33,8 km/h (5 Bft)
17.02.2023 16:00 11,4 C 11,1 C 83 % 1023,7 hPa 0,0 l/m 18,9 km/h (3 Bft) W-SW 237 0 min 0,0 UV-I 75 W/m 8,6 C 5,4 C 32,2 km/h (5 Bft)
17.02.2023 16:03 11,4 C 11,1 C 83 % 1023,6 hPa 0,0 l/m 20,9 km/h (4 Bft) W 265 0 min 0,0 UV-I 75 W/m 8,6 C 4,8 C 32,2 km/h (5 Bft)
17.02.2023 16:06 11,4 C 11,1 C 83 % 1023,7 hPa 0,0 l/m 18,0 km/h (3 Bft) SW 224 0 min 0,0 UV-I 76 W/m 8,6 C 5,7 C 33,8 km/h (5 Bft)
17.02.2023 16:09 11,4 C 11,1 C 82 % 1023,5 hPa 0,0 l/m 17,1 km/h (3 Bft) S 175 0 min 0,0 UV-I 68 W/m 8,4 C 6,0 C 33,8 km/h (5 Bft)
17.02.2023 16:12 11,3 C 11,1 C 82 % 1023,6 hPa 0,0 l/m 20,0 km/h (4 Bft) S 186 0 min 0,0 UV-I 40 W/m 8,3 C 5,0 C 33,8 km/h (5 Bft)
17.02.2023 16:15 11,3 C 10,6 C 82 % 1023,6 hPa 0,0 l/m 17,6 km/h (3 Bft) W 262 0 min 0,0 UV-I 32 W/m 8,3 C 5,7 C 33,8 km/h (5 Bft)
17.02.2023 16:18 11,3 C 10,6 C 82 % 1023,7 hPa 0,0 l/m 22,0 km/h (4 Bft) S-SO 167 0 min 0,0 UV-I 25 W/m 8,3 C 4,4 C 40,2 km/h (6 Bft)
17.02.2023 16:21 11,3 C 10,6 C 82 % 1023,7 hPa 0,0 l/m 18,2 km/h (3 Bft) W-SW 237 0 min 0,0 UV-I 35 W/m 8,3 C 5,5 C 32,2 km/h (5 Bft)
17.02.2023 16:24 11,2 C 10,6 C 82 % 1023,7 hPa 0,0 l/m 14,0 km/h (3 Bft) W-SW 240 0 min 0,0 UV-I 41 W/m 8,2 C 7,0 C 25,7 km/h (4 Bft)
17.02.2023 16:27 11,2 C 11,1 C 82 % 1023,8 hPa 0,0 l/m 13,9 km/h (3 Bft) S-SW 196 0 min 0,0 UV-I 52 W/m 8,2 C 7,0 C 24,1 km/h (4 Bft)
17.02.2023 16:30 11,2 C 10,6 C 83 % 1023,9 hPa 0,0 l/m 14,1 km/h (3 Bft) S-SW 213 0 min 0,0 UV-I 51 W/m 8,4 C 7,0 C 32,2 km/h (5 Bft)
17.02.2023 16:33 11,2 C 10,6 C 83 % 1023,9 hPa 0,0 l/m 17,9 km/h (3 Bft) S-SW 196 0 min 0,0 UV-I 46 W/m 8,4 C 5,5 C 32,2 km/h (5 Bft)
17.02.2023 16:36 11,1 C 10,6 C 83 % 1023,7 hPa 0,0 l/m 17,1 km/h (3 Bft) S-SW 205 0 min 0,0 UV-I 51 W/m 8,3 C 5,7 C 29,0 km/h (5 Bft)
17.02.2023 16:39 11,1 C 10,6 C 83 % 1023,6 hPa 0,0 l/m 12,7 km/h (3 Bft) S-SW 192 0 min 0,0 UV-I 61 W/m 8,3 C 7,5 C 22,5 km/h (4 Bft)
17.02.2023 16:42 11,1 C 10,6 C 83 % 1023,5 hPa 0,0 l/m 20,0 km/h (4 Bft) S 188 0 min 0,0 UV-I 53 W/m 8,3 C 4,7 C 30,6 km/h (5 Bft)
17.02.2023 16:45 11,1 C 10,6 C 83 % 1023,4 hPa 0,0 l/m 19,7 km/h (3 Bft) W-SW 243 0 min 0,0 UV-I 64 W/m 8,3 C 4,8 C 30,6 km/h (5 Bft)
17.02.2023 16:48 11,1 C 10,6 C 82 % 1023,5 hPa 0,0 l/m 17,8 km/h (3 Bft) S-SW 202 0 min 0,0 UV-I 58 W/m 8,1 C 5,4 C 29,0 km/h (5 Bft)
17.02.2023 16:51 11,1 C 10,6 C 82 % 1023,6 hPa 0,0 l/m 17,8 km/h (3 Bft) SW 225 0 min 0,0 UV-I 61 W/m 8,1 C 5,4 C 32,2 km/h (5 Bft)
17.02.2023 16:54 11,1 C 10,6 C 82 % 1023,6 hPa 0,0 l/m 15,1 km/h (3 Bft) S 191 0 min 0,0 UV-I 53 W/m 8,1 C 6,4 C 29,0 km/h (5 Bft)
17.02.2023 16:57 11,1 C 10,6 C 82 % 1023,5 hPa 0,0 l/m 19,1 km/h (3 Bft) S-SW 194 0 min 0,0 UV-I 39 W/m 8,1 C 5,0 C 32,2 km/h (5 Bft)
17.02.2023 17:00 11,1 C 10,6 C 82 % 1023,5 hPa 0,0 l/m 17,5 km/h (3 Bft) SW 216 0 min 0,0 UV-I 29 W/m 8,1 C 5,5 C 27,4 km/h (4 Bft)
17.02.2023 17:03 11,1 C 10,6 C 82 % 1023,6 hPa 0,0 l/m 17,2 km/h (3 Bft) S 188 0 min 0,0 UV-I 21 W/m 8,1 C 5,6 C 27,4 km/h (4 Bft)
17.02.2023 17:06 11,1 C 10,6 C 82 % 1023,8 hPa 0,0 l/m 14,2 km/h (3 Bft) W-SW 247 0 min 0,0 UV-I 13 W/m 8,1 C 6,8 C 32,2 km/h (5 Bft)
17.02.2023 17:09 11,0 C 10,6 C 82 % 1023,9 hPa 0,0 l/m 13,6 km/h (3 Bft) SW 219 0 min 0,0 UV-I 9 W/m 8,0 C 6,9 C 30,6 km/h (5 Bft)
17.02.2023 17:12 10,9 C 10,6 C 82 % 1023,9 hPa 0,0 l/m 11,5 km/h (2 Bft) SW 223 0 min 0,0 UV-I 7 W/m 7,9 C 7,8 C 20,9 km/h (4 Bft)
17.02.2023 17:15 10,9 C 10,6 C 82 % 1023,9 hPa 0,0 l/m 11,9 km/h (2 Bft) W-SW 255 0 min 0,0 UV-I 5 W/m 7,9 C 7,6 C 22,5 km/h (4 Bft)
17.02.2023 17:18 10,9 C 10,0 C 82 % 1023,8 hPa 0,0 l/m 11,3 km/h (2 Bft) W 259 0 min 0,0 UV-I 1 W/m 7,9 C 7,9 C 17,7 km/h (3 Bft)
17.02.2023 17:21 10,9 C 10,0 C 82 % 1023,8 hPa 0,0 l/m 10,7 km/h (2 Bft) W-SW 245 0 min 0,0 UV-I 0 W/m 7,9 C 8,2 C 17,7 km/h (3 Bft)
17.02.2023 17:24 10,9 C 10,0 C 82 % 1024,0 hPa 0,0 l/m 10,3 km/h (2 Bft) S 190 0 min 0,0 UV-I 0 W/m 7,9 C 8,4 C 17,7 km/h (3 Bft)
17.02.2023 17:27 10,9 C 10,0 C 83 % 1024,1 hPa 0,0 l/m 12,9 km/h (3 Bft) S-SW 211 0 min 0,0 UV-I 0 W/m 8,1 C 7,1 C 27,4 km/h (4 Bft)
17.02.2023 17:30 10,9 C 10,0 C 83 % 1024,2 hPa 0,0 l/m 13,3 km/h (3 Bft) SW 219 0 min 0,0 UV-I 0 W/m 8,1 C 6,9 C 25,7 km/h (4 Bft)
17.02.2023 17:33 10,9 C 10,6 C 83 % 1024,1 hPa 0,0 l/m 13,5 km/h (3 Bft) SW 224 0 min 0,0 UV-I 0 W/m 8,1 C 6,9 C 22,5 km/h (4 Bft)
17.02.2023 17:36 10,8 C 10,0 C 83 % 1024,1 hPa 0,0 l/m 11,7 km/h (2 Bft) S-SW 211 0 min 0,0 UV-I 0 W/m 8,0 C 7,6 C 25,7 km/h (4 Bft)
17.02.2023 17:39 10,8 C 10,0 C 83 % 1024,1 hPa 0,0 l/m 12,1 km/h (2 Bft) W 271 0 min 0,0 UV-I 0 W/m 8,0 C 7,4 C 25,7 km/h (4 Bft)
17.02.2023 17:42 10,8 C 10,0 C 83 % 1024,1 hPa 0,0 l/m 10,6 km/h (2 Bft) SW 215 0 min 0,0 UV-I 0 W/m 8,0 C 8,2 C 25,7 km/h (4 Bft)
17.02.2023 17:45 10,8 C 10,0 C 84 % 1024,0 hPa 0,0 l/m 12,3 km/h (3 Bft) S 187 0 min 0,0 UV-I 0 W/m 8,2 C 7,3 C 25,7 km/h (4 Bft)
17.02.2023 17:48 10,7 C 9,4 C 84 % 1023,9 hPa 0,0 l/m 10,8 km/h (2 Bft) S-SW 209 0 min 0,0 UV-I 0 W/m 8,1 C 7,9 C 19,3 km/h (3 Bft)
17.02.2023 17:51 10,7 C 9,4 C 85 % 1023,9 hPa 0,0 l/m 12,5 km/h (3 Bft) W-SW 249 0 min 0,0 UV-I 0 W/m 8,3 C 7,1 C 25,7 km/h (4 Bft)
17.02.2023 17:54 10,6 C 9,4 C 85 % 1024,0 hPa 0,0 l/m 12,0 km/h (2 Bft) SW 216 0 min 0,0 UV-I 0 W/m 8,2 C 7,2 C 19,3 km/h (3 Bft)
17.02.2023 17:57 10,6 C 9,4 C 85 % 1024,1 hPa 0,0 l/m 13,3 km/h (3 Bft) SW 232 0 min 0,0 UV-I 0 W/m 8,2 C 6,6 C 29,0 km/h (5 Bft)
17.02.2023 18:00 10,6 C 9,4 C 85 % 1024,2 hPa 0,0 l/m 11,9 km/h (2 Bft) W-SW 244 0 min 0,0 UV-I 0 W/m 8,2 C 7,3 C 19,3 km/h (3 Bft)
17.02.2023 18:03 10,6 C 10,0 C 85 % 1024,2 hPa 0,0 l/m 9,3 km/h (2 Bft) W-SW 238 0 min 0,0 UV-I 0 W/m 8,2 C 8,7 C 22,5 km/h (4 Bft)
17.02.2023 18:06 10,6 C 10,0 C 85 % 1024,3 hPa 0,0 l/m 10,5 km/h (2 Bft) S-SW 212 0 min 0,0 UV-I 0 W/m 8,2 C 8,0 C 17,7 km/h (3 Bft)
17.02.2023 18:09 10,6 C 10,0 C 85 % 1024,3 hPa 0,0 l/m 12,1 km/h (2 Bft) SW 220 0 min 0,0 UV-I 0 W/m 8,2 C 7,2 C 22,5 km/h (4 Bft)
17.02.2023 18:12 10,7 C 10,0 C 85 % 1024,2 hPa 0,0 l/m 13,5 km/h (3 Bft) S 188 0 min 0,0 UV-I 0 W/m 8,3 C 6,6 C 25,7 km/h (4 Bft)
17.02.2023 18:15 10,6 C 10,0 C 85 % 1024,4 hPa 0,0 l/m 11,2 km/h (2 Bft) SW 236 0 min 0,0 UV-I 0 W/m 8,2 C 7,6 C 20,9 km/h (4 Bft)
17.02.2023 18:18 10,6 C 10,0 C 85 % 1024,4 hPa 0,0 l/m 9,6 km/h (2 Bft) W-SW 244 0 min 0,0 UV-I 0 W/m 8,2 C 8,5 C 22,5 km/h (4 Bft)
17.02.2023 18:21 10,6 C 10,0 C 86 % 1024,6 hPa 0,0 l/m 12,1 km/h (2 Bft) SW 228 0 min 0,0 UV-I 0 W/m 8,4 C 7,2 C 24,1 km/h (4 Bft)
17.02.2023 18:24 10,6 C 10,0 C 86 % 1024,6 hPa 0,0 l/m 11,3 km/h (2 Bft) W-SW 252 0 min 0,0 UV-I 0 W/m 8,4 C 7,6 C 22,5 km/h (4 Bft)
17.02.2023 18:27 10,6 C 9,4 C 86 % 1024,6 hPa 0,0 l/m 13,4 km/h (3 Bft) W 259 0 min 0,0 UV-I 0 W/m 8,4 C 6,5 C 27,4 km/h (4 Bft)
17.02.2023 18:30 10,6 C 9,4 C 86 % 1024,7 hPa 0,0 l/m 8,3 km/h (2 Bft) W-SW 256 0 min 0,0 UV-I 0 W/m 8,4 C 9,3 C 16,1 km/h (3 Bft)
17.02.2023 18:33 10,5 C 9,4 C 86 % 1024,8 hPa 0,0 l/m 8,6 km/h (2 Bft) W 267 0 min 0,0 UV-I 0 W/m 8,3 C 9,0 C 24,1 km/h (4 Bft)
17.02.2023 18:36 10,4 C 9,4 C 86 % 1025,0 hPa 0,0 l/m 14,5 km/h (3 Bft) W-SW 242 0 min 0,0 UV-I 0 W/m 8,2 C 5,8 C 24,1 km/h (4 Bft)
17.02.2023 18:39 10,4 C 9,4 C 87 % 1024,9 hPa 0,0 l/m 15,5 km/h (3 Bft) W-SW 246 0 min 0,0 UV-I 0 W/m 8,3 C 5,4 C 29,0 km/h (5 Bft)
17.02.2023 18:42 10,4 C 9,4 C 86 % 1025,0 hPa 0,0 l/m 12,9 km/h (3 Bft) W-SW 246 0 min 0,0 UV-I 0 W/m 8,2 C 6,5 C 19,3 km/h (3 Bft)
17.02.2023 18:45 10,4 C 9,4 C 86 % 1025,0 hPa 0,0 l/m 22,5 km/h (4 Bft) W 267 0 min 0,0 UV-I 0 W/m 8,2 C 3,0 C 38,6 km/h (5 Bft)
17.02.2023 18:48 10,4 C 9,4 C 87 % 1025,1 hPa 0,0 l/m 17,1 km/h (3 Bft) S-SW 199 0 min 0,0 UV-I 0 W/m 8,3 C 4,8 C 38,6 km/h (5 Bft)
17.02.2023 18:51 10,3 C 8,9 C 87 % 1025,1 hPa 0,0 l/m 15,2 km/h (3 Bft) W-SW 254 0 min 0,0 UV-I 0 W/m 8,2 C 5,4 C 32,2 km/h (5 Bft)
17.02.2023 18:54 10,2 C 8,9 C 87 % 1025,2 hPa 0,0 l/m 17,0 km/h (3 Bft) W 277 0 min 0,0 UV-I 0 W/m 8,1 C 4,6 C 25,7 km/h (4 Bft)
17.02.2023 18:57 10,1 C 8,9 C 88 % 1025,2 hPa 0,2 l/m 14,8 km/h (3 Bft) SW 235 0 min 0,0 UV-I 0 W/m 8,2 C 5,3 C 29,0 km/h (5 Bft)
17.02.2023 19:00 10,0 C 8,9 C 88 % 1025,4 hPa 0,0 l/m 13,6 km/h (3 Bft) S 177 0 min 0,0 UV-I 0 W/m 8,1 C 5,7 C 22,5 km/h (4 Bft)
17.02.2023 19:03 9,9 C 8,9 C 89 % 1025,3 hPa 0,0 l/m 7,7 km/h (2 Bft) SW 229 0 min 0,0 UV-I 0 W/m 8,2 C 9,0 C 16,1 km/h (3 Bft)
17.02.2023 19:06 9,8 C 8,9 C 89 % 1025,3 hPa 0,0 l/m 9,1 km/h (2 Bft) W-SW 246 0 min 0,0 UV-I 0 W/m 8,1 C 7,9 C 19,3 km/h (3 Bft)
17.02.2023 19:09 9,8 C 8,9 C 90 % 1025,4 hPa 0,0 l/m 6,6 km/h (2 Bft) SW 231 0 min 0,0 UV-I 0 W/m 8,2 C 9,7 C 14,5 km/h (3 Bft)
17.02.2023 19:12 9,7 C 8,9 C 90 % 1025,5 hPa 0,0 l/m 9,3 km/h (2 Bft) S-SW 198 0 min 0,0 UV-I 0 W/m 8,1 C 7,7 C 19,3 km/h (3 Bft)
17.02.2023 19:15 9,7 C 8,9 C 90 % 1025,4 hPa 0,2 l/m 6,8 km/h (2 Bft) W-SW 256 0 min 0,0 UV-I 0 W/m 8,1 C 9,4 C 14,5 km/h (3 Bft)
17.02.2023 19:18 9,6 C 8,9 C 90 % 1025,5 hPa 0,0 l/m 6,4 km/h (2 Bft) S-SW 202 0 min 0,0 UV-I 0 W/m 8,0 C 9,6 C 14,5 km/h (3 Bft)
17.02.2023 19:21 9,6 C 8,9 C 91 % 1025,6 hPa 0,0 l/m 5,6 km/h (1 Bft) SW 232 0 min 0,0 UV-I 0 W/m 8,2 C 9,6 C 11,3 km/h (2 Bft)
17.02.2023 19:24 9,6 C 8,9 C 91 % 1025,4 hPa 0,0 l/m 8,7 km/h (2 Bft) W-SW 242 0 min 0,0 UV-I 0 W/m 8,2 C 8,0 C 16,1 km/h (3 Bft)
17.02.2023 19:27 9,4 C 8,9 C 91 % 1025,6 hPa 0,0 l/m 12,0 km/h (2 Bft) SW 231 0 min 0,0 UV-I 0 W/m 8,0 C 5,8 C 24,1 km/h (4 Bft)
17.02.2023 19:30 9,4 C 8,3 C 91 % 1025,6 hPa 0,0 l/m 12,2 km/h (2 Bft) SW 235 0 min 0,0 UV-I 0 W/m 8,0 C 5,7 C 20,9 km/h (4 Bft)
17.02.2023 19:33 9,3 C 8,3 C 91 % 1025,7 hPa 0,0 l/m 13,1 km/h (3 Bft) W 263 0 min 0,0 UV-I 0 W/m 7,9 C 5,2 C 24,1 km/h (4 Bft)
17.02.2023 19:36 9,3 C 8,3 C 91 % 1025,7 hPa 0,0 l/m 13,2 km/h (3 Bft) W 261 0 min 0,0 UV-I 0 W/m 7,9 C 5,1 C 22,5 km/h (4 Bft)
17.02.2023 19:39 9,3 C 8,3 C 91 % 1025,7 hPa 0,0 l/m 12,5 km/h (3 Bft) S-SW 205 0 min 0,0 UV-I 0 W/m 7,9 C 5,5 C 22,5 km/h (4 Bft)
17.02.2023 19:42 9,2 C 8,3 C 91 % 1025,8 hPa 0,0 l/m 11,9 km/h (2 Bft) W-SW 253 0 min 0,0 UV-I 0 W/m 7,8 C 5,6 C 25,7 km/h (4 Bft)
17.02.2023 19:45 9,1 C 8,3 C 91 % 1025,8 hPa 0,0 l/m 14,0 km/h (3 Bft) W 279 0 min 0,0 UV-I 0 W/m 7,7 C 4,5 C 22,5 km/h (4 Bft)
17.02.2023 19:48 9,0 C 8,3 C 91 % 1025,8 hPa 0,0 l/m 14,9 km/h (3 Bft) W-SW 246 0 min 0,0 UV-I 0 W/m 7,6 C 4,0 C 33,8 km/h (5 Bft)
17.02.2023 19:51 8,9 C 8,3 C 91 % 1025,8 hPa 0,0 l/m 14,8 km/h (3 Bft) SW 223 0 min 0,0 UV-I 0 W/m 7,5 C 3,9 C 27,4 km/h (4 Bft)
17.02.2023 19:54 8,9 C 8,3 C 91 % 1025,8 hPa 0,0 l/m 11,3 km/h (2 Bft) W 265 0 min 0,0 UV-I 0 W/m 7,5 C 5,6 C 22,5 km/h (4 Bft)
17.02.2023 19:57 8,8 C 7,8 C 91 % 1025,7 hPa 0,0 l/m 18,1 km/h (3 Bft) S-SW 198 0 min 0,0 UV-I 0 W/m 7,4 C 2,4 C 30,6 km/h (5 Bft)
17.02.2023 20:00 8,7 C 7,8 C 91 % 1025,9 hPa 0,0 l/m 15,2 km/h (3 Bft) S 190 0 min 0,0 UV-I 0 W/m 7,3 C 3,5 C 27,4 km/h (4 Bft)
17.02.2023 20:03 8,7 C 7,8 C 91 % 1025,8 hPa 0,0 l/m 11,8 km/h (2 Bft) SW 215 0 min 0,0 UV-I 0 W/m 7,3 C 5,1 C 25,7 km/h (4 Bft)
17.02.2023 20:06 8,7 C 7,8 C 91 % 1026,0 hPa 0,0 l/m 10,7 km/h (2 Bft) W-SW 246 0 min 0,0 UV-I 0 W/m 7,3 C 5,7 C 27,4 km/h (4 Bft)
17.02.2023 20:09 8,6 C 7,8 C 91 % 1026,0 hPa 0,0 l/m 11,2 km/h (2 Bft) W 267 0 min 0,0 UV-I 0 W/m 7,2 C 5,3 C 19,3 km/h (3 Bft)
17.02.2023 20:12 8,6 C 7,8 C 92 % 1026,0 hPa 0,0 l/m 13,5 km/h (3 Bft) W-SW 247 0 min 0,0 UV-I 0 W/m 7,4 C 4,1 C 24,1 km/h (4 Bft)
17.02.2023 20:15 8,6 C 7,8 C 91 % 1026,0 hPa 0,0 l/m 9,6 km/h (2 Bft) SW 235 0 min 0,0 UV-I 0 W/m 7,2 C 6,3 C 19,3 km/h (3 Bft)
17.02.2023 20:18 8,6 C 7,8 C 92 % 1026,1 hPa 0,0 l/m 15,8 km/h (3 Bft) S-SW 205 0 min 0,0 UV-I 0 W/m 7,4 C 3,1 C 29,0 km/h (5 Bft)
17.02.2023 20:21 8,5 C 7,8 C 91 % 1026,0 hPa 0,2 l/m 13,8 km/h (3 Bft) SW 231 0 min 0,0 UV-I 0 W/m 7,1 C 3,9 C 25,7 km/h (4 Bft)
17.02.2023 20:24 8,4 C 7,8 C 92 % 1026,1 hPa 0,0 l/m 14,2 km/h (3 Bft) W-SW 240 0 min 0,0 UV-I 0 W/m 7,2 C 3,6 C 30,6 km/h (5 Bft)
17.02.2023 20:27 8,4 C 7,8 C 92 % 1026,0 hPa 0,0 l/m 12,8 km/h (3 Bft) S 173 0 min 0,0 UV-I 0 W/m 7,2 C 4,3 C 35,4 km/h (5 Bft)
17.02.2023 20:30 8,4 C 7,8 C 92 % 1026,2 hPa 0,0 l/m 12,9 km/h (3 Bft) W-SW 251 0 min 0,0 UV-I 0 W/m 7,2 C 4,2 C 25,7 km/h (4 Bft)
17.02.2023 20:33 8,4 C 7,8 C 92 % 1026,2 hPa 0,0 l/m 10,9 km/h (2 Bft) W-SW 244 0 min 0,0 UV-I 0 W/m 7,2 C 5,3 C 20,9 km/h (4 Bft)
17.02.2023 20:36 8,3 C 7,8 C 92 % 1026,3 hPa 0,0 l/m 14,4 km/h (3 Bft) SW 222 0 min 0,0 UV-I 0 W/m 7,1 C 3,4 C 27,4 km/h (4 Bft)
17.02.2023 20:39 8,3 C 7,8 C 92 % 1026,2 hPa 0,0 l/m 10,3 km/h (2 Bft) SW 223 0 min 0,0 UV-I 0 W/m 7,1 C 5,5 C 22,5 km/h (4 Bft)
17.02.2023 20:42 8,3 C 7,8 C 92 % 1026,2 hPa 0,0 l/m 12,3 km/h (3 Bft) W 265 0 min 0,0 UV-I 0 W/m 7,1 C 4,4 C 22,5 km/h (4 Bft)
17.02.2023 20:45 8,3 C 7,8 C 92 % 1026,2 hPa 0,0 l/m 10,4 km/h (2 Bft) S-SW 213 0 min 0,0 UV-I 0 W/m 7,1 C 5,5 C 19,3 km/h (3 Bft)
17.02.2023 20:48 8,3 C 7,8 C 92 % 1026,3 hPa 0,0 l/m 14,4 km/h (3 Bft) W-SW 248 0 min 0,0 UV-I 0 W/m 7,1 C 3,4 C 27,4 km/h (4 Bft)
17.02.2023 20:51 8,3 C 7,8 C 92 % 1026,2 hPa 0,0 l/m 9,5 km/h (2 Bft) SW 227 0 min 0,0 UV-I 0 W/m 7,1 C 6,0 C 20,9 km/h (4 Bft)
17.02.2023 20:54 8,3 C 7,8 C 92 % 1026,1 hPa 0,0 l/m 9,2 km/h (2 Bft) SW 228 0 min 0,0 UV-I 0 W/m 7,1 C 6,2 C 17,7 km/h (3 Bft)
17.02.2023 20:57 8,3 C 7,8 C 92 % 1026,2 hPa 0,0 l/m 10,0 km/h (2 Bft) W-SW 241 0 min 0,0 UV-I 0 W/m 7,1 C 5,7 C 20,9 km/h (4 Bft)
17.02.2023 21:00 8,3 C 7,8 C 92 % 1026,2 hPa 0,0 l/m 12,4 km/h (3 Bft) SW 227 0 min 0,0 UV-I 0 W/m 7,1 C 4,3 C 24,1 km/h (4 Bft)
17.02.2023 21:03 8,3 C 7,8 C 92 % 1026,2 hPa 0,0 l/m 10,7 km/h (2 Bft) SW 227 0 min 0,0 UV-I 0 W/m 7,1 C 5,3 C 16,1 km/h (3 Bft)
17.02.2023 21:06 8,3 C 7,8 C 92 % 1026,3 hPa 0,0 l/m 11,3 km/h (2 Bft) W-SW 240 0 min 0,0 UV-I 0 W/m 7,1 C 4,9 C 22,5 km/h (4 Bft)
17.02.2023 21:09 8,3 C 7,8 C 92 % 1026,4 hPa 0,0 l/m 8,0 km/h (2 Bft) W-SW 244 0 min 0,0 UV-I 0 W/m 7,1 C 7,1 C 17,7 km/h (3 Bft)
17.02.2023 21:12 8,3 C 7,8 C 92 % 1026,6 hPa 0,0 l/m 12,3 km/h (3 Bft) W 271 0 min 0,0 UV-I 0 W/m 7,1 C 4,4 C 24,1 km/h (4 Bft)
17.02.2023 21:15 8,4 C 7,8 C 92 % 1026,5 hPa 0,0 l/m 9,5 km/h (2 Bft) SW 229 0 min 0,0 UV-I 0 W/m 7,2 C 6,1 C 19,3 km/h (3 Bft)
17.02.2023 21:18 8,3 C 7,8 C 92 % 1026,4 hPa 0,0 l/m 15,0 km/h (3 Bft) W 279 0 min 0,0 UV-I 0 W/m 7,1 C 3,1 C 27,4 km/h (4 Bft)
17.02.2023 21:21 8,3 C 7,8 C 92 % 1026,5 hPa 0,0 l/m 12,7 km/h (3 Bft) SW 219 0 min 0,0 UV-I 0 W/m 7,1 C 4,2 C 25,7 km/h (4 Bft)
17.02.2023 21:24 8,3 C 7,8 C 92 % 1026,6 hPa 0,0 l/m 11,1 km/h (2 Bft) SW 229 0 min 0,0 UV-I 0 W/m 7,1 C 5,1 C 25,7 km/h (4 Bft)
17.02.2023 21:27 8,3 C 7,8 C 92 % 1026,5 hPa 0,0 l/m 7,9 km/h (2 Bft) S-SW 209 0 min 0,0 UV-I 0 W/m 7,1 C 7,1 C 16,1 km/h (3 Bft)
17.02.2023 21:30 8,3 C 7,8 C 92 % 1026,6 hPa 0,0 l/m 10,8 km/h (2 Bft) W-SW 244 0 min 0,0 UV-I 0 W/m 7,1 C 5,2 C 25,7 km/h (4 Bft)
17.02.2023 21:33 8,3 C 7,8 C 92 % 1026,6 hPa 0,0 l/m 8,6 km/h (2 Bft) SW 229 0 min 0,0 UV-I 0 W/m 7,1 C 6,6 C 16,1 km/h (3 Bft)
17.02.2023 21:36 8,3 C 7,8 C 92 % 1026,5 hPa 0,0 l/m 9,2 km/h (2 Bft) W-SW 239 0 min 0,0 UV-I 0 W/m 7,1 C 6,2 C 16,1 km/h (3 Bft)
17.02.2023 21:39 8,3 C 7,8 C 92 % 1026,4 hPa 0,0 l/m 12,0 km/h (2 Bft) SW 219 0 min 0,0 UV-I 0 W/m 7,1 C 4,6 C 19,3 km/h (3 Bft)
17.02.2023 21:42 8,3 C 7,8 C 93 % 1026,4 hPa 0,0 l/m 12,5 km/h (3 Bft) SW 223 0 min 0,0 UV-I 0 W/m 7,2 C 4,3 C 20,9 km/h (4 Bft)
17.02.2023 21:45 8,3 C 7,8 C 93 % 1026,4 hPa 0,0 l/m 10,2 km/h (2 Bft) S-SW 213 0 min 0,0 UV-I 0 W/m 7,2 C 5,6 C 19,3 km/h (3 Bft)
17.02.2023 21:48 8,3 C 7,8 C 93 % 1026,5 hPa 0,0 l/m 10,3 km/h (2 Bft) SW 225 0 min 0,0 UV-I 0 W/m 7,2 C 5,5 C 25,7 km/h (4 Bft)
17.02.2023 21:51 8,3 C 7,8 C 93 % 1026,4 hPa 0,0 l/m 11,7 km/h (2 Bft) SW 227 0 min 0,0 UV-I 0 W/m 7,2 C 4,7 C 19,3 km/h (3 Bft)
17.02.2023 21:54 8,3 C 7,8 C 93 % 1026,4 hPa 0,0 l/m 12,2 km/h (2 Bft) SW 227 0 min 0,0 UV-I 0 W/m 7,2 C 4,4 C 20,9 km/h (4 Bft)
17.02.2023 21:57 8,3 C 7,8 C 93 % 1026,4 hPa 0,0 l/m 11,4 km/h (2 Bft) SW 222 0 min 0,0 UV-I 0 W/m 7,2 C 4,9 C 16,1 km/h (3 Bft)
17.02.2023 22:00 8,3 C 7,8 C 93 % 1026,5 hPa 0,0 l/m 9,8 km/h (2 Bft) SW 214 0 min 0,0 UV-I 0 W/m 7,2 C 5,8 C 22,5 km/h (4 Bft)
17.02.2023 22:03 8,3 C 7,8 C 93 % 1026,4 hPa 0,0 l/m 11,5 km/h (2 Bft) SW 223 0 min 0,0 UV-I 0 W/m 7,2 C 4,8 C 17,7 km/h (3 Bft)
17.02.2023 22:06 8,3 C 7,8 C 93 % 1026,3 hPa 0,0 l/m 11,1 km/h (2 Bft) W 268 0 min 0,0 UV-I 0 W/m 7,2 C 5,1 C 20,9 km/h (4 Bft)
17.02.2023 22:09 8,2 C 7,8 C 93 % 1026,3 hPa 0,0 l/m 9,8 km/h (2 Bft) S 180 0 min 0,0 UV-I 0 W/m 7,1 C 5,7 C 16,1 km/h (3 Bft)
17.02.2023 22:12 8,3 C 7,8 C 93 % 1026,4 hPa 0,0 l/m 11,8 km/h (2 Bft) W-SW 238 0 min 0,0 UV-I 0 W/m 7,2 C 4,7 C 24,1 km/h (4 Bft)
17.02.2023 22:15 8,2 C 7,8 C 93 % 1026,5 hPa 0,0 l/m 7,9 km/h (2 Bft) W-SW 246 0 min 0,0 UV-I 0 W/m 7,1 C 7,0 C 16,1 km/h (3 Bft)
17.02.2023 22:18 8,2 C 7,8 C 93 % 1026,4 hPa 0,0 l/m 10,4 km/h (2 Bft) S-SW 206 0 min 0,0 UV-I 0 W/m 7,1 C 5,4 C 17,7 km/h (3 Bft)
17.02.2023 22:21 8,3 C 7,8 C 93 % 1026,4 hPa 0,0 l/m 13,3 km/h (3 Bft) S 176 0 min 0,0 UV-I 0 W/m 7,2 C 3,9 C 30,6 km/h (5 Bft)
17.02.2023 22:24 8,2 C 7,8 C 93 % 1026,4 hPa 0,0 l/m 14,2 km/h (3 Bft) SW 234 0 min 0,0 UV-I 0 W/m 7,1 C 3,3 C 35,4 km/h (5 Bft)
17.02.2023 22:27 8,3 C 7,8 C 93 % 1026,4 hPa 0,2 l/m 16,1 km/h (3 Bft) S 190 0 min 0,0 UV-I 0 W/m 7,2 C 2,6 C 29,0 km/h (5 Bft)
17.02.2023 22:30 8,2 C 7,8 C 93 % 1026,4 hPa 0,0 l/m 15,7 km/h (3 Bft) SW 221 0 min 0,0 UV-I 0 W/m 7,1 C 2,6 C 32,2 km/h (5 Bft)
17.02.2023 22:33 8,2 C 7,8 C 92 % 1026,4 hPa 0,0 l/m 13,7 km/h (3 Bft) W 265 0 min 0,0 UV-I 0 W/m 7,0 C 3,6 C 25,7 km/h (4 Bft)
17.02.2023 22:36 8,2 C 7,8 C 92 % 1026,5 hPa 0,0 l/m 13,7 km/h (3 Bft) SW 232 0 min 0,0 UV-I 0 W/m 7,0 C 3,6 C 27,4 km/h (4 Bft)
17.02.2023 22:39 8,2 C 7,8 C 92 % 1026,4 hPa 0,0 l/m 12,0 km/h (2 Bft) W-SW 237 0 min 0,0 UV-I 0 W/m 7,0 C 4,4 C 25,7 km/h (4 Bft)
17.02.2023 22:42 8,2 C 7,8 C 92 % 1026,5 hPa 0,0 l/m 18,4 km/h (3 Bft) SW 222 0 min 0,0 UV-I 0 W/m 7,0 C 1,5 C 35,4 km/h (5 Bft)
17.02.2023 22:45 8,2 C 7,2 C 92 % 1026,4 hPa 0,0 l/m 11,3 km/h (2 Bft) S 180 0 min 0,0 UV-I 0 W/m 7,0 C 4,8 C 29,0 km/h (5 Bft)
17.02.2023 22:48 8,2 C 7,2 C 92 % 1026,4 hPa 0,0 l/m 11,8 km/h (2 Bft) W-SW 246 0 min 0,0 UV-I 0 W/m 7,0 C 4,6 C 22,5 km/h (4 Bft)
17.02.2023 22:51 8,2 C 7,2 C 92 % 1026,4 hPa 0,0 l/m 11,3 km/h (2 Bft) W-SW 255 0 min 0,0 UV-I 0 W/m 7,0 C 4,8 C 19,3 km/h (3 Bft)
17.02.2023 22:54 8,1 C 7,2 C 92 % 1026,3 hPa 0,0 l/m 9,1 km/h (2 Bft) SW 224 0 min 0,0 UV-I 0 W/m 6,9 C 6,1 C 16,1 km/h (3 Bft)
17.02.2023 22:57 8,1 C 7,2 C 92 % 1026,4 hPa 0,0 l/m 12,7 km/h (3 Bft) S-SW 203 0 min 0,0 UV-I 0 W/m 6,9 C 4,0 C 22,5 km/h (4 Bft)
17.02.2023 23:00 8,1 C 7,2 C 92 % 1026,4 hPa 0,0 l/m 11,2 km/h (2 Bft) W-SW 239 0 min 0,0 UV-I 0 W/m 6,9 C 4,8 C 19,3 km/h (3 Bft)
17.02.2023 23:03 8,1 C 7,2 C 93 % 1026,4 hPa 0,0 l/m 9,7 km/h (2 Bft) W-SW 242 0 min 0,0 UV-I 0 W/m 7,0 C 5,7 C 17,7 km/h (3 Bft)
17.02.2023 23:06 8,1 C 7,2 C 92 % 1026,3 hPa 0,0 l/m 8,8 km/h (2 Bft) SW 221 0 min 0,0 UV-I 0 W/m 6,9 C 6,3 C 14,5 km/h (3 Bft)
17.02.2023 23:09 8,1 C 7,2 C 92 % 1026,4 hPa 0,0 l/m 9,4 km/h (2 Bft) SW 217 0 min 0,0 UV-I 0 W/m 6,9 C 5,9 C 19,3 km/h (3 Bft)
17.02.2023 23:12 8,1 C 7,2 C 93 % 1026,4 hPa 0,0 l/m 9,0 km/h (2 Bft) W-SW 241 0 min 0,0 UV-I 0 W/m 7,0 C 6,1 C 17,7 km/h (3 Bft)
17.02.2023 23:15 8,1 C 7,2 C 93 % 1026,4 hPa 0,0 l/m 12,1 km/h (2 Bft) SW 221 0 min 0,0 UV-I 0 W/m 7,0 C 4,3 C 25,7 km/h (4 Bft)
17.02.2023 23:18 8,1 C 7,2 C 93 % 1026,3 hPa 0,0 l/m 9,2 km/h (2 Bft) SW 231 0 min 0,0 UV-I 0 W/m 7,0 C 6,0 C 24,1 km/h (4 Bft)
17.02.2023 23:21 8,1 C 7,2 C 93 % 1026,2 hPa 0,2 l/m 12,8 km/h (3 Bft) S-SW 194 0 min 0,0 UV-I 0 W/m 7,0 C 3,9 C 27,4 km/h (4 Bft)
17.02.2023 23:24 8,1 C 7,2 C 93 % 1026,2 hPa 0,0 l/m 10,2 km/h (2 Bft) SW 216 0 min 0,0 UV-I 0 W/m 7,0 C 5,4 C 24,1 km/h (4 Bft)
17.02.2023 23:27 8,1 C 7,2 C 93 % 1026,2 hPa 0,0 l/m 10,3 km/h (2 Bft) SW 223 0 min 0,0 UV-I 0 W/m 7,0 C 5,3 C 17,7 km/h (3 Bft)
17.02.2023 23:30 8,1 C 7,2 C 93 % 1026,3 hPa 0,0 l/m 9,5 km/h (2 Bft) SW 229 0 min 0,0 UV-I 0 W/m 7,0 C 5,8 C 17,7 km/h (3 Bft)
17.02.2023 23:33 8,1 C 7,2 C 93 % 1026,1 hPa 0,0 l/m 9,7 km/h (2 Bft) S-SW 207 0 min 0,0 UV-I 0 W/m 7,0 C 5,7 C 16,1 km/h (3 Bft)
17.02.2023 23:36 8,1 C 7,2 C 93 % 1026,1 hPa 0,0 l/m 8,8 km/h (2 Bft) SW 221 0 min 0,0 UV-I 0 W/m 7,0 C 6,3 C 14,5 km/h (3 Bft)
17.02.2023 23:39 8,1 C 7,2 C 93 % 1026,1 hPa 0,0 l/m 15,4 km/h (3 Bft) W-SW 248 0 min 0,0 UV-I 0 W/m 7,0 C 2,7 C 20,9 km/h (4 Bft)
17.02.2023 23:42 8,1 C 7,2 C 93 % 1026,1 hPa 0,0 l/m 12,6 km/h (3 Bft) S-SW 192 0 min 0,0 UV-I 0 W/m 7,0 C 4,0 C 25,7 km/h (4 Bft)
17.02.2023 23:45 8,0 C 7,2 C 93 % 1026,2 hPa 0,0 l/m 13,4 km/h (3 Bft) W 261 0 min 0,0 UV-I 0 W/m 6,9 C 3,5 C 27,4 km/h (4 Bft)
17.02.2023 23:48 8,0 C 7,2 C 93 % 1026,2 hPa 0,0 l/m 11,9 km/h (2 Bft) SW 219 0 min 0,0 UV-I 0 W/m 6,9 C 4,3 C 17,7 km/h (3 Bft)
17.02.2023 23:51 8,0 C 7,2 C 93 % 1026,2 hPa 0,0 l/m 13,0 km/h (3 Bft) W-SW 257 0 min 0,0 UV-I 0 W/m 6,9 C 3,7 C 24,1 km/h (4 Bft)
17.02.2023 23:54 8,0 C 7,2 C 93 % 1026,0 hPa 0,0 l/m 10,3 km/h (2 Bft) SW 219 0 min 0,0 UV-I 0 W/m 6,9 C 5,2 C 16,1 km/h (3 Bft)
17.02.2023 23:57 8,0 C 7,2 C 93 % 1026,1 hPa 0,0 l/m 11,1 km/h (2 Bft) S 184 0 min 0,0 UV-I 0 W/m 6,9 C 4,7 C 19,3 km/h (3 Bft)
17.02.2023 23:58 7,9 C 7,2 C 93 % 1026,1 hPa 0,0 l/m 14,5 km/h (3 Bft) S-SW 202 0 min 0,0 UV-I 0 W/m 6,8 C 2,8 C 24,1 km/h (4 Bft)
17.02.2023 23:59 8,0 C 7,2 C 93 % 1026,1 hPa 0,0 l/m 9,7 km/h (2 Bft) SW 225 0 min 0,0 UV-I 0 W/m 6,9 C 5,6 C 17,7 km/h (3 Bft)
_ Min-Zeit 00:01 00:00 16:09 14:48 - 19:21 - - - - - 00:00 05:02 19:21
Minimum _ 6,9 C 6,1 C 82 % 1023,1 hPa - 5,6 km/h (1 Bft) - - - - - 5,7 C -2,8 C 11,3 km/h (2 Bft)
_ Max-Zeit 14:51 14:48 03:06 21:12 08:03 05:02 - - 00:00 14:48 14:36 14:51 19:09 09:57
Maximum _ 11,6 C 12,8 C 94 % 1026,6 hPa 0,2 l/m 29,0 km/h
S-SW (5 Bft)
- - 0 min 1,1 UV-I 178 W/m 9,5 C 9,7 C 45,1 km/h
S-SO (6 Bft)
Durchschnitt _ 8,7 C 8,2 C 91 % 1024,6 hPa #1,4 l/m 16,9 km/h (3 Bft) S-SW - #0 min. 0,6 UV-I 71 W/m 7,3 C 3,0 C 26,8 km/h (4 Bft)